<?xml version="1.0" encoding="UTF-8"?>
<gpx xmlns="http://www.topografix.com/GPX/1/1" creator="GPSies http://www.gpsies.com - 02/28/2009 (Duration: 03:07:42)" version="1.1" xmlns:xsi="http://www.w3.org/2001/XMLSchema-instance" xsi:schemaLocation="http://www.topografix.com/GPX/1/1 http://www.topografix.com/GPX/1/1/gpx.xsd">
  <metadata>
    <name>02/28/2009 (Duration: 03:07:42)</name>
    <copyright author="GPSies.com" />
    <link href="http://www.gpsies.com/map.do?fileId=ljnrftnyhppgwtyr">
      <text>02/28/2009 (Duration: 03:07:42) on GPSies.com</text>
    </link>
    <time>2009-09-22T11:39:53Z</time>
  </metadata>
  <trk>
    <name>02/28/2009 (Duration: 03:07:42) on GPSies.com</name>
    <link href="http://www.gpsies.com/map.do?fileId=ljnrftnyhppgwtyr" />
    <trkseg>
      <trkpt lat="28.26609880" lon="-16.8176274">
        <ele>591.82885</ele>
        <time>2009-09-22T11:39:52Z</time>
      </trkpt>
      <trkpt lat="28.26610130" lon="-16.8176151">
        <ele>591.34814</ele>
        <time>2009-09-22T11:39:53Z</time>
      </trkpt>
      <trkpt lat="28.26610510" lon="-16.8175897">
        <ele>588.94506</ele>
        <time>2009-09-22T11:39:54Z</time>
      </trkpt>
      <trkpt lat="28.26609690" lon="-16.8174980">
        <ele>585.58007</ele>
        <time>2009-09-22T11:39:57Z</time>
      </trkpt>
      <trkpt lat="28.26608110" lon="-16.8174230">
        <ele>586.54150</ele>
        <time>2009-09-22T11:40:00Z</time>
      </trkpt>
      <trkpt lat="28.26603150" lon="-16.8173509">
        <ele>588.46435</ele>
        <time>2009-09-22T11:40:03Z</time>
      </trkpt>
      <trkpt lat="28.26601030" lon="-16.8173244">
        <ele>589.90625</ele>
        <time>2009-09-22T11:40:04Z</time>
      </trkpt>
      <trkpt lat="28.26599070" lon="-16.8173043">
        <ele>591.82885</ele>
        <time>2009-09-22T11:40:05Z</time>
      </trkpt>
      <trkpt lat="28.26593850" lon="-16.8172546">
        <ele>596.63549</ele>
        <time>2009-09-22T11:40:08Z</time>
      </trkpt>
      <trkpt lat="28.26588500" lon="-16.8172017">
        <ele>597.59667</ele>
        <time>2009-09-22T11:40:11Z</time>
      </trkpt>
      <trkpt lat="28.26582800" lon="-16.8171620">
        <ele>601.44189</ele>
        <time>2009-09-22T11:40:14Z</time>
      </trkpt>
      <trkpt lat="28.26580460" lon="-16.8171459">
        <ele>602.40307</ele>
        <time>2009-09-22T11:40:15Z</time>
      </trkpt>
      <trkpt lat="28.26574720" lon="-16.8171295">
        <ele>602.88378</ele>
        <time>2009-09-22T11:40:17Z</time>
      </trkpt>
      <trkpt lat="28.26570900" lon="-16.8171316">
        <ele>604.80664</ele>
        <time>2009-09-22T11:40:19Z</time>
      </trkpt>
      <trkpt lat="28.26565430" lon="-16.8171406">
        <ele>604.80664</ele>
        <time>2009-09-22T11:40:21Z</time>
      </trkpt>
      <trkpt lat="28.26556470" lon="-16.8171521">
        <ele>606.24853</ele>
        <time>2009-09-22T11:40:24Z</time>
      </trkpt>
      <trkpt lat="28.26550330" lon="-16.8171376">
        <ele>606.72924</ele>
        <time>2009-09-22T11:40:27Z</time>
      </trkpt>
      <trkpt lat="28.26547760" lon="-16.8171314">
        <ele>606.72924</ele>
        <time>2009-09-22T11:40:28Z</time>
      </trkpt>
      <trkpt lat="28.26542190" lon="-16.8171058">
        <ele>609.61328</ele>
        <time>2009-09-22T11:40:30Z</time>
      </trkpt>
      <trkpt lat="28.26540010" lon="-16.8171075">
        <ele>611.05517</ele>
        <time>2009-09-22T11:40:31Z</time>
      </trkpt>
      <trkpt lat="28.26537870" lon="-16.8171018">
        <ele>611.05517</ele>
        <time>2009-09-22T11:40:32Z</time>
      </trkpt>
      <trkpt lat="28.26536970" lon="-16.8170925">
        <ele>612.01660</ele>
        <time>2009-09-22T11:40:33Z</time>
      </trkpt>
      <trkpt lat="28.26537940" lon="-16.8170855">
        <ele>612.01660</ele>
        <time>2009-09-22T11:40:33Z</time>
      </trkpt>
      <trkpt lat="28.26540060" lon="-16.8169882">
        <ele>610.57446</ele>
        <time>2009-09-22T11:40:37Z</time>
      </trkpt>
      <trkpt lat="28.26540210" lon="-16.8169721">
        <ele>610.57446</ele>
        <time>2009-09-22T11:40:37Z</time>
      </trkpt>
      <trkpt lat="28.26537890" lon="-16.8169101">
        <ele>612.49707</ele>
        <time>2009-09-22T11:40:40Z</time>
      </trkpt>
      <trkpt lat="28.26536710" lon="-16.8168731">
        <ele>612.49707</ele>
        <time>2009-09-22T11:40:41Z</time>
      </trkpt>
      <trkpt lat="28.26534300" lon="-16.8168375">
        <ele>615.38110</ele>
        <time>2009-09-22T11:40:43Z</time>
      </trkpt>
      <trkpt lat="28.26534630" lon="-16.8168428">
        <ele>616.82299</ele>
        <time>2009-09-22T11:40:43Z</time>
      </trkpt>
      <trkpt lat="28.26537940" lon="-16.8168804">
        <ele>615.38110</ele>
        <time>2009-09-22T11:40:45Z</time>
      </trkpt>
      <trkpt lat="28.26541270" lon="-16.8169516">
        <ele>612.97778</ele>
        <time>2009-09-22T11:40:47Z</time>
      </trkpt>
      <trkpt lat="28.26542630" lon="-16.8169966">
        <ele>612.01660</ele>
        <time>2009-09-22T11:40:49Z</time>
      </trkpt>
      <trkpt lat="28.26539330" lon="-16.8170363">
        <ele>610.57446</ele>
        <time>2009-09-22T11:40:51Z</time>
      </trkpt>
      <trkpt lat="28.26536390" lon="-16.8170591">
        <ele>609.61328</ele>
        <time>2009-09-22T11:40:53Z</time>
      </trkpt>
      <trkpt lat="28.26529660" lon="-16.8170830">
        <ele>608.17138</ele>
        <time>2009-09-22T11:40:55Z</time>
      </trkpt>
      <trkpt lat="28.26521340" lon="-16.8170887">
        <ele>606.72924</ele>
        <time>2009-09-22T11:40:59Z</time>
      </trkpt>
      <trkpt lat="28.26512460" lon="-16.8170720">
        <ele>608.65185</ele>
        <time>2009-09-22T11:41:02Z</time>
      </trkpt>
      <trkpt lat="28.26511060" lon="-16.8170707">
        <ele>608.65185</ele>
        <time>2009-09-22T11:41:03Z</time>
      </trkpt>
      <trkpt lat="28.26499980" lon="-16.8170461">
        <ele>609.61328</ele>
        <time>2009-09-22T11:41:07Z</time>
      </trkpt>
      <trkpt lat="28.26492180" lon="-16.8170365">
        <ele>610.57446</ele>
        <time>2009-09-22T11:41:11Z</time>
      </trkpt>
      <trkpt lat="28.26485670" lon="-16.8170484">
        <ele>611.05517</ele>
        <time>2009-09-22T11:41:13Z</time>
      </trkpt>
      <trkpt lat="28.26484380" lon="-16.8170473">
        <ele>611.53588</ele>
        <time>2009-09-22T11:41:14Z</time>
      </trkpt>
      <trkpt lat="28.26472620" lon="-16.8170221">
        <ele>612.01660</ele>
        <time>2009-09-22T11:41:18Z</time>
      </trkpt>
      <trkpt lat="28.26463000" lon="-16.8170313">
        <ele>612.97778</ele>
        <time>2009-09-22T11:41:22Z</time>
      </trkpt>
      <trkpt lat="28.26459920" lon="-16.8170411">
        <ele>614.41967</ele>
        <time>2009-09-22T11:41:24Z</time>
      </trkpt>
      <trkpt lat="28.26455890" lon="-16.8170503">
        <ele>615.38110</ele>
        <time>2009-09-22T11:41:25Z</time>
      </trkpt>
      <trkpt lat="28.26454370" lon="-16.8170664">
        <ele>614.90039</ele>
        <time>2009-09-22T11:41:26Z</time>
      </trkpt>
      <trkpt lat="28.26459110" lon="-16.8170614">
        <ele>613.45849</ele>
        <time>2009-09-22T11:41:28Z</time>
      </trkpt>
      <trkpt lat="28.26460400" lon="-16.8170588">
        <ele>613.45849</ele>
        <time>2009-09-22T11:41:29Z</time>
      </trkpt>
      <trkpt lat="28.26470690" lon="-16.8170285">
        <ele>612.01660</ele>
        <time>2009-09-22T11:41:33Z</time>
      </trkpt>
      <trkpt lat="28.26481620" lon="-16.8170140">
        <ele>611.53588</ele>
        <time>2009-09-22T11:41:37Z</time>
      </trkpt>
      <trkpt lat="28.26491620" lon="-16.8170261">
        <ele>611.53588</ele>
        <time>2009-09-22T11:41:41Z</time>
      </trkpt>
      <trkpt lat="28.26501950" lon="-16.8170438">
        <ele>611.53588</ele>
        <time>2009-09-22T11:41:45Z</time>
      </trkpt>
      <trkpt lat="28.26511920" lon="-16.8170617">
        <ele>611.05517</ele>
        <time>2009-09-22T11:41:49Z</time>
      </trkpt>
      <trkpt lat="28.26522040" lon="-16.8170826">
        <ele>611.53588</ele>
        <time>2009-09-22T11:41:54Z</time>
      </trkpt>
      <trkpt lat="28.26535080" lon="-16.8170777">
        <ele>611.53588</ele>
        <time>2009-09-22T11:41:59Z</time>
      </trkpt>
      <trkpt lat="28.26537010" lon="-16.8170748">
        <ele>611.53588</ele>
        <time>2009-09-22T11:42:00Z</time>
      </trkpt>
      <trkpt lat="28.26538930" lon="-16.8170198">
        <ele>611.53588</ele>
        <time>2009-09-22T11:42:02Z</time>
      </trkpt>
      <trkpt lat="28.26540370" lon="-16.8169729">
        <ele>611.53588</ele>
        <time>2009-09-22T11:42:03Z</time>
      </trkpt>
      <trkpt lat="28.26538850" lon="-16.8168945">
        <ele>611.53588</ele>
        <time>2009-09-22T11:42:06Z</time>
      </trkpt>
      <trkpt lat="28.26536500" lon="-16.8168325">
        <ele>612.01660</ele>
        <time>2009-09-22T11:42:09Z</time>
      </trkpt>
      <trkpt lat="28.26535900" lon="-16.8168268">
        <ele>612.49707</ele>
        <time>2009-09-22T11:42:09Z</time>
      </trkpt>
      <trkpt lat="28.26530440" lon="-16.8168034">
        <ele>614.90039</ele>
        <time>2009-09-22T11:42:11Z</time>
      </trkpt>
      <trkpt lat="28.26526900" lon="-16.8167823">
        <ele>616.82299</ele>
        <time>2009-09-22T11:42:13Z</time>
      </trkpt>
      <trkpt lat="28.26525640" lon="-16.8167211">
        <ele>618.26489</ele>
        <time>2009-09-22T11:42:15Z</time>
      </trkpt>
      <trkpt lat="28.26525090" lon="-16.8167120">
        <ele>618.74560</ele>
        <time>2009-09-22T11:42:15Z</time>
      </trkpt>
      <trkpt lat="28.26522790" lon="-16.8166406">
        <ele>621.62963</ele>
        <time>2009-09-22T11:42:18Z</time>
      </trkpt>
      <trkpt lat="28.26521270" lon="-16.8165672">
        <ele>624.51367</ele>
        <time>2009-09-22T11:42:21Z</time>
      </trkpt>
      <trkpt lat="28.26520730" lon="-16.8165568">
        <ele>625.47485</ele>
        <time>2009-09-22T11:42:21Z</time>
      </trkpt>
      <trkpt lat="28.26518920" lon="-16.8165401">
        <ele>625.47485</ele>
        <time>2009-09-22T11:42:22Z</time>
      </trkpt>
      <trkpt lat="28.26520910" lon="-16.8164982">
        <ele>626.43627</ele>
        <time>2009-09-22T11:42:24Z</time>
      </trkpt>
      <trkpt lat="28.26518580" lon="-16.8164537">
        <ele>628.35888</ele>
        <time>2009-09-22T11:42:26Z</time>
      </trkpt>
      <trkpt lat="28.26517010" lon="-16.8164295">
        <ele>629.80078</ele>
        <time>2009-09-22T11:42:27Z</time>
      </trkpt>
      <trkpt lat="28.26516060" lon="-16.8164268">
        <ele>630.76220</ele>
        <time>2009-09-22T11:42:27Z</time>
      </trkpt>
      <trkpt lat="28.26516340" lon="-16.8164324">
        <ele>630.28149</ele>
        <time>2009-09-22T11:42:27Z</time>
      </trkpt>
      <trkpt lat="28.26515600" lon="-16.8164422">
        <ele>630.76220</ele>
        <time>2009-09-22T11:42:28Z</time>
      </trkpt>
      <trkpt lat="28.26515350" lon="-16.8164376">
        <ele>629.80078</ele>
        <time>2009-09-22T11:42:28Z</time>
      </trkpt>
      <trkpt lat="28.26515040" lon="-16.8164216">
        <ele>629.80078</ele>
        <time>2009-09-22T11:42:29Z</time>
      </trkpt>
      <trkpt lat="28.26514940" lon="-16.8163763">
        <ele>629.32006</ele>
        <time>2009-09-22T11:42:30Z</time>
      </trkpt>
      <trkpt lat="28.26512880" lon="-16.8163388">
        <ele>629.80078</ele>
        <time>2009-09-22T11:42:32Z</time>
      </trkpt>
      <trkpt lat="28.26511790" lon="-16.8162947">
        <ele>629.32006</ele>
        <time>2009-09-22T11:42:33Z</time>
      </trkpt>
      <trkpt lat="28.26509660" lon="-16.8162559">
        <ele>629.32006</ele>
        <time>2009-09-22T11:42:35Z</time>
      </trkpt>
      <trkpt lat="28.26507220" lon="-16.8162300">
        <ele>630.28149</ele>
        <time>2009-09-22T11:42:36Z</time>
      </trkpt>
      <trkpt lat="28.26504010" lon="-16.8162303">
        <ele>631.24291</ele>
        <time>2009-09-22T11:42:38Z</time>
      </trkpt>
      <trkpt lat="28.26502150" lon="-16.8161637">
        <ele>632.20410</ele>
        <time>2009-09-22T11:42:40Z</time>
      </trkpt>
      <trkpt lat="28.26501150" lon="-16.8161574">
        <ele>632.20410</ele>
        <time>2009-09-22T11:42:40Z</time>
      </trkpt>
      <trkpt lat="28.26496760" lon="-16.8161455">
        <ele>635.08813</ele>
        <time>2009-09-22T11:42:42Z</time>
      </trkpt>
      <trkpt lat="28.26496450" lon="-16.8161298">
        <ele>636.53027</ele>
        <time>2009-09-22T11:42:43Z</time>
      </trkpt>
      <trkpt lat="28.26492420" lon="-16.8160808">
        <ele>638.93359</ele>
        <time>2009-09-22T11:42:45Z</time>
      </trkpt>
      <trkpt lat="28.26490000" lon="-16.8160747">
        <ele>640.85595</ele>
        <time>2009-09-22T11:42:46Z</time>
      </trkpt>
      <trkpt lat="28.26486840" lon="-16.8160813">
        <ele>641.33666</ele>
        <time>2009-09-22T11:42:47Z</time>
      </trkpt>
      <trkpt lat="28.26485840" lon="-16.8160818">
        <ele>641.81738</ele>
        <time>2009-09-22T11:42:48Z</time>
      </trkpt>
      <trkpt lat="28.26483430" lon="-16.8160995">
        <ele>643.25927</ele>
        <time>2009-09-22T11:42:49Z</time>
      </trkpt>
      <trkpt lat="28.26479810" lon="-16.8161615">
        <ele>645.18188</ele>
        <time>2009-09-22T11:42:52Z</time>
      </trkpt>
      <trkpt lat="28.26478160" lon="-16.8161947">
        <ele>646.14331</ele>
        <time>2009-09-22T11:42:53Z</time>
      </trkpt>
      <trkpt lat="28.26478230" lon="-16.8161924">
        <ele>647.10449</ele>
        <time>2009-09-22T11:42:53Z</time>
      </trkpt>
      <trkpt lat="28.26475210" lon="-16.8161708">
        <ele>647.58520</ele>
        <time>2009-09-22T11:42:55Z</time>
      </trkpt>
      <trkpt lat="28.26472520" lon="-16.8161186">
        <ele>646.62402</ele>
        <time>2009-09-22T11:42:57Z</time>
      </trkpt>
      <trkpt lat="28.26470440" lon="-16.8160766">
        <ele>647.10449</ele>
        <time>2009-09-22T11:42:58Z</time>
      </trkpt>
      <trkpt lat="28.26469080" lon="-16.8160306">
        <ele>648.06591</ele>
        <time>2009-09-22T11:43:00Z</time>
      </trkpt>
      <trkpt lat="28.26468710" lon="-16.8159790">
        <ele>649.02709</ele>
        <time>2009-09-22T11:43:02Z</time>
      </trkpt>
      <trkpt lat="28.26470690" lon="-16.8159280">
        <ele>649.50781</ele>
        <time>2009-09-22T11:43:04Z</time>
      </trkpt>
      <trkpt lat="28.26471740" lon="-16.8158846">
        <ele>651.43041</ele>
        <time>2009-09-22T11:43:05Z</time>
      </trkpt>
      <trkpt lat="28.26471770" lon="-16.8158503">
        <ele>652.87255</ele>
        <time>2009-09-22T11:43:07Z</time>
      </trkpt>
      <trkpt lat="28.26467570" lon="-16.8158311">
        <ele>653.83398</ele>
        <time>2009-09-22T11:43:08Z</time>
      </trkpt>
      <trkpt lat="28.26464160" lon="-16.8157979">
        <ele>653.83398</ele>
        <time>2009-09-22T11:43:10Z</time>
      </trkpt>
      <trkpt lat="28.26461940" lon="-16.8157715">
        <ele>655.75659</ele>
        <time>2009-09-22T11:43:12Z</time>
      </trkpt>
      <trkpt lat="28.26461460" lon="-16.8157371">
        <ele>656.71777</ele>
        <time>2009-09-22T11:43:13Z</time>
      </trkpt>
      <trkpt lat="28.26460850" lon="-16.8157014">
        <ele>657.19848</ele>
        <time>2009-09-22T11:43:14Z</time>
      </trkpt>
      <trkpt lat="28.26459500" lon="-16.8156788">
        <ele>657.67919</ele>
        <time>2009-09-22T11:43:15Z</time>
      </trkpt>
      <trkpt lat="28.26459510" lon="-16.8156900">
        <ele>658.15991</ele>
        <time>2009-09-22T11:43:15Z</time>
      </trkpt>
      <trkpt lat="28.26455680" lon="-16.8156726">
        <ele>657.67919</ele>
        <time>2009-09-22T11:43:17Z</time>
      </trkpt>
      <trkpt lat="28.26454890" lon="-16.8156674">
        <ele>658.15991</ele>
        <time>2009-09-22T11:43:17Z</time>
      </trkpt>
      <trkpt lat="28.26450850" lon="-16.8156432">
        <ele>660.08227</ele>
        <time>2009-09-22T11:43:19Z</time>
      </trkpt>
      <trkpt lat="28.26446310" lon="-16.8156000">
        <ele>661.52441</ele>
        <time>2009-09-22T11:43:22Z</time>
      </trkpt>
      <trkpt lat="28.26442880" lon="-16.8155627">
        <ele>662.96630</ele>
        <time>2009-09-22T11:43:24Z</time>
      </trkpt>
      <trkpt lat="28.26441190" lon="-16.8155213">
        <ele>663.92749</ele>
        <time>2009-09-22T11:43:25Z</time>
      </trkpt>
      <trkpt lat="28.26437770" lon="-16.8154327">
        <ele>665.85034</ele>
        <time>2009-09-22T11:43:29Z</time>
      </trkpt>
      <trkpt lat="28.26435870" lon="-16.8153653">
        <ele>667.77270</ele>
        <time>2009-09-22T11:43:31Z</time>
      </trkpt>
      <trkpt lat="28.26432740" lon="-16.8153080">
        <ele>667.77270</ele>
        <time>2009-09-22T11:43:33Z</time>
      </trkpt>
      <trkpt lat="28.26427220" lon="-16.8152608">
        <ele>667.29223</ele>
        <time>2009-09-22T11:43:36Z</time>
      </trkpt>
      <trkpt lat="28.26419090" lon="-16.8151868">
        <ele>669.69580</ele>
        <time>2009-09-22T11:43:40Z</time>
      </trkpt>
      <trkpt lat="28.26414960" lon="-16.8151463">
        <ele>671.13769</ele>
        <time>2009-09-22T11:43:43Z</time>
      </trkpt>
      <trkpt lat="28.26410730" lon="-16.8151115">
        <ele>671.61816</ele>
        <time>2009-09-22T11:43:45Z</time>
      </trkpt>
      <trkpt lat="28.26408260" lon="-16.8150852">
        <ele>672.09887</ele>
        <time>2009-09-22T11:43:46Z</time>
      </trkpt>
      <trkpt lat="28.26402200" lon="-16.8150129">
        <ele>672.57958</ele>
        <time>2009-09-22T11:43:49Z</time>
      </trkpt>
      <trkpt lat="28.26396770" lon="-16.8149391">
        <ele>673.06030</ele>
        <time>2009-09-22T11:43:53Z</time>
      </trkpt>
      <trkpt lat="28.26391090" lon="-16.8148706">
        <ele>674.98291</ele>
        <time>2009-09-22T11:43:56Z</time>
      </trkpt>
      <trkpt lat="28.26385490" lon="-16.8148218">
        <ele>677.86669</ele>
        <time>2009-09-22T11:43:59Z</time>
      </trkpt>
      <trkpt lat="28.26381580" lon="-16.8147862">
        <ele>677.86669</ele>
        <time>2009-09-22T11:44:01Z</time>
      </trkpt>
      <trkpt lat="28.26375130" lon="-16.8147530">
        <ele>679.30859</ele>
        <time>2009-09-22T11:44:04Z</time>
      </trkpt>
      <trkpt lat="28.26369910" lon="-16.8147443">
        <ele>680.27001</ele>
        <time>2009-09-22T11:44:06Z</time>
      </trkpt>
      <trkpt lat="28.26363140" lon="-16.8147193">
        <ele>681.71191</ele>
        <time>2009-09-22T11:44:09Z</time>
      </trkpt>
      <trkpt lat="28.26357080" lon="-16.8147065">
        <ele>682.67333</ele>
        <time>2009-09-22T11:44:11Z</time>
      </trkpt>
      <trkpt lat="28.26350610" lon="-16.8147012">
        <ele>683.63452</ele>
        <time>2009-09-22T11:44:14Z</time>
      </trkpt>
      <trkpt lat="28.26342170" lon="-16.8146915">
        <ele>686.03808</ele>
        <time>2009-09-22T11:44:17Z</time>
      </trkpt>
      <trkpt lat="28.26337400" lon="-16.8146489">
        <ele>686.99926</ele>
        <time>2009-09-22T11:44:20Z</time>
      </trkpt>
      <trkpt lat="28.26334200" lon="-16.8145823">
        <ele>687.96069</ele>
        <time>2009-09-22T11:44:22Z</time>
      </trkpt>
      <trkpt lat="28.26331460" lon="-16.8145206">
        <ele>689.40258</ele>
        <time>2009-09-22T11:44:25Z</time>
      </trkpt>
      <trkpt lat="28.26328800" lon="-16.8144366">
        <ele>690.36401</ele>
        <time>2009-09-22T11:44:28Z</time>
      </trkpt>
      <trkpt lat="28.26327150" lon="-16.8143536">
        <ele>692.28662</ele>
        <time>2009-09-22T11:44:31Z</time>
      </trkpt>
      <trkpt lat="28.26322710" lon="-16.8142848">
        <ele>693.24780</ele>
        <time>2009-09-22T11:44:34Z</time>
      </trkpt>
      <trkpt lat="28.26319810" lon="-16.8142299">
        <ele>695.65112</ele>
        <time>2009-09-22T11:44:36Z</time>
      </trkpt>
      <trkpt lat="28.26318670" lon="-16.8141811">
        <ele>696.13183</ele>
        <time>2009-09-22T11:44:38Z</time>
      </trkpt>
      <trkpt lat="28.26317120" lon="-16.8141385">
        <ele>697.57373</ele>
        <time>2009-09-22T11:44:40Z</time>
      </trkpt>
      <trkpt lat="28.26314120" lon="-16.8141044">
        <ele>698.53491</ele>
        <time>2009-09-22T11:44:41Z</time>
      </trkpt>
      <trkpt lat="28.26312500" lon="-16.8140823">
        <ele>699.97705</ele>
        <time>2009-09-22T11:44:42Z</time>
      </trkpt>
      <trkpt lat="28.26309850" lon="-16.8140309">
        <ele>700.93847</ele>
        <time>2009-09-22T11:44:44Z</time>
      </trkpt>
      <trkpt lat="28.26308130" lon="-16.8140020">
        <ele>702.38037</ele>
        <time>2009-09-22T11:44:46Z</time>
      </trkpt>
      <trkpt lat="28.26306640" lon="-16.8139816">
        <ele>702.86108</ele>
        <time>2009-09-22T11:44:47Z</time>
      </trkpt>
      <trkpt lat="28.26307120" lon="-16.8139382">
        <ele>704.30322</ele>
        <time>2009-09-22T11:44:48Z</time>
      </trkpt>
      <trkpt lat="28.26307110" lon="-16.8139102">
        <ele>704.30322</ele>
        <time>2009-09-22T11:44:49Z</time>
      </trkpt>
      <trkpt lat="28.26304380" lon="-16.8138752">
        <ele>704.78369</ele>
        <time>2009-09-22T11:44:51Z</time>
      </trkpt>
      <trkpt lat="28.26301520" lon="-16.8138222">
        <ele>706.70629</ele>
        <time>2009-09-22T11:44:53Z</time>
      </trkpt>
      <trkpt lat="28.26299280" lon="-16.8138052">
        <ele>707.66772</ele>
        <time>2009-09-22T11:44:54Z</time>
      </trkpt>
      <trkpt lat="28.26298570" lon="-16.8137875">
        <ele>708.14843</ele>
        <time>2009-09-22T11:44:55Z</time>
      </trkpt>
      <trkpt lat="28.26299600" lon="-16.8137600">
        <ele>708.14843</ele>
        <time>2009-09-22T11:44:56Z</time>
      </trkpt>
      <trkpt lat="28.26302380" lon="-16.8137244">
        <ele>709.59033</ele>
        <time>2009-09-22T11:44:57Z</time>
      </trkpt>
      <trkpt lat="28.26306250" lon="-16.8136952">
        <ele>710.55151</ele>
        <time>2009-09-22T11:44:59Z</time>
      </trkpt>
      <trkpt lat="28.26308360" lon="-16.8136687">
        <ele>711.99365</ele>
        <time>2009-09-22T11:45:01Z</time>
      </trkpt>
      <trkpt lat="28.26311100" lon="-16.8136431">
        <ele>712.95483</ele>
        <time>2009-09-22T11:45:02Z</time>
      </trkpt>
      <trkpt lat="28.26313910" lon="-16.8136131">
        <ele>713.91601</ele>
        <time>2009-09-22T11:45:04Z</time>
      </trkpt>
      <trkpt lat="28.26316890" lon="-16.8135755">
        <ele>715.35815</ele>
        <time>2009-09-22T11:45:05Z</time>
      </trkpt>
      <trkpt lat="28.26317530" lon="-16.8135430">
        <ele>715.83886</ele>
        <time>2009-09-22T11:45:07Z</time>
      </trkpt>
      <trkpt lat="28.26320420" lon="-16.8135079">
        <ele>715.83886</ele>
        <time>2009-09-22T11:45:08Z</time>
      </trkpt>
      <trkpt lat="28.26321930" lon="-16.8134757">
        <ele>715.83886</ele>
        <time>2009-09-22T11:45:10Z</time>
      </trkpt>
      <trkpt lat="28.26323620" lon="-16.8134508">
        <ele>718.72290</ele>
        <time>2009-09-22T11:45:11Z</time>
      </trkpt>
      <trkpt lat="28.26324930" lon="-16.8134280">
        <ele>720.64550</ele>
        <time>2009-09-22T11:45:12Z</time>
      </trkpt>
      <trkpt lat="28.26326070" lon="-16.8134130">
        <ele>721.12622</ele>
        <time>2009-09-22T11:45:12Z</time>
      </trkpt>
      <trkpt lat="28.26327370" lon="-16.8133760">
        <ele>721.60668</ele>
        <time>2009-09-22T11:45:14Z</time>
      </trkpt>
      <trkpt lat="28.26326280" lon="-16.8133690">
        <ele>721.60668</ele>
        <time>2009-09-22T11:45:14Z</time>
      </trkpt>
      <trkpt lat="28.26323290" lon="-16.8133621">
        <ele>722.08740</ele>
        <time>2009-09-22T11:45:15Z</time>
      </trkpt>
      <trkpt lat="28.26319630" lon="-16.8133662">
        <ele>722.56811</ele>
        <time>2009-09-22T11:45:17Z</time>
      </trkpt>
      <trkpt lat="28.26316650" lon="-16.8133647">
        <ele>722.56811</ele>
        <time>2009-09-22T11:45:18Z</time>
      </trkpt>
      <trkpt lat="28.26314520" lon="-16.8133559">
        <ele>723.52954</ele>
        <time>2009-09-22T11:45:19Z</time>
      </trkpt>
      <trkpt lat="28.26312950" lon="-16.8133510">
        <ele>725.93261</ele>
        <time>2009-09-22T11:45:20Z</time>
      </trkpt>
      <trkpt lat="28.26308100" lon="-16.8133643">
        <ele>728.33593</ele>
        <time>2009-09-22T11:45:22Z</time>
      </trkpt>
      <trkpt lat="28.26303680" lon="-16.8133665">
        <ele>729.77783</ele>
        <time>2009-09-22T11:45:23Z</time>
      </trkpt>
      <trkpt lat="28.26299240" lon="-16.8133606">
        <ele>730.73925</ele>
        <time>2009-09-22T11:45:25Z</time>
      </trkpt>
      <trkpt lat="28.26295160" lon="-16.8133794">
        <ele>733.62329</ele>
        <time>2009-09-22T11:45:27Z</time>
      </trkpt>
      <trkpt lat="28.26291350" lon="-16.8133898">
        <ele>734.58471</ele>
        <time>2009-09-22T11:45:29Z</time>
      </trkpt>
      <trkpt lat="28.26289300" lon="-16.8134026">
        <ele>736.50732</ele>
        <time>2009-09-22T11:45:29Z</time>
      </trkpt>
      <trkpt lat="28.26286200" lon="-16.8134068">
        <ele>738.42993</ele>
        <time>2009-09-22T11:45:31Z</time>
      </trkpt>
      <trkpt lat="28.26283910" lon="-16.8133948">
        <ele>740.35253</ele>
        <time>2009-09-22T11:45:32Z</time>
      </trkpt>
      <trkpt lat="28.26279660" lon="-16.8133603">
        <ele>740.35253</ele>
        <time>2009-09-22T11:45:34Z</time>
      </trkpt>
      <trkpt lat="28.26274680" lon="-16.8133523">
        <ele>740.35253</ele>
        <time>2009-09-22T11:45:36Z</time>
      </trkpt>
      <trkpt lat="28.26271740" lon="-16.8133525">
        <ele>741.31372</ele>
        <time>2009-09-22T11:45:37Z</time>
      </trkpt>
      <trkpt lat="28.26270130" lon="-16.8133394">
        <ele>742.27514</ele>
        <time>2009-09-22T11:45:38Z</time>
      </trkpt>
      <trkpt lat="28.26271440" lon="-16.8133093">
        <ele>742.75585</ele>
        <time>2009-09-22T11:45:39Z</time>
      </trkpt>
      <trkpt lat="28.26274020" lon="-16.8132851">
        <ele>743.71704</ele>
        <time>2009-09-22T11:45:40Z</time>
      </trkpt>
      <trkpt lat="28.26274850" lon="-16.8132839">
        <ele>743.23632</ele>
        <time>2009-09-22T11:45:41Z</time>
      </trkpt>
      <trkpt lat="28.26274480" lon="-16.8132924">
        <ele>743.71704</ele>
        <time>2009-09-22T11:45:41Z</time>
      </trkpt>
      <trkpt lat="28.26274590" lon="-16.8132882">
        <ele>742.75585</ele>
        <time>2009-09-22T11:45:41Z</time>
      </trkpt>
      <trkpt lat="28.26274740" lon="-16.8132959">
        <ele>745.15893</ele>
        <time>2009-09-22T11:45:41Z</time>
      </trkpt>
      <trkpt lat="28.26275130" lon="-16.8132750">
        <ele>742.75585</ele>
        <time>2009-09-22T11:45:42Z</time>
      </trkpt>
      <trkpt lat="28.26275870" lon="-16.8132512">
        <ele>741.31372</ele>
        <time>2009-09-22T11:45:43Z</time>
      </trkpt>
      <trkpt lat="28.26277750" lon="-16.8132250">
        <ele>741.79443</ele>
        <time>2009-09-22T11:45:44Z</time>
      </trkpt>
      <trkpt lat="28.26279090" lon="-16.8131831">
        <ele>742.27514</ele>
        <time>2009-09-22T11:45:46Z</time>
      </trkpt>
      <trkpt lat="28.26277210" lon="-16.8131659">
        <ele>743.23632</ele>
        <time>2009-09-22T11:45:47Z</time>
      </trkpt>
      <trkpt lat="28.26274480" lon="-16.8131789">
        <ele>746.12036</ele>
        <time>2009-09-22T11:45:48Z</time>
      </trkpt>
      <trkpt lat="28.26270560" lon="-16.8131686">
        <ele>749.00439</ele>
        <time>2009-09-22T11:45:50Z</time>
      </trkpt>
      <trkpt lat="28.26266830" lon="-16.8131623">
        <ele>750.92700</ele>
        <time>2009-09-22T11:45:51Z</time>
      </trkpt>
      <trkpt lat="28.26262470" lon="-16.8131771">
        <ele>751.88842</ele>
        <time>2009-09-22T11:45:53Z</time>
      </trkpt>
      <trkpt lat="28.26258320" lon="-16.8132092">
        <ele>753.33032</ele>
        <time>2009-09-22T11:45:55Z</time>
      </trkpt>
      <trkpt lat="28.26255290" lon="-16.8132277">
        <ele>755.25292</ele>
        <time>2009-09-22T11:45:56Z</time>
      </trkpt>
      <trkpt lat="28.26251940" lon="-16.8132436">
        <ele>755.73364</ele>
        <time>2009-09-22T11:45:58Z</time>
      </trkpt>
      <trkpt lat="28.26248590" lon="-16.8132743">
        <ele>756.69482</ele>
        <time>2009-09-22T11:45:59Z</time>
      </trkpt>
      <trkpt lat="28.26245250" lon="-16.8133026">
        <ele>758.61743</ele>
        <time>2009-09-22T11:46:01Z</time>
      </trkpt>
      <trkpt lat="28.26239460" lon="-16.8133285">
        <ele>760.05932</ele>
        <time>2009-09-22T11:46:04Z</time>
      </trkpt>
      <trkpt lat="28.26236660" lon="-16.8133482">
        <ele>760.05932</ele>
        <time>2009-09-22T11:46:05Z</time>
      </trkpt>
      <trkpt lat="28.26233440" lon="-16.8133793">
        <ele>760.54003</ele>
        <time>2009-09-22T11:46:07Z</time>
      </trkpt>
      <trkpt lat="28.26228890" lon="-16.8134102">
        <ele>761.50146</ele>
        <time>2009-09-22T11:46:09Z</time>
      </trkpt>
      <trkpt lat="28.26225380" lon="-16.8134370">
        <ele>761.50146</ele>
        <time>2009-09-22T11:46:10Z</time>
      </trkpt>
      <trkpt lat="28.26221760" lon="-16.8134735">
        <ele>761.98217</ele>
        <time>2009-09-22T11:46:12Z</time>
      </trkpt>
      <trkpt lat="28.26218590" lon="-16.8134646">
        <ele>761.50146</ele>
        <time>2009-09-22T11:46:14Z</time>
      </trkpt>
      <trkpt lat="28.26217100" lon="-16.8134203">
        <ele>761.02075</ele>
        <time>2009-09-22T11:46:15Z</time>
      </trkpt>
      <trkpt lat="28.26217660" lon="-16.8133783">
        <ele>761.02075</ele>
        <time>2009-09-22T11:46:17Z</time>
      </trkpt>
      <trkpt lat="28.26214760" lon="-16.8133731">
        <ele>761.02075</ele>
        <time>2009-09-22T11:46:18Z</time>
      </trkpt>
      <trkpt lat="28.26211390" lon="-16.8134071">
        <ele>762.46264</ele>
        <time>2009-09-22T11:46:20Z</time>
      </trkpt>
      <trkpt lat="28.26206840" lon="-16.8134358">
        <ele>764.38549</ele>
        <time>2009-09-22T11:46:22Z</time>
      </trkpt>
      <trkpt lat="28.26203310" lon="-16.8134750">
        <ele>765.82763</ele>
        <time>2009-09-22T11:46:24Z</time>
      </trkpt>
      <trkpt lat="28.26202570" lon="-16.8134808">
        <ele>765.82763</ele>
        <time>2009-09-22T11:46:24Z</time>
      </trkpt>
      <trkpt lat="28.26199060" lon="-16.8135094">
        <ele>766.30810</ele>
        <time>2009-09-22T11:46:26Z</time>
      </trkpt>
      <trkpt lat="28.26196870" lon="-16.8135227">
        <ele>767.26953</ele>
        <time>2009-09-22T11:46:27Z</time>
      </trkpt>
      <trkpt lat="28.26193160" lon="-16.8135249">
        <ele>769.67285</ele>
        <time>2009-09-22T11:46:28Z</time>
      </trkpt>
      <trkpt lat="28.26189620" lon="-16.8135316">
        <ele>771.59521</ele>
        <time>2009-09-22T11:46:30Z</time>
      </trkpt>
      <trkpt lat="28.26185690" lon="-16.8135337">
        <ele>772.55664</ele>
        <time>2009-09-22T11:46:31Z</time>
      </trkpt>
      <trkpt lat="28.26174870" lon="-16.8135503">
        <ele>772.07592</ele>
        <time>2009-09-22T11:46:36Z</time>
      </trkpt>
      <trkpt lat="28.26173930" lon="-16.8135511">
        <ele>771.59521</ele>
        <time>2009-09-22T11:46:36Z</time>
      </trkpt>
      <trkpt lat="28.26165090" lon="-16.8135532">
        <ele>772.07592</ele>
        <time>2009-09-22T11:46:40Z</time>
      </trkpt>
      <trkpt lat="28.26158020" lon="-16.8135311">
        <ele>772.07592</ele>
        <time>2009-09-22T11:46:43Z</time>
      </trkpt>
      <trkpt lat="28.26153060" lon="-16.8134789">
        <ele>773.51806</ele>
        <time>2009-09-22T11:46:45Z</time>
      </trkpt>
      <trkpt lat="28.26149740" lon="-16.8134406">
        <ele>775.44042</ele>
        <time>2009-09-22T11:46:47Z</time>
      </trkpt>
      <trkpt lat="28.26143850" lon="-16.8133799">
        <ele>775.92114</ele>
        <time>2009-09-22T11:46:51Z</time>
      </trkpt>
      <trkpt lat="28.26137190" lon="-16.8133948">
        <ele>776.88256</ele>
        <time>2009-09-22T11:46:53Z</time>
      </trkpt>
      <trkpt lat="28.26132240" lon="-16.8134328">
        <ele>777.36328</ele>
        <time>2009-09-22T11:46:56Z</time>
      </trkpt>
      <trkpt lat="28.26132940" lon="-16.8134269">
        <ele>778.80517</ele>
        <time>2009-09-22T11:46:56Z</time>
      </trkpt>
      <trkpt lat="28.26132810" lon="-16.8133818">
        <ele>779.76635</ele>
        <time>2009-09-22T11:46:58Z</time>
      </trkpt>
      <trkpt lat="28.26134520" lon="-16.8132961">
        <ele>782.16992</ele>
        <time>2009-09-22T11:47:01Z</time>
      </trkpt>
      <trkpt lat="28.26135430" lon="-16.8132746">
        <ele>782.16992</ele>
        <time>2009-09-22T11:47:01Z</time>
      </trkpt>
      <trkpt lat="28.26139310" lon="-16.8131591">
        <ele>784.57324</ele>
        <time>2009-09-22T11:47:06Z</time>
      </trkpt>
      <trkpt lat="28.26143890" lon="-16.8130390">
        <ele>786.97631</ele>
        <time>2009-09-22T11:47:10Z</time>
      </trkpt>
      <trkpt lat="28.26147910" lon="-16.8129337">
        <ele>789.86035</ele>
        <time>2009-09-22T11:47:15Z</time>
      </trkpt>
      <trkpt lat="28.26149840" lon="-16.8128266">
        <ele>791.78295</ele>
        <time>2009-09-22T11:47:18Z</time>
      </trkpt>
      <trkpt lat="28.26152960" lon="-16.8127399">
        <ele>793.22485</ele>
        <time>2009-09-22T11:47:22Z</time>
      </trkpt>
      <trkpt lat="28.26155280" lon="-16.8127017">
        <ele>794.18627</ele>
        <time>2009-09-22T11:47:23Z</time>
      </trkpt>
      <trkpt lat="28.26158390" lon="-16.8126924">
        <ele>798.03173</ele>
        <time>2009-09-22T11:47:25Z</time>
      </trkpt>
      <trkpt lat="28.26158340" lon="-16.8126889">
        <ele>798.51220</ele>
        <time>2009-09-22T11:47:25Z</time>
      </trkpt>
      <trkpt lat="28.26154460" lon="-16.8127126">
        <ele>798.03173</ele>
        <time>2009-09-22T11:47:26Z</time>
      </trkpt>
      <trkpt lat="28.26144280" lon="-16.8126800">
        <ele>799.47363</ele>
        <time>2009-09-22T11:47:31Z</time>
      </trkpt>
      <trkpt lat="28.26133890" lon="-16.8125954">
        <ele>800.43505</ele>
        <time>2009-09-22T11:47:36Z</time>
      </trkpt>
      <trkpt lat="28.26123460" lon="-16.8125263">
        <ele>800.43505</ele>
        <time>2009-09-22T11:47:41Z</time>
      </trkpt>
      <trkpt lat="28.26112590" lon="-16.8124635">
        <ele>800.43505</ele>
        <time>2009-09-22T11:47:46Z</time>
      </trkpt>
      <trkpt lat="28.26106440" lon="-16.8123820">
        <ele>798.51220</ele>
        <time>2009-09-22T11:47:49Z</time>
      </trkpt>
      <trkpt lat="28.26101010" lon="-16.8122599">
        <ele>797.55102</ele>
        <time>2009-09-22T11:47:54Z</time>
      </trkpt>
      <trkpt lat="28.26094920" lon="-16.8121107">
        <ele>796.58984</ele>
        <time>2009-09-22T11:48:00Z</time>
      </trkpt>
      <trkpt lat="28.26089400" lon="-16.8120252">
        <ele>797.07031</ele>
        <time>2009-09-22T11:48:04Z</time>
      </trkpt>
      <trkpt lat="28.26080210" lon="-16.8118925">
        <ele>798.99291</ele>
        <time>2009-09-22T11:48:10Z</time>
      </trkpt>
      <trkpt lat="28.26074410" lon="-16.8118068">
        <ele>800.91552</ele>
        <time>2009-09-22T11:48:13Z</time>
      </trkpt>
      <trkpt lat="28.26066740" lon="-16.8116842">
        <ele>803.31884</ele>
        <time>2009-09-22T11:48:19Z</time>
      </trkpt>
      <trkpt lat="28.26060500" lon="-16.8115710">
        <ele>805.24145</ele>
        <time>2009-09-22T11:48:23Z</time>
      </trkpt>
      <trkpt lat="28.26057840" lon="-16.8114784">
        <ele>807.16406</ele>
        <time>2009-09-22T11:48:27Z</time>
      </trkpt>
      <trkpt lat="28.26056020" lon="-16.8113845">
        <ele>807.64477</ele>
        <time>2009-09-22T11:48:30Z</time>
      </trkpt>
      <trkpt lat="28.26055430" lon="-16.8113473">
        <ele>808.60595</ele>
        <time>2009-09-22T11:48:32Z</time>
      </trkpt>
      <trkpt lat="28.26047210" lon="-16.8112203">
        <ele>810.04785</ele>
        <time>2009-09-22T11:48:37Z</time>
      </trkpt>
      <trkpt lat="28.26040550" lon="-16.8111041">
        <ele>811.00927</ele>
        <time>2009-09-22T11:48:42Z</time>
      </trkpt>
      <trkpt lat="28.26034700" lon="-16.8109850">
        <ele>811.00927</ele>
        <time>2009-09-22T11:48:47Z</time>
      </trkpt>
      <trkpt lat="28.26029360" lon="-16.8108545">
        <ele>811.00927</ele>
        <time>2009-09-22T11:48:52Z</time>
      </trkpt>
      <trkpt lat="28.26022880" lon="-16.8107635">
        <ele>811.00927</ele>
        <time>2009-09-22T11:48:56Z</time>
      </trkpt>
      <trkpt lat="28.26012480" lon="-16.8106572">
        <ele>810.52856</ele>
        <time>2009-09-22T11:49:02Z</time>
      </trkpt>
      <trkpt lat="28.26009870" lon="-16.8105671">
        <ele>810.04785</ele>
        <time>2009-09-22T11:49:05Z</time>
      </trkpt>
      <trkpt lat="28.26015790" lon="-16.8104951">
        <ele>811.00927</ele>
        <time>2009-09-22T11:49:08Z</time>
      </trkpt>
      <trkpt lat="28.26025940" lon="-16.8104047">
        <ele>812.93212</ele>
        <time>2009-09-22T11:49:14Z</time>
      </trkpt>
      <trkpt lat="28.26033500" lon="-16.8103460">
        <ele>812.45141</ele>
        <time>2009-09-22T11:49:17Z</time>
      </trkpt>
      <trkpt lat="28.26043500" lon="-16.8102748">
        <ele>811.97070</ele>
        <time>2009-09-22T11:49:22Z</time>
      </trkpt>
      <trkpt lat="28.26051480" lon="-16.8102167">
        <ele>811.97070</ele>
        <time>2009-09-22T11:49:26Z</time>
      </trkpt>
      <trkpt lat="28.26062800" lon="-16.8101442">
        <ele>814.37402</ele>
        <time>2009-09-22T11:49:31Z</time>
      </trkpt>
      <trkpt lat="28.26073080" lon="-16.8100953">
        <ele>816.29663</ele>
        <time>2009-09-22T11:49:36Z</time>
      </trkpt>
      <trkpt lat="28.26075310" lon="-16.8100864">
        <ele>817.25805</ele>
        <time>2009-09-22T11:49:36Z</time>
      </trkpt>
      <trkpt lat="28.26086230" lon="-16.8100294">
        <ele>819.66137</ele>
        <time>2009-09-22T11:49:41Z</time>
      </trkpt>
      <trkpt lat="28.26095300" lon="-16.8099797">
        <ele>821.10327</ele>
        <time>2009-09-22T11:49:45Z</time>
      </trkpt>
      <trkpt lat="28.26105450" lon="-16.8099237">
        <ele>825.42895</ele>
        <time>2009-09-22T11:49:50Z</time>
      </trkpt>
      <trkpt lat="28.26114830" lon="-16.8098672">
        <ele>832.63916</ele>
        <time>2009-09-22T11:49:54Z</time>
      </trkpt>
      <trkpt lat="28.26124240" lon="-16.8098019">
        <ele>835.52294</ele>
        <time>2009-09-22T11:49:58Z</time>
      </trkpt>
      <trkpt lat="28.26133640" lon="-16.8097186">
        <ele>836.48437</ele>
        <time>2009-09-22T11:50:03Z</time>
      </trkpt>
      <trkpt lat="28.26143070" lon="-16.8096461">
        <ele>837.44555</ele>
        <time>2009-09-22T11:50:08Z</time>
      </trkpt>
      <trkpt lat="28.26150940" lon="-16.8095857">
        <ele>837.44555</ele>
        <time>2009-09-22T11:50:12Z</time>
      </trkpt>
      <trkpt lat="28.26164300" lon="-16.8094870">
        <ele>839.84887</ele>
        <time>2009-09-22T11:50:18Z</time>
      </trkpt>
      <trkpt lat="28.26173250" lon="-16.8094084">
        <ele>841.77148</ele>
        <time>2009-09-22T11:50:23Z</time>
      </trkpt>
      <trkpt lat="28.26174740" lon="-16.8093662">
        <ele>836.00366</ele>
        <time>2009-09-22T11:50:24Z</time>
      </trkpt>
      <trkpt lat="28.26179060" lon="-16.8093284">
        <ele>836.48437</ele>
        <time>2009-09-22T11:50:26Z</time>
      </trkpt>
      <trkpt lat="28.26190610" lon="-16.8092196">
        <ele>839.36816</ele>
        <time>2009-09-22T11:50:32Z</time>
      </trkpt>
      <trkpt lat="28.26202360" lon="-16.8091338">
        <ele>842.73291</ele>
        <time>2009-09-22T11:50:38Z</time>
      </trkpt>
      <trkpt lat="28.26213150" lon="-16.8090421">
        <ele>844.17504</ele>
        <time>2009-09-22T11:50:43Z</time>
      </trkpt>
      <trkpt lat="28.26222470" lon="-16.8089821">
        <ele>846.09765</ele>
        <time>2009-09-22T11:50:48Z</time>
      </trkpt>
      <trkpt lat="28.26232160" lon="-16.8089364">
        <ele>850.90405</ele>
        <time>2009-09-22T11:50:52Z</time>
      </trkpt>
      <trkpt lat="28.26243450" lon="-16.8088856">
        <ele>851.86547</ele>
        <time>2009-09-22T11:50:57Z</time>
      </trkpt>
      <trkpt lat="28.26254780" lon="-16.8088377">
        <ele>853.78808</ele>
        <time>2009-09-22T11:51:02Z</time>
      </trkpt>
      <trkpt lat="28.26266540" lon="-16.8088108">
        <ele>856.19116</ele>
        <time>2009-09-22T11:51:06Z</time>
      </trkpt>
      <trkpt lat="28.26282240" lon="-16.8087876">
        <ele>858.59448</ele>
        <time>2009-09-22T11:51:13Z</time>
      </trkpt>
      <trkpt lat="28.26290270" lon="-16.8087635">
        <ele>858.11401</ele>
        <time>2009-09-22T11:51:16Z</time>
      </trkpt>
      <trkpt lat="28.26301050" lon="-16.8087219">
        <ele>859.55590</ele>
        <time>2009-09-22T11:51:21Z</time>
      </trkpt>
      <trkpt lat="28.26313390" lon="-16.8086758">
        <ele>860.99804</ele>
        <time>2009-09-22T11:51:26Z</time>
      </trkpt>
      <trkpt lat="28.26328770" lon="-16.8086658">
        <ele>862.43994</ele>
        <time>2009-09-22T11:51:32Z</time>
      </trkpt>
      <trkpt lat="28.26340020" lon="-16.8086126">
        <ele>863.88183</ele>
        <time>2009-09-22T11:51:37Z</time>
      </trkpt>
      <trkpt lat="28.26351450" lon="-16.8085219">
        <ele>866.28515</ele>
        <time>2009-09-22T11:51:42Z</time>
      </trkpt>
      <trkpt lat="28.26359720" lon="-16.8084180">
        <ele>870.13037</ele>
        <time>2009-09-22T11:51:47Z</time>
      </trkpt>
      <trkpt lat="28.26367890" lon="-16.8082726">
        <ele>872.05297</ele>
        <time>2009-09-22T11:51:53Z</time>
      </trkpt>
      <trkpt lat="28.26377720" lon="-16.8081329">
        <ele>873.49511</ele>
        <time>2009-09-22T11:52:00Z</time>
      </trkpt>
      <trkpt lat="28.26388180" lon="-16.8080173">
        <ele>875.41748</ele>
        <time>2009-09-22T11:52:06Z</time>
      </trkpt>
      <trkpt lat="28.26399780" lon="-16.8078862">
        <ele>878.30175</ele>
        <time>2009-09-22T11:52:12Z</time>
      </trkpt>
      <trkpt lat="28.26406380" lon="-16.8077377">
        <ele>879.26293</ele>
        <time>2009-09-22T11:52:18Z</time>
      </trkpt>
      <trkpt lat="28.26415110" lon="-16.8076243">
        <ele>880.22436</ele>
        <time>2009-09-22T11:52:23Z</time>
      </trkpt>
      <trkpt lat="28.26424820" lon="-16.8075895">
        <ele>880.70507</ele>
        <time>2009-09-22T11:52:27Z</time>
      </trkpt>
      <trkpt lat="28.26437010" lon="-16.8075941">
        <ele>881.66625</ele>
        <time>2009-09-22T11:52:32Z</time>
      </trkpt>
      <trkpt lat="28.26447550" lon="-16.8075436">
        <ele>883.10815</ele>
        <time>2009-09-22T11:52:37Z</time>
      </trkpt>
      <trkpt lat="28.26456550" lon="-16.8074844">
        <ele>885.03100</ele>
        <time>2009-09-22T11:52:41Z</time>
      </trkpt>
      <trkpt lat="28.26461180" lon="-16.8074267">
        <ele>886.47290</ele>
        <time>2009-09-22T11:52:44Z</time>
      </trkpt>
      <trkpt lat="28.26462810" lon="-16.8073787">
        <ele>888.39550</ele>
        <time>2009-09-22T11:52:46Z</time>
      </trkpt>
      <trkpt lat="28.26465630" lon="-16.8073659">
        <ele>888.87622</ele>
        <time>2009-09-22T11:52:47Z</time>
      </trkpt>
      <trkpt lat="28.26473900" lon="-16.8073855">
        <ele>888.87622</ele>
        <time>2009-09-22T11:52:50Z</time>
      </trkpt>
      <trkpt lat="28.26484540" lon="-16.8074317">
        <ele>888.39550</ele>
        <time>2009-09-22T11:52:55Z</time>
      </trkpt>
      <trkpt lat="28.26494820" lon="-16.8074881">
        <ele>888.87622</ele>
        <time>2009-09-22T11:52:59Z</time>
      </trkpt>
      <trkpt lat="28.26503870" lon="-16.8075352">
        <ele>889.35668</ele>
        <time>2009-09-22T11:53:03Z</time>
      </trkpt>
      <trkpt lat="28.26515150" lon="-16.8076019">
        <ele>889.83740</ele>
        <time>2009-09-22T11:53:08Z</time>
      </trkpt>
      <trkpt lat="28.26528840" lon="-16.8076815">
        <ele>890.79858</ele>
        <time>2009-09-22T11:53:14Z</time>
      </trkpt>
      <trkpt lat="28.26538800" lon="-16.8077532">
        <ele>892.72167</ele>
        <time>2009-09-22T11:53:19Z</time>
      </trkpt>
      <trkpt lat="28.26549780" lon="-16.8078325">
        <ele>894.16357</ele>
        <time>2009-09-22T11:53:24Z</time>
      </trkpt>
      <trkpt lat="28.26556010" lon="-16.8078972">
        <ele>895.12475</ele>
        <time>2009-09-22T11:53:28Z</time>
      </trkpt>
      <trkpt lat="28.26564410" lon="-16.8079532">
        <ele>895.12475</ele>
        <time>2009-09-22T11:53:32Z</time>
      </trkpt>
      <trkpt lat="28.26571620" lon="-16.8080097">
        <ele>895.60546</ele>
        <time>2009-09-22T11:53:35Z</time>
      </trkpt>
      <trkpt lat="28.26580120" lon="-16.8080905">
        <ele>897.04736</ele>
        <time>2009-09-22T11:53:40Z</time>
      </trkpt>
      <trkpt lat="28.26588370" lon="-16.8081727">
        <ele>898.00878</ele>
        <time>2009-09-22T11:53:44Z</time>
      </trkpt>
      <trkpt lat="28.26596740" lon="-16.8082386">
        <ele>898.00878</ele>
        <time>2009-09-22T11:53:48Z</time>
      </trkpt>
      <trkpt lat="28.26606380" lon="-16.8083205">
        <ele>898.00878</ele>
        <time>2009-09-22T11:53:53Z</time>
      </trkpt>
      <trkpt lat="28.26606990" lon="-16.8083329">
        <ele>898.48925</ele>
        <time>2009-09-22T11:53:53Z</time>
      </trkpt>
      <trkpt lat="28.26610940" lon="-16.8083332">
        <ele>898.48925</ele>
        <time>2009-09-22T11:53:55Z</time>
      </trkpt>
      <trkpt lat="28.26620670" lon="-16.8084198">
        <ele>898.48925</ele>
        <time>2009-09-22T11:54:00Z</time>
      </trkpt>
      <trkpt lat="28.26631230" lon="-16.8084988">
        <ele>897.52807</ele>
        <time>2009-09-22T11:54:05Z</time>
      </trkpt>
      <trkpt lat="28.26641810" lon="-16.8085976">
        <ele>899.45068</ele>
        <time>2009-09-22T11:54:10Z</time>
      </trkpt>
      <trkpt lat="28.26645270" lon="-16.8086260">
        <ele>899.93139</ele>
        <time>2009-09-22T11:54:12Z</time>
      </trkpt>
      <trkpt lat="28.26649010" lon="-16.8086670">
        <ele>900.41210</ele>
        <time>2009-09-22T11:54:14Z</time>
      </trkpt>
      <trkpt lat="28.26659620" lon="-16.8087380">
        <ele>900.89257</ele>
        <time>2009-09-22T11:54:19Z</time>
      </trkpt>
      <trkpt lat="28.26668930" lon="-16.8087834">
        <ele>900.89257</ele>
        <time>2009-09-22T11:54:23Z</time>
      </trkpt>
      <trkpt lat="28.26674780" lon="-16.8088047">
        <ele>900.89257</ele>
        <time>2009-09-22T11:54:26Z</time>
      </trkpt>
      <trkpt lat="28.26681880" lon="-16.8088437">
        <ele>899.93139</ele>
        <time>2009-09-22T11:54:29Z</time>
      </trkpt>
      <trkpt lat="28.26690610" lon="-16.8088732">
        <ele>900.89257</ele>
        <time>2009-09-22T11:54:33Z</time>
      </trkpt>
      <trkpt lat="28.26702550" lon="-16.8088965">
        <ele>903.29589</ele>
        <time>2009-09-22T11:54:37Z</time>
      </trkpt>
      <trkpt lat="28.26714620" lon="-16.8089171">
        <ele>906.17968</ele>
        <time>2009-09-22T11:54:42Z</time>
      </trkpt>
      <trkpt lat="28.26727310" lon="-16.8089270">
        <ele>908.10278</ele>
        <time>2009-09-22T11:54:47Z</time>
      </trkpt>
      <trkpt lat="28.26740470" lon="-16.8089250">
        <ele>909.54467</ele>
        <time>2009-09-22T11:54:53Z</time>
      </trkpt>
      <trkpt lat="28.26753530" lon="-16.8089064">
        <ele>911.46728</ele>
        <time>2009-09-22T11:54:58Z</time>
      </trkpt>
      <trkpt lat="28.26766740" lon="-16.8088683">
        <ele>912.90917</ele>
        <time>2009-09-22T11:55:03Z</time>
      </trkpt>
      <trkpt lat="28.26779360" lon="-16.8088239">
        <ele>914.35107</ele>
        <time>2009-09-22T11:55:09Z</time>
      </trkpt>
      <trkpt lat="28.26790380" lon="-16.8087829">
        <ele>916.27368</ele>
        <time>2009-09-22T11:55:13Z</time>
      </trkpt>
      <trkpt lat="28.26800140" lon="-16.8087446">
        <ele>918.67700</ele>
        <time>2009-09-22T11:55:17Z</time>
      </trkpt>
      <trkpt lat="28.26800250" lon="-16.8087450">
        <ele>917.23510</ele>
        <time>2009-09-22T11:55:17Z</time>
      </trkpt>
      <trkpt lat="28.26800880" lon="-16.8087495">
        <ele>915.79321</ele>
        <time>2009-09-22T11:55:18Z</time>
      </trkpt>
      <trkpt lat="28.26802640" lon="-16.8087627">
        <ele>917.71557</ele>
        <time>2009-09-22T11:55:19Z</time>
      </trkpt>
      <trkpt lat="28.26806220" lon="-16.8087426">
        <ele>917.71557</ele>
        <time>2009-09-22T11:55:20Z</time>
      </trkpt>
      <trkpt lat="28.26809670" lon="-16.8087338">
        <ele>918.19628</ele>
        <time>2009-09-22T11:55:22Z</time>
      </trkpt>
      <trkpt lat="28.26810990" lon="-16.8087246">
        <ele>916.75439</ele>
        <time>2009-09-22T11:55:22Z</time>
      </trkpt>
      <trkpt lat="28.26814610" lon="-16.8086965">
        <ele>917.71557</ele>
        <time>2009-09-22T11:55:24Z</time>
      </trkpt>
      <trkpt lat="28.26823040" lon="-16.8086644">
        <ele>918.67700</ele>
        <time>2009-09-22T11:55:28Z</time>
      </trkpt>
      <trkpt lat="28.26825280" lon="-16.8086453">
        <ele>918.67700</ele>
        <time>2009-09-22T11:55:29Z</time>
      </trkpt>
      <trkpt lat="28.26835890" lon="-16.8086001">
        <ele>921.08032</ele>
        <time>2009-09-22T11:55:33Z</time>
      </trkpt>
      <trkpt lat="28.26847920" lon="-16.8085479">
        <ele>923.48364</ele>
        <time>2009-09-22T11:55:38Z</time>
      </trkpt>
      <trkpt lat="28.26859970" lon="-16.8084946">
        <ele>925.40625</ele>
        <time>2009-09-22T11:55:44Z</time>
      </trkpt>
      <trkpt lat="28.26868490" lon="-16.8084519">
        <ele>926.36767</ele>
        <time>2009-09-22T11:55:47Z</time>
      </trkpt>
      <trkpt lat="28.26878270" lon="-16.8084080">
        <ele>926.84838</ele>
        <time>2009-09-22T11:55:51Z</time>
      </trkpt>
      <trkpt lat="28.26885010" lon="-16.8083799">
        <ele>928.29028</ele>
        <time>2009-09-22T11:55:54Z</time>
      </trkpt>
      <trkpt lat="28.26885890" lon="-16.8083814">
        <ele>929.25146</ele>
        <time>2009-09-22T11:55:55Z</time>
      </trkpt>
      <trkpt lat="28.26887170" lon="-16.8084070">
        <ele>930.69360</ele>
        <time>2009-09-22T11:55:56Z</time>
      </trkpt>
      <trkpt lat="28.26889370" lon="-16.8084430">
        <ele>931.65478</ele>
        <time>2009-09-22T11:55:57Z</time>
      </trkpt>
      <trkpt lat="28.26892620" lon="-16.8084748">
        <ele>932.61621</ele>
        <time>2009-09-22T11:55:59Z</time>
      </trkpt>
      <trkpt lat="28.26897490" lon="-16.8085506">
        <ele>934.53881</ele>
        <time>2009-09-22T11:56:02Z</time>
      </trkpt>
      <trkpt lat="28.26903510" lon="-16.8086049">
        <ele>937.42260</ele>
        <time>2009-09-22T11:56:05Z</time>
      </trkpt>
      <trkpt lat="28.26906480" lon="-16.8086425">
        <ele>939.34521</ele>
        <time>2009-09-22T11:56:07Z</time>
      </trkpt>
      <trkpt lat="28.26907730" lon="-16.8086855">
        <ele>940.78735</ele>
        <time>2009-09-22T11:56:09Z</time>
      </trkpt>
      <trkpt lat="28.26910130" lon="-16.8087358">
        <ele>940.78735</ele>
        <time>2009-09-22T11:56:11Z</time>
      </trkpt>
      <trkpt lat="28.26911530" lon="-16.8088193">
        <ele>942.22949</ele>
        <time>2009-09-22T11:56:14Z</time>
      </trkpt>
      <trkpt lat="28.26914080" lon="-16.8089187">
        <ele>943.67138</ele>
        <time>2009-09-22T11:56:17Z</time>
      </trkpt>
      <trkpt lat="28.26915620" lon="-16.8089680">
        <ele>943.67138</ele>
        <time>2009-09-22T11:56:19Z</time>
      </trkpt>
      <trkpt lat="28.26916800" lon="-16.8089957">
        <ele>943.67138</ele>
        <time>2009-09-22T11:56:20Z</time>
      </trkpt>
      <trkpt lat="28.26916870" lon="-16.8090071">
        <ele>943.67138</ele>
        <time>2009-09-22T11:56:21Z</time>
      </trkpt>
      <trkpt lat="28.26916550" lon="-16.8090129">
        <ele>942.22949</ele>
        <time>2009-09-22T11:56:21Z</time>
      </trkpt>
      <trkpt lat="28.26916410" lon="-16.8090147">
        <ele>942.71020</ele>
        <time>2009-09-22T11:56:21Z</time>
      </trkpt>
      <trkpt lat="28.26915880" lon="-16.8090129">
        <ele>941.74877</ele>
        <time>2009-09-22T11:56:21Z</time>
      </trkpt>
      <trkpt lat="28.26916950" lon="-16.8090068">
        <ele>941.26806</ele>
        <time>2009-09-22T11:56:22Z</time>
      </trkpt>
      <trkpt lat="28.26916960" lon="-16.8090208">
        <ele>940.78735</ele>
        <time>2009-09-22T11:56:22Z</time>
      </trkpt>
      <trkpt lat="28.26916770" lon="-16.8090156">
        <ele>942.22949</ele>
        <time>2009-09-22T11:56:22Z</time>
      </trkpt>
      <trkpt lat="28.26916270" lon="-16.8090130">
        <ele>943.67138</ele>
        <time>2009-09-22T11:56:23Z</time>
      </trkpt>
      <trkpt lat="28.26915480" lon="-16.8090249">
        <ele>942.71020</ele>
        <time>2009-09-22T11:56:23Z</time>
      </trkpt>
      <trkpt lat="28.26915980" lon="-16.8090576">
        <ele>942.71020</ele>
        <time>2009-09-22T11:56:24Z</time>
      </trkpt>
      <trkpt lat="28.26916040" lon="-16.8090566">
        <ele>942.71020</ele>
        <time>2009-09-22T11:56:24Z</time>
      </trkpt>
      <trkpt lat="28.26917360" lon="-16.8090844">
        <ele>943.19067</ele>
        <time>2009-09-22T11:56:26Z</time>
      </trkpt>
      <trkpt lat="28.26922500" lon="-16.8092033">
        <ele>943.67138</ele>
        <time>2009-09-22T11:56:30Z</time>
      </trkpt>
      <trkpt lat="28.26929960" lon="-16.8092775">
        <ele>944.15209</ele>
        <time>2009-09-22T11:56:34Z</time>
      </trkpt>
      <trkpt lat="28.26934780" lon="-16.8093425">
        <ele>946.07470</ele>
        <time>2009-09-22T11:56:37Z</time>
      </trkpt>
      <trkpt lat="28.26936610" lon="-16.8093963">
        <ele>947.51660</ele>
        <time>2009-09-22T11:56:39Z</time>
      </trkpt>
      <trkpt lat="28.26939640" lon="-16.8094583">
        <ele>948.47778</ele>
        <time>2009-09-22T11:56:42Z</time>
      </trkpt>
      <trkpt lat="28.26943140" lon="-16.8095258">
        <ele>950.88110</ele>
        <time>2009-09-22T11:56:44Z</time>
      </trkpt>
      <trkpt lat="28.26944140" lon="-16.8095503">
        <ele>952.32299</ele>
        <time>2009-09-22T11:56:45Z</time>
      </trkpt>
      <trkpt lat="28.26946270" lon="-16.8096114">
        <ele>954.24584</ele>
        <time>2009-09-22T11:56:48Z</time>
      </trkpt>
      <trkpt lat="28.26949400" lon="-16.8096497">
        <ele>955.68774</ele>
        <time>2009-09-22T11:56:50Z</time>
      </trkpt>
      <trkpt lat="28.26953850" lon="-16.8096974">
        <ele>957.12988</ele>
        <time>2009-09-22T11:56:52Z</time>
      </trkpt>
      <trkpt lat="28.26954460" lon="-16.8097171">
        <ele>958.57177</ele>
        <time>2009-09-22T11:56:53Z</time>
      </trkpt>
      <trkpt lat="28.26955950" lon="-16.8097261">
        <ele>960.01367</ele>
        <time>2009-09-22T11:56:53Z</time>
      </trkpt>
      <trkpt lat="28.26955870" lon="-16.8097248">
        <ele>960.97509</ele>
        <time>2009-09-22T11:56:54Z</time>
      </trkpt>
      <trkpt lat="28.26958440" lon="-16.8097449">
        <ele>960.49438</ele>
        <time>2009-09-22T11:56:55Z</time>
      </trkpt>
      <trkpt lat="28.26964980" lon="-16.8097994">
        <ele>959.53320</ele>
        <time>2009-09-22T11:56:58Z</time>
      </trkpt>
      <trkpt lat="28.26964320" lon="-16.8097901">
        <ele>958.57177</ele>
        <time>2009-09-22T11:56:58Z</time>
      </trkpt>
      <trkpt lat="28.26966690" lon="-16.8098066">
        <ele>959.05249</ele>
        <time>2009-09-22T11:57:00Z</time>
      </trkpt>
      <trkpt lat="28.26973420" lon="-16.8098455">
        <ele>958.57177</ele>
        <time>2009-09-22T11:57:03Z</time>
      </trkpt>
      <trkpt lat="28.26978660" lon="-16.8098729">
        <ele>960.01367</ele>
        <time>2009-09-22T11:57:05Z</time>
      </trkpt>
      <trkpt lat="28.26988550" lon="-16.8099502">
        <ele>961.45581</ele>
        <time>2009-09-22T11:57:10Z</time>
      </trkpt>
      <trkpt lat="28.26994410" lon="-16.8100314">
        <ele>961.93652</ele>
        <time>2009-09-22T11:57:13Z</time>
      </trkpt>
      <trkpt lat="28.26997680" lon="-16.8101189">
        <ele>962.41699</ele>
        <time>2009-09-22T11:57:17Z</time>
      </trkpt>
      <trkpt lat="28.26999230" lon="-16.8101515">
        <ele>962.89770</ele>
        <time>2009-09-22T11:57:18Z</time>
      </trkpt>
      <trkpt lat="28.27002860" lon="-16.8102380">
        <ele>962.41699</ele>
        <time>2009-09-22T11:57:21Z</time>
      </trkpt>
      <trkpt lat="28.27005860" lon="-16.8103165">
        <ele>961.45581</ele>
        <time>2009-09-22T11:57:24Z</time>
      </trkpt>
      <trkpt lat="28.27007810" lon="-16.8103783">
        <ele>961.45581</ele>
        <time>2009-09-22T11:57:27Z</time>
      </trkpt>
      <trkpt lat="28.27007250" lon="-16.8103878">
        <ele>961.93652</ele>
        <time>2009-09-22T11:57:27Z</time>
      </trkpt>
      <trkpt lat="28.27008390" lon="-16.8104055">
        <ele>961.93652</ele>
        <time>2009-09-22T11:57:28Z</time>
      </trkpt>
      <trkpt lat="28.27011920" lon="-16.8104653">
        <ele>960.49438</ele>
        <time>2009-09-22T11:57:30Z</time>
      </trkpt>
      <trkpt lat="28.27014980" lon="-16.8105246">
        <ele>957.61059</ele>
        <time>2009-09-22T11:57:33Z</time>
      </trkpt>
      <trkpt lat="28.27017200" lon="-16.8105715">
        <ele>957.61059</ele>
        <time>2009-09-22T11:57:35Z</time>
      </trkpt>
      <trkpt lat="28.27018980" lon="-16.8106444">
        <ele>957.61059</ele>
        <time>2009-09-22T11:57:37Z</time>
      </trkpt>
      <trkpt lat="28.27023060" lon="-16.8107007">
        <ele>957.61059</ele>
        <time>2009-09-22T11:57:40Z</time>
      </trkpt>
      <trkpt lat="28.27028190" lon="-16.8107601">
        <ele>956.16845</ele>
        <time>2009-09-22T11:57:43Z</time>
      </trkpt>
      <trkpt lat="28.27028550" lon="-16.8107754">
        <ele>956.16845</ele>
        <time>2009-09-22T11:57:43Z</time>
      </trkpt>
      <trkpt lat="28.27036510" lon="-16.8108322">
        <ele>956.64916</ele>
        <time>2009-09-22T11:57:47Z</time>
      </trkpt>
      <trkpt lat="28.27036990" lon="-16.8108406">
        <ele>958.09130</ele>
        <time>2009-09-22T11:57:48Z</time>
      </trkpt>
      <trkpt lat="28.27035540" lon="-16.8108623">
        <ele>959.05249</ele>
        <time>2009-09-22T11:57:49Z</time>
      </trkpt>
      <trkpt lat="28.27035380" lon="-16.8108643">
        <ele>960.49438</ele>
        <time>2009-09-22T11:57:49Z</time>
      </trkpt>
      <trkpt lat="28.27042290" lon="-16.8107982">
        <ele>961.45581</ele>
        <time>2009-09-22T11:57:52Z</time>
      </trkpt>
      <trkpt lat="28.27050850" lon="-16.8107335">
        <ele>964.33959</ele>
        <time>2009-09-22T11:57:56Z</time>
      </trkpt>
      <trkpt lat="28.27058030" lon="-16.8106615">
        <ele>966.26220</ele>
        <time>2009-09-22T11:58:00Z</time>
      </trkpt>
      <trkpt lat="28.27061960" lon="-16.8106323">
        <ele>967.70410</ele>
        <time>2009-09-22T11:58:02Z</time>
      </trkpt>
      <trkpt lat="28.27062560" lon="-16.8106354">
        <ele>969.62695</ele>
        <time>2009-09-22T11:58:02Z</time>
      </trkpt>
      <trkpt lat="28.27063620" lon="-16.8106147">
        <ele>970.10742</ele>
        <time>2009-09-22T11:58:03Z</time>
      </trkpt>
      <trkpt lat="28.27069240" lon="-16.8105211">
        <ele>971.06884</ele>
        <time>2009-09-22T11:58:07Z</time>
      </trkpt>
      <trkpt lat="28.27076620" lon="-16.8104163">
        <ele>972.03027</ele>
        <time>2009-09-22T11:58:12Z</time>
      </trkpt>
      <trkpt lat="28.27084800" lon="-16.8103112">
        <ele>972.99169</ele>
        <time>2009-09-22T11:58:17Z</time>
      </trkpt>
      <trkpt lat="28.27092240" lon="-16.8102350">
        <ele>972.03027</ele>
        <time>2009-09-22T11:58:21Z</time>
      </trkpt>
      <trkpt lat="28.27100030" lon="-16.8102048">
        <ele>971.54931</ele>
        <time>2009-09-22T11:58:24Z</time>
      </trkpt>
      <trkpt lat="28.27101020" lon="-16.8102029">
        <ele>972.03027</ele>
        <time>2009-09-22T11:58:25Z</time>
      </trkpt>
      <trkpt lat="28.27105610" lon="-16.8101817">
        <ele>972.99169</ele>
        <time>2009-09-22T11:58:27Z</time>
      </trkpt>
      <trkpt lat="28.27110550" lon="-16.8101584">
        <ele>972.99169</ele>
        <time>2009-09-22T11:58:29Z</time>
      </trkpt>
      <trkpt lat="28.27114190" lon="-16.8101520">
        <ele>972.99169</ele>
        <time>2009-09-22T11:58:30Z</time>
      </trkpt>
      <trkpt lat="28.27123720" lon="-16.8101027">
        <ele>972.03027</ele>
        <time>2009-09-22T11:58:34Z</time>
      </trkpt>
      <trkpt lat="28.27127970" lon="-16.8100499">
        <ele>972.99169</ele>
        <time>2009-09-22T11:58:37Z</time>
      </trkpt>
      <trkpt lat="28.27135360" lon="-16.8099375">
        <ele>972.51098</ele>
        <time>2009-09-22T11:58:42Z</time>
      </trkpt>
      <trkpt lat="28.27136530" lon="-16.8099174">
        <ele>972.51098</ele>
        <time>2009-09-22T11:58:43Z</time>
      </trkpt>
      <trkpt lat="28.27142630" lon="-16.8098715">
        <ele>972.03027</ele>
        <time>2009-09-22T11:58:46Z</time>
      </trkpt>
      <trkpt lat="28.27152350" lon="-16.8098389">
        <ele>970.58813</ele>
        <time>2009-09-22T11:58:50Z</time>
      </trkpt>
      <trkpt lat="28.27164190" lon="-16.8098346">
        <ele>971.54931</ele>
        <time>2009-09-22T11:58:54Z</time>
      </trkpt>
      <trkpt lat="28.27173180" lon="-16.8098412">
        <ele>971.06884</ele>
        <time>2009-09-22T11:58:58Z</time>
      </trkpt>
      <trkpt lat="28.27186020" lon="-16.8098116">
        <ele>972.03027</ele>
        <time>2009-09-22T11:59:03Z</time>
      </trkpt>
      <trkpt lat="28.27190750" lon="-16.8097936">
        <ele>971.54931</ele>
        <time>2009-09-22T11:59:05Z</time>
      </trkpt>
      <trkpt lat="28.27197260" lon="-16.8097838">
        <ele>974.43359</ele>
        <time>2009-09-22T11:59:08Z</time>
      </trkpt>
      <trkpt lat="28.27203260" lon="-16.8097476">
        <ele>976.83691</ele>
        <time>2009-09-22T11:59:11Z</time>
      </trkpt>
      <trkpt lat="28.27209330" lon="-16.8097358">
        <ele>979.23999</ele>
        <time>2009-09-22T11:59:13Z</time>
      </trkpt>
      <trkpt lat="28.27218240" lon="-16.8097857">
        <ele>986.93041</ele>
        <time>2009-09-22T11:59:17Z</time>
      </trkpt>
      <trkpt lat="28.27222070" lon="-16.8097931">
        <ele>985.48852</ele>
        <time>2009-09-22T11:59:19Z</time>
      </trkpt>
      <trkpt lat="28.27225290" lon="-16.8097776">
        <ele>981.64331</ele>
        <time>2009-09-22T11:59:20Z</time>
      </trkpt>
      <trkpt lat="28.27230340" lon="-16.8098221">
        <ele>986.93041</ele>
        <time>2009-09-22T11:59:23Z</time>
      </trkpt>
      <trkpt lat="28.27232220" lon="-16.8098289">
        <ele>987.89184</ele>
        <time>2009-09-22T11:59:23Z</time>
      </trkpt>
      <trkpt lat="28.27237560" lon="-16.8098439">
        <ele>985.96923</ele>
        <time>2009-09-22T11:59:26Z</time>
      </trkpt>
      <trkpt lat="28.27241700" lon="-16.8098325">
        <ele>984.52734</ele>
        <time>2009-09-22T11:59:27Z</time>
      </trkpt>
      <trkpt lat="28.27247710" lon="-16.8098226">
        <ele>984.52734</ele>
        <time>2009-09-22T11:59:30Z</time>
      </trkpt>
      <trkpt lat="28.27249580" lon="-16.8098191">
        <ele>985.00805</ele>
        <time>2009-09-22T11:59:30Z</time>
      </trkpt>
      <trkpt lat="28.27255950" lon="-16.8098019">
        <ele>985.48852</ele>
        <time>2009-09-22T11:59:33Z</time>
      </trkpt>
      <trkpt lat="28.27262020" lon="-16.8097873">
        <ele>985.48852</ele>
        <time>2009-09-22T11:59:36Z</time>
      </trkpt>
      <trkpt lat="28.27268600" lon="-16.8097854">
        <ele>987.41113</ele>
        <time>2009-09-22T11:59:38Z</time>
      </trkpt>
      <trkpt lat="28.27274910" lon="-16.8097665">
        <ele>987.89184</ele>
        <time>2009-09-22T11:59:41Z</time>
      </trkpt>
      <trkpt lat="28.27282670" lon="-16.8097842">
        <ele>993.65991</ele>
        <time>2009-09-22T11:59:44Z</time>
      </trkpt>
      <trkpt lat="28.27289420" lon="-16.8097636">
        <ele>994.14062</ele>
        <time>2009-09-22T11:59:47Z</time>
      </trkpt>
      <trkpt lat="28.27295200" lon="-16.8097744">
        <ele>998.46630</ele>
        <time>2009-09-22T11:59:49Z</time>
      </trkpt>
      <trkpt lat="28.27298100" lon="-16.8097790">
        <ele>1000.3891</ele>
        <time>2009-09-22T11:59:50Z</time>
      </trkpt>
      <trkpt lat="28.27302010" lon="-16.8097361">
        <ele>998.94702</ele>
        <time>2009-09-22T11:59:52Z</time>
      </trkpt>
      <trkpt lat="28.27304610" lon="-16.8097161">
        <ele>999.90844</ele>
        <time>2009-09-22T11:59:54Z</time>
      </trkpt>
      <trkpt lat="28.27309200" lon="-16.8096781">
        <ele>1000.8696</ele>
        <time>2009-09-22T11:59:56Z</time>
      </trkpt>
      <trkpt lat="28.27312970" lon="-16.8096419">
        <ele>1001.3503</ele>
        <time>2009-09-22T11:59:58Z</time>
      </trkpt>
      <trkpt lat="28.27314660" lon="-16.8095886">
        <ele>999.90844</ele>
        <time>2009-09-22T12:00:00Z</time>
      </trkpt>
      <trkpt lat="28.27314780" lon="-16.8095756">
        <ele>999.90844</ele>
        <time>2009-09-22T12:00:00Z</time>
      </trkpt>
      <trkpt lat="28.27316040" lon="-16.8095511">
        <ele>999.90844</ele>
        <time>2009-09-22T12:00:01Z</time>
      </trkpt>
      <trkpt lat="28.27313900" lon="-16.8095823">
        <ele>1003.2729</ele>
        <time>2009-09-22T12:00:03Z</time>
      </trkpt>
      <trkpt lat="28.27315680" lon="-16.8095529">
        <ele>1001.3503</ele>
        <time>2009-09-22T12:00:04Z</time>
      </trkpt>
      <trkpt lat="28.27318680" lon="-16.8095045">
        <ele>1002.3115</ele>
        <time>2009-09-22T12:00:06Z</time>
      </trkpt>
      <trkpt lat="28.27321990" lon="-16.8094662">
        <ele>997.50512</ele>
        <time>2009-09-22T12:00:08Z</time>
      </trkpt>
      <trkpt lat="28.27323410" lon="-16.8094340">
        <ele>998.94702</ele>
        <time>2009-09-22T12:00:09Z</time>
      </trkpt>
      <trkpt lat="28.27325370" lon="-16.8093891">
        <ele>999.42773</ele>
        <time>2009-09-22T12:00:11Z</time>
      </trkpt>
      <trkpt lat="28.27327790" lon="-16.8093271">
        <ele>1003.2729</ele>
        <time>2009-09-22T12:00:14Z</time>
      </trkpt>
      <trkpt lat="28.27329450" lon="-16.8092865">
        <ele>1007.1184</ele>
        <time>2009-09-22T12:00:15Z</time>
      </trkpt>
      <trkpt lat="28.27331380" lon="-16.8092638">
        <ele>1010.0021</ele>
        <time>2009-09-22T12:00:16Z</time>
      </trkpt>
      <trkpt lat="28.27337240" lon="-16.8092319">
        <ele>1011.4443</ele>
        <time>2009-09-22T12:00:19Z</time>
      </trkpt>
      <trkpt lat="28.27340690" lon="-16.8092135">
        <ele>1011.9250</ele>
        <time>2009-09-22T12:00:20Z</time>
      </trkpt>
      <trkpt lat="28.27341840" lon="-16.8092040">
        <ele>1012.4055</ele>
        <time>2009-09-22T12:00:21Z</time>
      </trkpt>
      <trkpt lat="28.27348260" lon="-16.8091491">
        <ele>1010.9636</ele>
        <time>2009-09-22T12:00:24Z</time>
      </trkpt>
      <trkpt lat="28.27354230" lon="-16.8091037">
        <ele>1012.4055</ele>
        <time>2009-09-22T12:00:27Z</time>
      </trkpt>
      <trkpt lat="28.27357830" lon="-16.8090834">
        <ele>1011.9250</ele>
        <time>2009-09-22T12:00:29Z</time>
      </trkpt>
      <trkpt lat="28.27360000" lon="-16.8090768">
        <ele>1011.4443</ele>
        <time>2009-09-22T12:00:29Z</time>
      </trkpt>
      <trkpt lat="28.27365820" lon="-16.8090871">
        <ele>1010.9636</ele>
        <time>2009-09-22T12:00:32Z</time>
      </trkpt>
      <trkpt lat="28.27372070" lon="-16.8090679">
        <ele>1010.9636</ele>
        <time>2009-09-22T12:00:34Z</time>
      </trkpt>
      <trkpt lat="28.27380540" lon="-16.8090736">
        <ele>1011.4443</ele>
        <time>2009-09-22T12:00:38Z</time>
      </trkpt>
      <trkpt lat="28.27389600" lon="-16.8090686">
        <ele>1012.4055</ele>
        <time>2009-09-22T12:00:41Z</time>
      </trkpt>
      <trkpt lat="28.27397980" lon="-16.8090242">
        <ele>1011.9250</ele>
        <time>2009-09-22T12:00:45Z</time>
      </trkpt>
      <trkpt lat="28.27409490" lon="-16.8089887">
        <ele>1011.4443</ele>
        <time>2009-09-22T12:00:50Z</time>
      </trkpt>
      <trkpt lat="28.27418910" lon="-16.8089767">
        <ele>1012.4055</ele>
        <time>2009-09-22T12:00:54Z</time>
      </trkpt>
      <trkpt lat="28.27427890" lon="-16.8089798">
        <ele>1012.4055</ele>
        <time>2009-09-22T12:00:57Z</time>
      </trkpt>
      <trkpt lat="28.27434870" lon="-16.8089947">
        <ele>1012.8862</ele>
        <time>2009-09-22T12:01:00Z</time>
      </trkpt>
      <trkpt lat="28.27443140" lon="-16.8089817">
        <ele>1012.8862</ele>
        <time>2009-09-22T12:01:04Z</time>
      </trkpt>
      <trkpt lat="28.27449380" lon="-16.8089693">
        <ele>1012.4055</ele>
        <time>2009-09-22T12:01:06Z</time>
      </trkpt>
      <trkpt lat="28.27452160" lon="-16.8089596">
        <ele>1010.9636</ele>
        <time>2009-09-22T12:01:07Z</time>
      </trkpt>
      <trkpt lat="28.27455700" lon="-16.8089592">
        <ele>1010.9636</ele>
        <time>2009-09-22T12:01:09Z</time>
      </trkpt>
      <trkpt lat="28.27462330" lon="-16.8089277">
        <ele>1009.0410</ele>
        <time>2009-09-22T12:01:12Z</time>
      </trkpt>
      <trkpt lat="28.27467030" lon="-16.8089256">
        <ele>1007.5991</ele>
        <time>2009-09-22T12:01:13Z</time>
      </trkpt>
      <trkpt lat="28.27474810" lon="-16.8089073">
        <ele>1005.6765</ele>
        <time>2009-09-22T12:01:17Z</time>
      </trkpt>
      <trkpt lat="28.27484080" lon="-16.8088927">
        <ele>1004.2346</ele>
        <time>2009-09-22T12:01:20Z</time>
      </trkpt>
      <trkpt lat="28.27487190" lon="-16.8088865">
        <ele>1003.7536</ele>
        <time>2009-09-22T12:01:22Z</time>
      </trkpt>
      <trkpt lat="28.27490190" lon="-16.8088603">
        <ele>1002.7922</ele>
        <time>2009-09-22T12:01:23Z</time>
      </trkpt>
      <trkpt lat="28.27493260" lon="-16.8088557">
        <ele>1002.3115</ele>
        <time>2009-09-22T12:01:24Z</time>
      </trkpt>
      <trkpt lat="28.27496190" lon="-16.8088543">
        <ele>1001.8310</ele>
        <time>2009-09-22T12:01:26Z</time>
      </trkpt>
      <trkpt lat="28.27499210" lon="-16.8088372">
        <ele>999.90844</ele>
        <time>2009-09-22T12:01:27Z</time>
      </trkpt>
      <trkpt lat="28.27505980" lon="-16.8088458">
        <ele>998.94702</ele>
        <time>2009-09-22T12:01:30Z</time>
      </trkpt>
      <trkpt lat="28.27510750" lon="-16.8088354">
        <ele>998.94702</ele>
        <time>2009-09-22T12:01:32Z</time>
      </trkpt>
      <trkpt lat="28.27524850" lon="-16.8088153">
        <ele>999.90844</ele>
        <time>2009-09-22T12:01:37Z</time>
      </trkpt>
      <trkpt lat="28.27529190" lon="-16.8088057">
        <ele>999.42773</ele>
        <time>2009-09-22T12:01:39Z</time>
      </trkpt>
      <trkpt lat="28.27536040" lon="-16.8087668">
        <ele>999.42773</ele>
        <time>2009-09-22T12:01:42Z</time>
      </trkpt>
      <trkpt lat="28.27538470" lon="-16.8087629">
        <ele>998.94702</ele>
        <time>2009-09-22T12:01:43Z</time>
      </trkpt>
      <trkpt lat="28.27543330" lon="-16.8087798">
        <ele>997.98583</ele>
        <time>2009-09-22T12:01:45Z</time>
      </trkpt>
      <trkpt lat="28.27554030" lon="-16.8087927">
        <ele>997.50512</ele>
        <time>2009-09-22T12:01:49Z</time>
      </trkpt>
      <trkpt lat="28.27566610" lon="-16.8088008">
        <ele>999.42773</ele>
        <time>2009-09-22T12:01:54Z</time>
      </trkpt>
      <trkpt lat="28.27576330" lon="-16.8087942">
        <ele>999.42773</ele>
        <time>2009-09-22T12:01:58Z</time>
      </trkpt>
      <trkpt lat="28.27580500" lon="-16.8087811">
        <ele>998.46630</ele>
        <time>2009-09-22T12:02:00Z</time>
      </trkpt>
      <trkpt lat="28.27586860" lon="-16.8087483">
        <ele>998.94702</ele>
        <time>2009-09-22T12:02:03Z</time>
      </trkpt>
      <trkpt lat="28.27594630" lon="-16.8086975">
        <ele>999.90844</ele>
        <time>2009-09-22T12:02:06Z</time>
      </trkpt>
      <trkpt lat="28.27601670" lon="-16.8086634">
        <ele>999.42773</ele>
        <time>2009-09-22T12:02:10Z</time>
      </trkpt>
      <trkpt lat="28.27612560" lon="-16.8086186">
        <ele>999.42773</ele>
        <time>2009-09-22T12:02:14Z</time>
      </trkpt>
      <trkpt lat="28.27617010" lon="-16.8085929">
        <ele>998.94702</ele>
        <time>2009-09-22T12:02:16Z</time>
      </trkpt>
      <trkpt lat="28.27620100" lon="-16.8085708">
        <ele>998.46630</ele>
        <time>2009-09-22T12:02:18Z</time>
      </trkpt>
      <trkpt lat="28.27628190" lon="-16.8085399">
        <ele>999.90844</ele>
        <time>2009-09-22T12:02:21Z</time>
      </trkpt>
      <trkpt lat="28.27632290" lon="-16.8085111">
        <ele>999.90844</ele>
        <time>2009-09-22T12:02:23Z</time>
      </trkpt>
      <trkpt lat="28.27635250" lon="-16.8084759">
        <ele>998.94702</ele>
        <time>2009-09-22T12:02:25Z</time>
      </trkpt>
      <trkpt lat="28.27637210" lon="-16.8084287">
        <ele>997.98583</ele>
        <time>2009-09-22T12:02:27Z</time>
      </trkpt>
      <trkpt lat="28.27638640" lon="-16.8084256">
        <ele>997.02441</ele>
        <time>2009-09-22T12:02:27Z</time>
      </trkpt>
      <trkpt lat="28.27641410" lon="-16.8084500">
        <ele>996.06323</ele>
        <time>2009-09-22T12:02:29Z</time>
      </trkpt>
      <trkpt lat="28.27642110" lon="-16.8084567">
        <ele>994.14062</ele>
        <time>2009-09-22T12:02:29Z</time>
      </trkpt>
      <trkpt lat="28.27642420" lon="-16.8084634">
        <ele>992.69873</ele>
        <time>2009-09-22T12:02:29Z</time>
      </trkpt>
      <trkpt lat="28.27643310" lon="-16.8084598">
        <ele>991.73730</ele>
        <time>2009-09-22T12:02:30Z</time>
      </trkpt>
      <trkpt lat="28.27645550" lon="-16.8084401">
        <ele>991.73730</ele>
        <time>2009-09-22T12:02:31Z</time>
      </trkpt>
      <trkpt lat="28.27645940" lon="-16.8084121">
        <ele>990.77587</ele>
        <time>2009-09-22T12:02:32Z</time>
      </trkpt>
      <trkpt lat="28.27646170" lon="-16.8083801">
        <ele>989.81469</ele>
        <time>2009-09-22T12:02:33Z</time>
      </trkpt>
      <trkpt lat="28.27646220" lon="-16.8083473">
        <ele>987.89184</ele>
        <time>2009-09-22T12:02:34Z</time>
      </trkpt>
      <trkpt lat="28.27644880" lon="-16.8083140">
        <ele>986.44995</ele>
        <time>2009-09-22T12:02:35Z</time>
      </trkpt>
      <trkpt lat="28.27643280" lon="-16.8082540">
        <ele>985.48852</ele>
        <time>2009-09-22T12:02:37Z</time>
      </trkpt>
      <trkpt lat="28.27643170" lon="-16.8082002">
        <ele>985.96923</ele>
        <time>2009-09-22T12:02:39Z</time>
      </trkpt>
      <trkpt lat="28.27643010" lon="-16.8081257">
        <ele>985.00805</ele>
        <time>2009-09-22T12:02:42Z</time>
      </trkpt>
      <trkpt lat="28.27643180" lon="-16.8080908">
        <ele>984.52734</ele>
        <time>2009-09-22T12:02:43Z</time>
      </trkpt>
      <trkpt lat="28.27643840" lon="-16.8080160">
        <ele>983.56591</ele>
        <time>2009-09-22T12:02:46Z</time>
      </trkpt>
      <trkpt lat="28.27643750" lon="-16.8079671">
        <ele>983.08520</ele>
        <time>2009-09-22T12:02:48Z</time>
      </trkpt>
      <trkpt lat="28.27644150" lon="-16.8079090">
        <ele>982.60473</ele>
        <time>2009-09-22T12:02:50Z</time>
      </trkpt>
      <trkpt lat="28.27644930" lon="-16.8078717">
        <ele>981.64331</ele>
        <time>2009-09-22T12:02:51Z</time>
      </trkpt>
      <trkpt lat="28.27647670" lon="-16.8078330">
        <ele>981.64331</ele>
        <time>2009-09-22T12:02:53Z</time>
      </trkpt>
      <trkpt lat="28.27648140" lon="-16.8078076">
        <ele>981.64331</ele>
        <time>2009-09-22T12:02:54Z</time>
      </trkpt>
      <trkpt lat="28.27653510" lon="-16.8077833">
        <ele>983.08520</ele>
        <time>2009-09-22T12:02:56Z</time>
      </trkpt>
      <trkpt lat="28.27655590" lon="-16.8077667">
        <ele>983.56591</ele>
        <time>2009-09-22T12:02:57Z</time>
      </trkpt>
      <trkpt lat="28.27658350" lon="-16.8077373">
        <ele>983.56591</ele>
        <time>2009-09-22T12:02:58Z</time>
      </trkpt>
      <trkpt lat="28.27660160" lon="-16.8076962">
        <ele>982.12402</ele>
        <time>2009-09-22T12:03:00Z</time>
      </trkpt>
      <trkpt lat="28.27662890" lon="-16.8076564">
        <ele>980.68212</ele>
        <time>2009-09-22T12:03:02Z</time>
      </trkpt>
      <trkpt lat="28.27664260" lon="-16.8076334">
        <ele>980.20141</ele>
        <time>2009-09-22T12:03:03Z</time>
      </trkpt>
      <trkpt lat="28.27666150" lon="-16.8076121">
        <ele>979.72070</ele>
        <time>2009-09-22T12:03:04Z</time>
      </trkpt>
      <trkpt lat="28.27668590" lon="-16.8075590">
        <ele>977.79809</ele>
        <time>2009-09-22T12:03:06Z</time>
      </trkpt>
      <trkpt lat="28.27670470" lon="-16.8075294">
        <ele>976.83691</ele>
        <time>2009-09-22T12:03:07Z</time>
      </trkpt>
      <trkpt lat="28.27672700" lon="-16.8075011">
        <ele>975.87548</ele>
        <time>2009-09-22T12:03:09Z</time>
      </trkpt>
      <trkpt lat="28.27675340" lon="-16.8074662">
        <ele>974.91430</ele>
        <time>2009-09-22T12:03:10Z</time>
      </trkpt>
      <trkpt lat="28.27677560" lon="-16.8074475">
        <ele>974.43359</ele>
        <time>2009-09-22T12:03:11Z</time>
      </trkpt>
      <trkpt lat="28.27683050" lon="-16.8073617">
        <ele>971.54931</ele>
        <time>2009-09-22T12:03:15Z</time>
      </trkpt>
      <trkpt lat="28.27685790" lon="-16.8073246">
        <ele>970.58813</ele>
        <time>2009-09-22T12:03:17Z</time>
      </trkpt>
      <trkpt lat="28.27688110" lon="-16.8072906">
        <ele>970.58813</ele>
        <time>2009-09-22T12:03:18Z</time>
      </trkpt>
      <trkpt lat="28.27690800" lon="-16.8072327">
        <ele>967.22363</ele>
        <time>2009-09-22T12:03:21Z</time>
      </trkpt>
      <trkpt lat="28.27692460" lon="-16.8072310">
        <ele>965.78173</ele>
        <time>2009-09-22T12:03:21Z</time>
      </trkpt>
      <trkpt lat="28.27693010" lon="-16.8072714">
        <ele>964.33959</ele>
        <time>2009-09-22T12:03:23Z</time>
      </trkpt>
      <trkpt lat="28.27690250" lon="-16.8073335">
        <ele>963.37841</ele>
        <time>2009-09-22T12:03:25Z</time>
      </trkpt>
      <trkpt lat="28.27690060" lon="-16.8073435">
        <ele>962.89770</ele>
        <time>2009-09-22T12:03:26Z</time>
      </trkpt>
      <trkpt lat="28.27692020" lon="-16.8073720">
        <ele>961.45581</ele>
        <time>2009-09-22T12:03:27Z</time>
      </trkpt>
      <trkpt lat="28.27693810" lon="-16.8073438">
        <ele>960.49438</ele>
        <time>2009-09-22T12:03:28Z</time>
      </trkpt>
      <trkpt lat="28.27697610" lon="-16.8073343">
        <ele>960.97509</ele>
        <time>2009-09-22T12:03:30Z</time>
      </trkpt>
      <trkpt lat="28.27700780" lon="-16.8073008">
        <ele>960.49438</ele>
        <time>2009-09-22T12:03:31Z</time>
      </trkpt>
      <trkpt lat="28.27702380" lon="-16.8072746">
        <ele>960.01367</ele>
        <time>2009-09-22T12:03:33Z</time>
      </trkpt>
      <trkpt lat="28.27707280" lon="-16.8072537">
        <ele>957.12988</ele>
        <time>2009-09-22T12:03:35Z</time>
      </trkpt>
      <trkpt lat="28.27714170" lon="-16.8072451">
        <ele>954.72631</ele>
        <time>2009-09-22T12:03:37Z</time>
      </trkpt>
      <trkpt lat="28.27717640" lon="-16.8072584">
        <ele>956.16845</ele>
        <time>2009-09-22T12:03:39Z</time>
      </trkpt>
      <trkpt lat="28.27720350" lon="-16.8072571">
        <ele>955.68774</ele>
        <time>2009-09-22T12:03:40Z</time>
      </trkpt>
      <trkpt lat="28.27726370" lon="-16.8072763">
        <ele>953.76513</ele>
        <time>2009-09-22T12:03:42Z</time>
      </trkpt>
      <trkpt lat="28.27728680" lon="-16.8073065">
        <ele>951.84252</ele>
        <time>2009-09-22T12:03:44Z</time>
      </trkpt>
      <trkpt lat="28.27731570" lon="-16.8073021">
        <ele>950.88110</ele>
        <time>2009-09-22T12:03:45Z</time>
      </trkpt>
      <trkpt lat="28.27736630" lon="-16.8073330">
        <ele>951.84252</ele>
        <time>2009-09-22T12:03:47Z</time>
      </trkpt>
      <trkpt lat="28.27741220" lon="-16.8073203">
        <ele>950.88110</ele>
        <time>2009-09-22T12:03:49Z</time>
      </trkpt>
      <trkpt lat="28.27751210" lon="-16.8073022">
        <ele>948.95849</ele>
        <time>2009-09-22T12:03:53Z</time>
      </trkpt>
      <trkpt lat="28.27762200" lon="-16.8072518">
        <ele>947.51660</ele>
        <time>2009-09-22T12:03:58Z</time>
      </trkpt>
      <trkpt lat="28.27767000" lon="-16.8072066">
        <ele>947.03588</ele>
        <time>2009-09-22T12:04:00Z</time>
      </trkpt>
      <trkpt lat="28.27771040" lon="-16.8071544">
        <ele>946.07470</ele>
        <time>2009-09-22T12:04:03Z</time>
      </trkpt>
      <trkpt lat="28.27773910" lon="-16.8071596">
        <ele>946.07470</ele>
        <time>2009-09-22T12:04:04Z</time>
      </trkpt>
      <trkpt lat="28.27779500" lon="-16.8071963">
        <ele>946.07470</ele>
        <time>2009-09-22T12:04:07Z</time>
      </trkpt>
      <trkpt lat="28.27782670" lon="-16.8072036">
        <ele>945.11328</ele>
        <time>2009-09-22T12:04:08Z</time>
      </trkpt>
      <trkpt lat="28.27792150" lon="-16.8072498">
        <ele>942.71020</ele>
        <time>2009-09-22T12:04:12Z</time>
      </trkpt>
      <trkpt lat="28.27793660" lon="-16.8072554">
        <ele>943.19067</ele>
        <time>2009-09-22T12:04:13Z</time>
      </trkpt>
      <trkpt lat="28.27798880" lon="-16.8072865">
        <ele>942.71020</ele>
        <time>2009-09-22T12:04:15Z</time>
      </trkpt>
      <trkpt lat="28.27805150" lon="-16.8073041">
        <ele>942.22949</ele>
        <time>2009-09-22T12:04:18Z</time>
      </trkpt>
      <trkpt lat="28.27810900" lon="-16.8073637">
        <ele>941.26806</ele>
        <time>2009-09-22T12:04:21Z</time>
      </trkpt>
      <trkpt lat="28.27814890" lon="-16.8073926">
        <ele>939.34521</ele>
        <time>2009-09-22T12:04:23Z</time>
      </trkpt>
      <trkpt lat="28.27820990" lon="-16.8074321">
        <ele>936.94189</ele>
        <time>2009-09-22T12:04:26Z</time>
      </trkpt>
      <trkpt lat="28.27823210" lon="-16.8074410">
        <ele>936.46142</ele>
        <time>2009-09-22T12:04:26Z</time>
      </trkpt>
      <trkpt lat="28.27833690" lon="-16.8074808">
        <ele>933.57739</ele>
        <time>2009-09-22T12:04:31Z</time>
      </trkpt>
      <trkpt lat="28.27843770" lon="-16.8074892">
        <ele>933.09667</ele>
        <time>2009-09-22T12:04:35Z</time>
      </trkpt>
      <trkpt lat="28.27853890" lon="-16.8074870">
        <ele>933.09667</ele>
        <time>2009-09-22T12:04:39Z</time>
      </trkpt>
      <trkpt lat="28.27864390" lon="-16.8074885">
        <ele>935.01953</ele>
        <time>2009-09-22T12:04:43Z</time>
      </trkpt>
      <trkpt lat="28.27873420" lon="-16.8074818">
        <ele>934.05810</ele>
        <time>2009-09-22T12:04:47Z</time>
      </trkpt>
      <trkpt lat="28.27874730" lon="-16.8074834">
        <ele>934.05810</ele>
        <time>2009-09-22T12:04:47Z</time>
      </trkpt>
      <trkpt lat="28.27878970" lon="-16.8074622">
        <ele>933.57739</ele>
        <time>2009-09-22T12:04:49Z</time>
      </trkpt>
      <trkpt lat="28.27884130" lon="-16.8074091">
        <ele>933.57739</ele>
        <time>2009-09-22T12:04:52Z</time>
      </trkpt>
      <trkpt lat="28.27889960" lon="-16.8073711">
        <ele>933.57739</ele>
        <time>2009-09-22T12:04:55Z</time>
      </trkpt>
      <trkpt lat="28.27895380" lon="-16.8073537">
        <ele>933.09667</ele>
        <time>2009-09-22T12:04:57Z</time>
      </trkpt>
      <trkpt lat="28.27901300" lon="-16.8073078">
        <ele>933.57739</ele>
        <time>2009-09-22T12:05:00Z</time>
      </trkpt>
      <trkpt lat="28.27903160" lon="-16.8072694">
        <ele>931.65478</ele>
        <time>2009-09-22T12:05:01Z</time>
      </trkpt>
      <trkpt lat="28.27910360" lon="-16.8072232">
        <ele>930.69360</ele>
        <time>2009-09-22T12:05:05Z</time>
      </trkpt>
      <trkpt lat="28.27911890" lon="-16.8072026">
        <ele>930.21289</ele>
        <time>2009-09-22T12:05:06Z</time>
      </trkpt>
      <trkpt lat="28.27915100" lon="-16.8071895">
        <ele>930.69360</ele>
        <time>2009-09-22T12:05:07Z</time>
      </trkpt>
      <trkpt lat="28.27917610" lon="-16.8071720">
        <ele>928.77099</ele>
        <time>2009-09-22T12:05:08Z</time>
      </trkpt>
      <trkpt lat="28.27921590" lon="-16.8071706">
        <ele>928.29028</ele>
        <time>2009-09-22T12:05:10Z</time>
      </trkpt>
      <trkpt lat="28.27923830" lon="-16.8071591">
        <ele>926.36767</ele>
        <time>2009-09-22T12:05:11Z</time>
      </trkpt>
      <trkpt lat="28.27926880" lon="-16.8071430">
        <ele>925.88696</ele>
        <time>2009-09-22T12:05:12Z</time>
      </trkpt>
      <trkpt lat="28.27929740" lon="-16.8071274">
        <ele>923.48364</ele>
        <time>2009-09-22T12:05:13Z</time>
      </trkpt>
      <trkpt lat="28.27936360" lon="-16.8071131">
        <ele>922.04150</ele>
        <time>2009-09-22T12:05:16Z</time>
      </trkpt>
      <trkpt lat="28.27939520" lon="-16.8071275">
        <ele>921.08032</ele>
        <time>2009-09-22T12:05:17Z</time>
      </trkpt>
      <trkpt lat="28.27942530" lon="-16.8071310">
        <ele>920.11889</ele>
        <time>2009-09-22T12:05:19Z</time>
      </trkpt>
      <trkpt lat="28.27946150" lon="-16.8071341">
        <ele>918.67700</ele>
        <time>2009-09-22T12:05:20Z</time>
      </trkpt>
      <trkpt lat="28.27948440" lon="-16.8071374">
        <ele>917.23510</ele>
        <time>2009-09-22T12:05:21Z</time>
      </trkpt>
      <trkpt lat="28.27952580" lon="-16.8071264">
        <ele>916.75439</ele>
        <time>2009-09-22T12:05:23Z</time>
      </trkpt>
      <trkpt lat="28.27955780" lon="-16.8071200">
        <ele>916.27368</ele>
        <time>2009-09-22T12:05:24Z</time>
      </trkpt>
      <trkpt lat="28.27961020" lon="-16.8071322">
        <ele>915.79321</ele>
        <time>2009-09-22T12:05:26Z</time>
      </trkpt>
      <trkpt lat="28.27964690" lon="-16.8071185">
        <ele>914.83178</ele>
        <time>2009-09-22T12:05:28Z</time>
      </trkpt>
      <trkpt lat="28.27968260" lon="-16.8071228">
        <ele>913.38989</ele>
        <time>2009-09-22T12:05:29Z</time>
      </trkpt>
      <trkpt lat="28.27973040" lon="-16.8070745">
        <ele>910.98657</ele>
        <time>2009-09-22T12:05:32Z</time>
      </trkpt>
      <trkpt lat="28.27980910" lon="-16.8070195">
        <ele>907.62182</ele>
        <time>2009-09-22T12:05:35Z</time>
      </trkpt>
      <trkpt lat="28.27984690" lon="-16.8069973">
        <ele>907.14111</ele>
        <time>2009-09-22T12:05:37Z</time>
      </trkpt>
      <trkpt lat="28.27992000" lon="-16.8069672">
        <ele>905.69921</ele>
        <time>2009-09-22T12:05:40Z</time>
      </trkpt>
      <trkpt lat="28.27999340" lon="-16.8069430">
        <ele>905.69921</ele>
        <time>2009-09-22T12:05:43Z</time>
      </trkpt>
      <trkpt lat="28.28006870" lon="-16.8069110">
        <ele>905.21850</ele>
        <time>2009-09-22T12:05:46Z</time>
      </trkpt>
      <trkpt lat="28.28012850" lon="-16.8068766">
        <ele>904.73779</ele>
        <time>2009-09-22T12:05:49Z</time>
      </trkpt>
      <trkpt lat="28.28016190" lon="-16.8068576">
        <ele>903.29589</ele>
        <time>2009-09-22T12:05:51Z</time>
      </trkpt>
      <trkpt lat="28.28019090" lon="-16.8068316">
        <ele>903.29589</ele>
        <time>2009-09-22T12:05:52Z</time>
      </trkpt>
      <trkpt lat="28.28022400" lon="-16.8067968">
        <ele>904.25732</ele>
        <time>2009-09-22T12:05:54Z</time>
      </trkpt>
      <trkpt lat="28.28024730" lon="-16.8067659">
        <ele>903.29589</ele>
        <time>2009-09-22T12:05:55Z</time>
      </trkpt>
      <trkpt lat="28.28027150" lon="-16.8067199">
        <ele>903.29589</ele>
        <time>2009-09-22T12:05:57Z</time>
      </trkpt>
      <trkpt lat="28.28029500" lon="-16.8066906">
        <ele>902.81518</ele>
        <time>2009-09-22T12:05:59Z</time>
      </trkpt>
      <trkpt lat="28.28036030" lon="-16.8066696">
        <ele>900.89257</ele>
        <time>2009-09-22T12:06:01Z</time>
      </trkpt>
      <trkpt lat="28.28039180" lon="-16.8066515">
        <ele>899.45068</ele>
        <time>2009-09-22T12:06:03Z</time>
      </trkpt>
      <trkpt lat="28.28043170" lon="-16.8066570">
        <ele>898.96997</ele>
        <time>2009-09-22T12:06:04Z</time>
      </trkpt>
      <trkpt lat="28.28049710" lon="-16.8067005">
        <ele>899.93139</ele>
        <time>2009-09-22T12:06:07Z</time>
      </trkpt>
      <trkpt lat="28.28052590" lon="-16.8067352">
        <ele>900.41210</ele>
        <time>2009-09-22T12:06:09Z</time>
      </trkpt>
      <trkpt lat="28.28054050" lon="-16.8067505">
        <ele>899.45068</ele>
        <time>2009-09-22T12:06:10Z</time>
      </trkpt>
      <trkpt lat="28.28058400" lon="-16.8067908">
        <ele>898.48925</ele>
        <time>2009-09-22T12:06:12Z</time>
      </trkpt>
      <trkpt lat="28.28058950" lon="-16.8068296">
        <ele>897.04736</ele>
        <time>2009-09-22T12:06:14Z</time>
      </trkpt>
      <trkpt lat="28.28058830" lon="-16.8068586">
        <ele>895.60546</ele>
        <time>2009-09-22T12:06:15Z</time>
      </trkpt>
      <trkpt lat="28.28061200" lon="-16.8068933">
        <ele>894.16357</ele>
        <time>2009-09-22T12:06:16Z</time>
      </trkpt>
      <trkpt lat="28.28063330" lon="-16.8069104">
        <ele>892.72167</ele>
        <time>2009-09-22T12:06:17Z</time>
      </trkpt>
      <trkpt lat="28.28063730" lon="-16.8069187">
        <ele>890.31811</ele>
        <time>2009-09-22T12:06:17Z</time>
      </trkpt>
      <trkpt lat="28.28067270" lon="-16.8069623">
        <ele>890.79858</ele>
        <time>2009-09-22T12:06:20Z</time>
      </trkpt>
      <trkpt lat="28.28070190" lon="-16.8070138">
        <ele>890.79858</ele>
        <time>2009-09-22T12:06:22Z</time>
      </trkpt>
      <trkpt lat="28.28072120" lon="-16.8071078">
        <ele>888.39550</ele>
        <time>2009-09-22T12:06:25Z</time>
      </trkpt>
      <trkpt lat="28.28072330" lon="-16.8071269">
        <ele>887.91479</ele>
        <time>2009-09-22T12:06:26Z</time>
      </trkpt>
      <trkpt lat="28.28072370" lon="-16.8071926">
        <ele>886.47290</ele>
        <time>2009-09-22T12:06:28Z</time>
      </trkpt>
      <trkpt lat="28.28072690" lon="-16.8072521">
        <ele>886.95336</ele>
        <time>2009-09-22T12:06:30Z</time>
      </trkpt>
      <trkpt lat="28.28071590" lon="-16.8073035">
        <ele>885.99218</ele>
        <time>2009-09-22T12:06:32Z</time>
      </trkpt>
      <trkpt lat="28.28073060" lon="-16.8073918">
        <ele>883.58886</ele>
        <time>2009-09-22T12:06:35Z</time>
      </trkpt>
      <trkpt lat="28.28074450" lon="-16.8074063">
        <ele>883.58886</ele>
        <time>2009-09-22T12:06:36Z</time>
      </trkpt>
      <trkpt lat="28.28078820" lon="-16.8073944">
        <ele>884.06958</ele>
        <time>2009-09-22T12:06:38Z</time>
      </trkpt>
      <trkpt lat="28.28083790" lon="-16.8073450">
        <ele>885.51147</ele>
        <time>2009-09-22T12:06:40Z</time>
      </trkpt>
      <trkpt lat="28.28089340" lon="-16.8073181">
        <ele>885.99218</ele>
        <time>2009-09-22T12:06:43Z</time>
      </trkpt>
      <trkpt lat="28.28089980" lon="-16.8072970">
        <ele>885.03100</ele>
        <time>2009-09-22T12:06:44Z</time>
      </trkpt>
      <trkpt lat="28.28092760" lon="-16.8072886">
        <ele>885.51147</ele>
        <time>2009-09-22T12:06:45Z</time>
      </trkpt>
      <trkpt lat="28.28103260" lon="-16.8072937">
        <ele>885.03100</ele>
        <time>2009-09-22T12:06:49Z</time>
      </trkpt>
      <trkpt lat="28.28110930" lon="-16.8072896">
        <ele>883.58886</ele>
        <time>2009-09-22T12:06:52Z</time>
      </trkpt>
      <trkpt lat="28.28117290" lon="-16.8072848">
        <ele>884.55029</ele>
        <time>2009-09-22T12:06:55Z</time>
      </trkpt>
      <trkpt lat="28.28123340" lon="-16.8072611">
        <ele>884.55029</ele>
        <time>2009-09-22T12:06:57Z</time>
      </trkpt>
      <trkpt lat="28.28131290" lon="-16.8072288">
        <ele>886.95336</ele>
        <time>2009-09-22T12:07:01Z</time>
      </trkpt>
      <trkpt lat="28.28135020" lon="-16.8072067">
        <ele>887.43408</ele>
        <time>2009-09-22T12:07:02Z</time>
      </trkpt>
      <trkpt lat="28.28141140" lon="-16.8071778">
        <ele>885.99218</ele>
        <time>2009-09-22T12:07:05Z</time>
      </trkpt>
      <trkpt lat="28.28145510" lon="-16.8071646">
        <ele>886.95336</ele>
        <time>2009-09-22T12:07:07Z</time>
      </trkpt>
      <trkpt lat="28.28156620" lon="-16.8071519">
        <ele>889.35668</ele>
        <time>2009-09-22T12:07:11Z</time>
      </trkpt>
      <trkpt lat="28.28160290" lon="-16.8071454">
        <ele>889.35668</ele>
        <time>2009-09-22T12:07:13Z</time>
      </trkpt>
      <trkpt lat="28.28171320" lon="-16.8072043">
        <ele>886.95336</ele>
        <time>2009-09-22T12:07:18Z</time>
      </trkpt>
      <trkpt lat="28.28178440" lon="-16.8072631">
        <ele>886.95336</ele>
        <time>2009-09-22T12:07:21Z</time>
      </trkpt>
      <trkpt lat="28.28184130" lon="-16.8073667">
        <ele>885.99218</ele>
        <time>2009-09-22T12:07:25Z</time>
      </trkpt>
      <trkpt lat="28.28186200" lon="-16.8073850">
        <ele>886.47290</ele>
        <time>2009-09-22T12:07:26Z</time>
      </trkpt>
      <trkpt lat="28.28192350" lon="-16.8074315">
        <ele>885.99218</ele>
        <time>2009-09-22T12:07:29Z</time>
      </trkpt>
      <trkpt lat="28.28200170" lon="-16.8074513">
        <ele>888.39550</ele>
        <time>2009-09-22T12:07:33Z</time>
      </trkpt>
      <trkpt lat="28.28205040" lon="-16.8074512">
        <ele>889.35668</ele>
        <time>2009-09-22T12:07:35Z</time>
      </trkpt>
      <trkpt lat="28.28208020" lon="-16.8074445">
        <ele>889.35668</ele>
        <time>2009-09-22T12:07:36Z</time>
      </trkpt>
      <trkpt lat="28.28212710" lon="-16.8074454">
        <ele>889.83740</ele>
        <time>2009-09-22T12:07:38Z</time>
      </trkpt>
      <trkpt lat="28.28212670" lon="-16.8074410">
        <ele>890.31811</ele>
        <time>2009-09-22T12:07:38Z</time>
      </trkpt>
      <trkpt lat="28.28215520" lon="-16.8074177">
        <ele>890.31811</ele>
        <time>2009-09-22T12:07:39Z</time>
      </trkpt>
      <trkpt lat="28.28216410" lon="-16.8074097">
        <ele>889.83740</ele>
        <time>2009-09-22T12:07:40Z</time>
      </trkpt>
      <trkpt lat="28.28216490" lon="-16.8074295">
        <ele>891.76000</ele>
        <time>2009-09-22T12:07:40Z</time>
      </trkpt>
      <trkpt lat="28.28217600" lon="-16.8074298">
        <ele>891.76000</ele>
        <time>2009-09-22T12:07:41Z</time>
      </trkpt>
      <trkpt lat="28.28225290" lon="-16.8073685">
        <ele>892.24096</ele>
        <time>2009-09-22T12:07:45Z</time>
      </trkpt>
      <trkpt lat="28.28229340" lon="-16.8073096">
        <ele>893.20214</ele>
        <time>2009-09-22T12:07:47Z</time>
      </trkpt>
      <trkpt lat="28.28233400" lon="-16.8072518">
        <ele>894.64404</ele>
        <time>2009-09-22T12:07:50Z</time>
      </trkpt>
      <trkpt lat="28.28238320" lon="-16.8072042">
        <ele>895.60546</ele>
        <time>2009-09-22T12:07:52Z</time>
      </trkpt>
      <trkpt lat="28.28243430" lon="-16.8071575">
        <ele>897.04736</ele>
        <time>2009-09-22T12:07:55Z</time>
      </trkpt>
      <trkpt lat="28.28249710" lon="-16.8070908">
        <ele>898.00878</ele>
        <time>2009-09-22T12:07:58Z</time>
      </trkpt>
      <trkpt lat="28.28255600" lon="-16.8070506">
        <ele>899.93139</ele>
        <time>2009-09-22T12:08:01Z</time>
      </trkpt>
      <trkpt lat="28.28256040" lon="-16.8070476">
        <ele>899.93139</ele>
        <time>2009-09-22T12:08:01Z</time>
      </trkpt>
      <trkpt lat="28.28257200" lon="-16.8070694">
        <ele>899.45068</ele>
        <time>2009-09-22T12:08:02Z</time>
      </trkpt>
      <trkpt lat="28.28255920" lon="-16.8070824">
        <ele>898.00878</ele>
        <time>2009-09-22T12:08:03Z</time>
      </trkpt>
      <trkpt lat="28.28255760" lon="-16.8070881">
        <ele>898.00878</ele>
        <time>2009-09-22T12:08:03Z</time>
      </trkpt>
      <trkpt lat="28.28256590" lon="-16.8070789">
        <ele>897.52807</ele>
        <time>2009-09-22T12:08:04Z</time>
      </trkpt>
      <trkpt lat="28.28259380" lon="-16.8070653">
        <ele>896.08618</ele>
        <time>2009-09-22T12:08:05Z</time>
      </trkpt>
      <trkpt lat="28.28261490" lon="-16.8070631">
        <ele>895.60546</ele>
        <time>2009-09-22T12:08:06Z</time>
      </trkpt>
      <trkpt lat="28.28262040" lon="-16.8070565">
        <ele>896.56689</ele>
        <time>2009-09-22T12:08:06Z</time>
      </trkpt>
      <trkpt lat="28.28262790" lon="-16.8070551">
        <ele>894.64404</ele>
        <time>2009-09-22T12:08:06Z</time>
      </trkpt>
      <trkpt lat="28.28266070" lon="-16.8070648">
        <ele>894.16357</ele>
        <time>2009-09-22T12:08:08Z</time>
      </trkpt>
      <trkpt lat="28.28268800" lon="-16.8070824">
        <ele>893.68286</ele>
        <time>2009-09-22T12:08:09Z</time>
      </trkpt>
      <trkpt lat="28.28275440" lon="-16.8070990">
        <ele>892.72167</ele>
        <time>2009-09-22T12:08:12Z</time>
      </trkpt>
      <trkpt lat="28.28284000" lon="-16.8071288">
        <ele>891.76000</ele>
        <time>2009-09-22T12:08:15Z</time>
      </trkpt>
      <trkpt lat="28.28293040" lon="-16.8071876">
        <ele>891.27929</ele>
        <time>2009-09-22T12:08:19Z</time>
      </trkpt>
      <trkpt lat="28.28299320" lon="-16.8072485">
        <ele>891.27929</ele>
        <time>2009-09-22T12:08:23Z</time>
      </trkpt>
      <trkpt lat="28.28309740" lon="-16.8073141">
        <ele>891.27929</ele>
        <time>2009-09-22T12:08:28Z</time>
      </trkpt>
      <trkpt lat="28.28317540" lon="-16.8073388">
        <ele>891.76000</ele>
        <time>2009-09-22T12:08:31Z</time>
      </trkpt>
      <trkpt lat="28.28327080" lon="-16.8073471">
        <ele>892.24096</ele>
        <time>2009-09-22T12:08:35Z</time>
      </trkpt>
      <trkpt lat="28.28335680" lon="-16.8073724">
        <ele>892.72167</ele>
        <time>2009-09-22T12:08:38Z</time>
      </trkpt>
      <trkpt lat="28.28347620" lon="-16.8074221">
        <ele>894.16357</ele>
        <time>2009-09-22T12:08:43Z</time>
      </trkpt>
      <trkpt lat="28.28356840" lon="-16.8074309">
        <ele>894.16357</ele>
        <time>2009-09-22T12:08:47Z</time>
      </trkpt>
      <trkpt lat="28.28364140" lon="-16.8074223">
        <ele>894.16357</ele>
        <time>2009-09-22T12:08:50Z</time>
      </trkpt>
      <trkpt lat="28.28374700" lon="-16.8073821">
        <ele>894.64404</ele>
        <time>2009-09-22T12:08:54Z</time>
      </trkpt>
      <trkpt lat="28.28381080" lon="-16.8073817">
        <ele>895.12475</ele>
        <time>2009-09-22T12:08:57Z</time>
      </trkpt>
      <trkpt lat="28.28386510" lon="-16.8074006">
        <ele>895.60546</ele>
        <time>2009-09-22T12:08:59Z</time>
      </trkpt>
      <trkpt lat="28.28390490" lon="-16.8074814">
        <ele>895.60546</ele>
        <time>2009-09-22T12:09:02Z</time>
      </trkpt>
      <trkpt lat="28.28395410" lon="-16.8075098">
        <ele>896.08618</ele>
        <time>2009-09-22T12:09:05Z</time>
      </trkpt>
      <trkpt lat="28.28405330" lon="-16.8075444">
        <ele>897.52807</ele>
        <time>2009-09-22T12:09:09Z</time>
      </trkpt>
      <trkpt lat="28.28412520" lon="-16.8075362">
        <ele>897.52807</ele>
        <time>2009-09-22T12:09:12Z</time>
      </trkpt>
      <trkpt lat="28.28420740" lon="-16.8074977">
        <ele>896.56689</ele>
        <time>2009-09-22T12:09:15Z</time>
      </trkpt>
      <trkpt lat="28.28423110" lon="-16.8074844">
        <ele>897.04736</ele>
        <time>2009-09-22T12:09:16Z</time>
      </trkpt>
      <trkpt lat="28.28430850" lon="-16.8074710">
        <ele>895.60546</ele>
        <time>2009-09-22T12:09:19Z</time>
      </trkpt>
      <trkpt lat="28.28438880" lon="-16.8074911">
        <ele>895.60546</ele>
        <time>2009-09-22T12:09:23Z</time>
      </trkpt>
      <trkpt lat="28.28445100" lon="-16.8075403">
        <ele>896.08618</ele>
        <time>2009-09-22T12:09:26Z</time>
      </trkpt>
      <trkpt lat="28.28451520" lon="-16.8075750">
        <ele>895.60546</ele>
        <time>2009-09-22T12:09:29Z</time>
      </trkpt>
      <trkpt lat="28.28455830" lon="-16.8076306">
        <ele>894.16357</ele>
        <time>2009-09-22T12:09:31Z</time>
      </trkpt>
      <trkpt lat="28.28459530" lon="-16.8077076">
        <ele>895.12475</ele>
        <time>2009-09-22T12:09:34Z</time>
      </trkpt>
      <trkpt lat="28.28465040" lon="-16.8077883">
        <ele>895.60546</ele>
        <time>2009-09-22T12:09:38Z</time>
      </trkpt>
      <trkpt lat="28.28471050" lon="-16.8078471">
        <ele>898.00878</ele>
        <time>2009-09-22T12:09:41Z</time>
      </trkpt>
      <trkpt lat="28.28481930" lon="-16.8078967">
        <ele>898.96997</ele>
        <time>2009-09-22T12:09:46Z</time>
      </trkpt>
      <trkpt lat="28.28490110" lon="-16.8079136">
        <ele>899.45068</ele>
        <time>2009-09-22T12:09:49Z</time>
      </trkpt>
      <trkpt lat="28.28499080" lon="-16.8079449">
        <ele>900.41210</ele>
        <time>2009-09-22T12:09:53Z</time>
      </trkpt>
      <trkpt lat="28.28507670" lon="-16.8079567">
        <ele>900.41210</ele>
        <time>2009-09-22T12:09:56Z</time>
      </trkpt>
      <trkpt lat="28.28510360" lon="-16.8079475">
        <ele>899.93139</ele>
        <time>2009-09-22T12:09:57Z</time>
      </trkpt>
      <trkpt lat="28.28520950" lon="-16.8079371">
        <ele>899.45068</ele>
        <time>2009-09-22T12:10:02Z</time>
      </trkpt>
      <trkpt lat="28.28531640" lon="-16.8079547">
        <ele>898.96997</ele>
        <time>2009-09-22T12:10:06Z</time>
      </trkpt>
      <trkpt lat="28.28533830" lon="-16.8079813">
        <ele>898.48925</ele>
        <time>2009-09-22T12:10:07Z</time>
      </trkpt>
      <trkpt lat="28.28536430" lon="-16.8079890">
        <ele>899.45068</ele>
        <time>2009-09-22T12:10:08Z</time>
      </trkpt>
      <trkpt lat="28.28536530" lon="-16.8080014">
        <ele>898.96997</ele>
        <time>2009-09-22T12:10:09Z</time>
      </trkpt>
      <trkpt lat="28.28537620" lon="-16.8080048">
        <ele>898.48925</ele>
        <time>2009-09-22T12:10:09Z</time>
      </trkpt>
      <trkpt lat="28.28541970" lon="-16.8080323">
        <ele>898.96997</ele>
        <time>2009-09-22T12:10:11Z</time>
      </trkpt>
      <trkpt lat="28.28544550" lon="-16.8080783">
        <ele>899.45068</ele>
        <time>2009-09-22T12:10:13Z</time>
      </trkpt>
      <trkpt lat="28.28545480" lon="-16.8081118">
        <ele>899.93139</ele>
        <time>2009-09-22T12:10:14Z</time>
      </trkpt>
      <trkpt lat="28.28550670" lon="-16.8081635">
        <ele>900.41210</ele>
        <time>2009-09-22T12:10:17Z</time>
      </trkpt>
      <trkpt lat="28.28553780" lon="-16.8082110">
        <ele>899.45068</ele>
        <time>2009-09-22T12:10:19Z</time>
      </trkpt>
      <trkpt lat="28.28556190" lon="-16.8082608">
        <ele>900.41210</ele>
        <time>2009-09-22T12:10:21Z</time>
      </trkpt>
      <trkpt lat="28.28560510" lon="-16.8083104">
        <ele>900.41210</ele>
        <time>2009-09-22T12:10:24Z</time>
      </trkpt>
      <trkpt lat="28.28562200" lon="-16.8083320">
        <ele>900.41210</ele>
        <time>2009-09-22T12:10:25Z</time>
      </trkpt>
      <trkpt lat="28.28571870" lon="-16.8084307">
        <ele>901.37329</ele>
        <time>2009-09-22T12:10:30Z</time>
      </trkpt>
      <trkpt lat="28.28578320" lon="-16.8084993">
        <ele>902.33447</ele>
        <time>2009-09-22T12:10:34Z</time>
      </trkpt>
      <trkpt lat="28.28580670" lon="-16.8085135">
        <ele>902.81518</ele>
        <time>2009-09-22T12:10:35Z</time>
      </trkpt>
      <trkpt lat="28.28586130" lon="-16.8085519">
        <ele>902.33447</ele>
        <time>2009-09-22T12:10:37Z</time>
      </trkpt>
      <trkpt lat="28.28587600" lon="-16.8085744">
        <ele>902.33447</ele>
        <time>2009-09-22T12:10:38Z</time>
      </trkpt>
      <trkpt lat="28.28593800" lon="-16.8086686">
        <ele>903.29589</ele>
        <time>2009-09-22T12:10:42Z</time>
      </trkpt>
      <trkpt lat="28.28600480" lon="-16.8087322">
        <ele>904.73779</ele>
        <time>2009-09-22T12:10:46Z</time>
      </trkpt>
      <trkpt lat="28.28602950" lon="-16.8088090">
        <ele>904.25732</ele>
        <time>2009-09-22T12:10:49Z</time>
      </trkpt>
      <trkpt lat="28.28606670" lon="-16.8088794">
        <ele>903.29589</ele>
        <time>2009-09-22T12:10:52Z</time>
      </trkpt>
      <trkpt lat="28.28609890" lon="-16.8089151">
        <ele>902.33447</ele>
        <time>2009-09-22T12:10:53Z</time>
      </trkpt>
      <trkpt lat="28.28612310" lon="-16.8089720">
        <ele>900.89257</ele>
        <time>2009-09-22T12:10:56Z</time>
      </trkpt>
      <trkpt lat="28.28612730" lon="-16.8089849">
        <ele>901.37329</ele>
        <time>2009-09-22T12:10:56Z</time>
      </trkpt>
      <trkpt lat="28.28615980" lon="-16.8090509">
        <ele>900.89257</ele>
        <time>2009-09-22T12:10:59Z</time>
      </trkpt>
      <trkpt lat="28.28618580" lon="-16.8091327">
        <ele>899.93139</ele>
        <time>2009-09-22T12:11:02Z</time>
      </trkpt>
      <trkpt lat="28.28620060" lon="-16.8091762">
        <ele>899.93139</ele>
        <time>2009-09-22T12:11:03Z</time>
      </trkpt>
      <trkpt lat="28.28623690" lon="-16.8092551">
        <ele>899.45068</ele>
        <time>2009-09-22T12:11:07Z</time>
      </trkpt>
      <trkpt lat="28.28625660" lon="-16.8092784">
        <ele>898.48925</ele>
        <time>2009-09-22T12:11:08Z</time>
      </trkpt>
      <trkpt lat="28.28627810" lon="-16.8092995">
        <ele>898.48925</ele>
        <time>2009-09-22T12:11:09Z</time>
      </trkpt>
      <trkpt lat="28.28634640" lon="-16.8094041">
        <ele>898.96997</ele>
        <time>2009-09-22T12:11:13Z</time>
      </trkpt>
      <trkpt lat="28.28641270" lon="-16.8094695">
        <ele>899.93139</ele>
        <time>2009-09-22T12:11:17Z</time>
      </trkpt>
      <trkpt lat="28.28645360" lon="-16.8094916">
        <ele>900.41210</ele>
        <time>2009-09-22T12:11:19Z</time>
      </trkpt>
      <trkpt lat="28.28649130" lon="-16.8095186">
        <ele>901.85400</ele>
        <time>2009-09-22T12:11:21Z</time>
      </trkpt>
      <trkpt lat="28.28650130" lon="-16.8095405">
        <ele>901.37329</ele>
        <time>2009-09-22T12:11:21Z</time>
      </trkpt>
      <trkpt lat="28.28654580" lon="-16.8095839">
        <ele>901.37329</ele>
        <time>2009-09-22T12:11:24Z</time>
      </trkpt>
      <trkpt lat="28.28656560" lon="-16.8096194">
        <ele>901.37329</ele>
        <time>2009-09-22T12:11:25Z</time>
      </trkpt>
      <trkpt lat="28.28657850" lon="-16.8096476">
        <ele>901.85400</ele>
        <time>2009-09-22T12:11:26Z</time>
      </trkpt>
      <trkpt lat="28.28664880" lon="-16.8097548">
        <ele>901.85400</ele>
        <time>2009-09-22T12:11:31Z</time>
      </trkpt>
      <trkpt lat="28.28666500" lon="-16.8098289">
        <ele>901.85400</ele>
        <time>2009-09-22T12:11:34Z</time>
      </trkpt>
      <trkpt lat="28.28672800" lon="-16.8098889">
        <ele>904.25732</ele>
        <time>2009-09-22T12:11:37Z</time>
      </trkpt>
      <trkpt lat="28.28676010" lon="-16.8099496">
        <ele>906.17968</ele>
        <time>2009-09-22T12:11:40Z</time>
      </trkpt>
      <trkpt lat="28.28681510" lon="-16.8100081">
        <ele>908.10278</ele>
        <time>2009-09-22T12:11:43Z</time>
      </trkpt>
      <trkpt lat="28.28686450" lon="-16.8100630">
        <ele>908.58325</ele>
        <time>2009-09-22T12:11:45Z</time>
      </trkpt>
      <trkpt lat="28.28690850" lon="-16.8101506">
        <ele>909.06396</ele>
        <time>2009-09-22T12:11:49Z</time>
      </trkpt>
      <trkpt lat="28.28693260" lon="-16.8102330">
        <ele>909.54467</ele>
        <time>2009-09-22T12:11:52Z</time>
      </trkpt>
      <trkpt lat="28.28696850" lon="-16.8102546">
        <ele>910.02514</ele>
        <time>2009-09-22T12:11:54Z</time>
      </trkpt>
      <trkpt lat="28.28697570" lon="-16.8102987">
        <ele>912.42846</ele>
        <time>2009-09-22T12:11:55Z</time>
      </trkpt>
      <trkpt lat="28.28697410" lon="-16.8103319">
        <ele>912.42846</ele>
        <time>2009-09-22T12:11:56Z</time>
      </trkpt>
      <trkpt lat="28.28697970" lon="-16.8103515">
        <ele>912.90917</ele>
        <time>2009-09-22T12:11:57Z</time>
      </trkpt>
      <trkpt lat="28.28697320" lon="-16.8104025">
        <ele>913.38989</ele>
        <time>2009-09-22T12:11:59Z</time>
      </trkpt>
      <trkpt lat="28.28697940" lon="-16.8104537">
        <ele>913.87036</ele>
        <time>2009-09-22T12:12:01Z</time>
      </trkpt>
      <trkpt lat="28.28699230" lon="-16.8104930">
        <ele>914.83178</ele>
        <time>2009-09-22T12:12:02Z</time>
      </trkpt>
      <trkpt lat="28.28701300" lon="-16.8105074">
        <ele>914.83178</ele>
        <time>2009-09-22T12:12:03Z</time>
      </trkpt>
      <trkpt lat="28.28703520" lon="-16.8105883">
        <ele>914.83178</ele>
        <time>2009-09-22T12:12:06Z</time>
      </trkpt>
      <trkpt lat="28.28708400" lon="-16.8106266">
        <ele>913.87036</ele>
        <time>2009-09-22T12:12:09Z</time>
      </trkpt>
      <trkpt lat="28.28709230" lon="-16.8106370">
        <ele>913.87036</ele>
        <time>2009-09-22T12:12:09Z</time>
      </trkpt>
      <trkpt lat="28.28711450" lon="-16.8106603">
        <ele>913.38989</ele>
        <time>2009-09-22T12:12:10Z</time>
      </trkpt>
      <trkpt lat="28.28713640" lon="-16.8106784">
        <ele>912.90917</ele>
        <time>2009-09-22T12:12:11Z</time>
      </trkpt>
      <trkpt lat="28.28713540" lon="-16.8106872">
        <ele>911.46728</ele>
        <time>2009-09-22T12:12:12Z</time>
      </trkpt>
      <trkpt lat="28.28716320" lon="-16.8106738">
        <ele>911.46728</ele>
        <time>2009-09-22T12:12:13Z</time>
      </trkpt>
      <trkpt lat="28.28717290" lon="-16.8106759">
        <ele>911.46728</ele>
        <time>2009-09-22T12:12:13Z</time>
      </trkpt>
      <trkpt lat="28.28724460" lon="-16.8106997">
        <ele>911.94799</ele>
        <time>2009-09-22T12:12:16Z</time>
      </trkpt>
      <trkpt lat="28.28730660" lon="-16.8107326">
        <ele>911.94799</ele>
        <time>2009-09-22T12:12:19Z</time>
      </trkpt>
      <trkpt lat="28.28738250" lon="-16.8107824">
        <ele>911.94799</ele>
        <time>2009-09-22T12:12:22Z</time>
      </trkpt>
      <trkpt lat="28.28742290" lon="-16.8108212">
        <ele>912.42846</ele>
        <time>2009-09-22T12:12:25Z</time>
      </trkpt>
      <trkpt lat="28.28748190" lon="-16.8108601">
        <ele>911.94799</ele>
        <time>2009-09-22T12:12:27Z</time>
      </trkpt>
      <trkpt lat="28.28753530" lon="-16.8108968">
        <ele>910.98657</ele>
        <time>2009-09-22T12:12:30Z</time>
      </trkpt>
      <trkpt lat="28.28763000" lon="-16.8109452">
        <ele>909.06396</ele>
        <time>2009-09-22T12:12:34Z</time>
      </trkpt>
      <trkpt lat="28.28770460" lon="-16.8109798">
        <ele>909.06396</ele>
        <time>2009-09-22T12:12:37Z</time>
      </trkpt>
      <trkpt lat="28.28776830" lon="-16.8110027">
        <ele>909.54467</ele>
        <time>2009-09-22T12:12:40Z</time>
      </trkpt>
      <trkpt lat="28.28786480" lon="-16.8110577">
        <ele>910.50585</ele>
        <time>2009-09-22T12:12:44Z</time>
      </trkpt>
      <trkpt lat="28.28787770" lon="-16.8110600">
        <ele>910.50585</ele>
        <time>2009-09-22T12:12:45Z</time>
      </trkpt>
      <trkpt lat="28.28792870" lon="-16.8111106">
        <ele>910.98657</ele>
        <time>2009-09-22T12:12:47Z</time>
      </trkpt>
      <trkpt lat="28.28795470" lon="-16.8111424">
        <ele>911.46728</ele>
        <time>2009-09-22T12:12:49Z</time>
      </trkpt>
      <trkpt lat="28.28799840" lon="-16.8111782">
        <ele>913.38989</ele>
        <time>2009-09-22T12:12:51Z</time>
      </trkpt>
      <trkpt lat="28.28803500" lon="-16.8112126">
        <ele>913.87036</ele>
        <time>2009-09-22T12:12:53Z</time>
      </trkpt>
      <trkpt lat="28.28807720" lon="-16.8112551">
        <ele>914.83178</ele>
        <time>2009-09-22T12:12:55Z</time>
      </trkpt>
      <trkpt lat="28.28811750" lon="-16.8112767">
        <ele>915.31250</ele>
        <time>2009-09-22T12:12:57Z</time>
      </trkpt>
      <trkpt lat="28.28817530" lon="-16.8113032">
        <ele>915.79321</ele>
        <time>2009-09-22T12:13:00Z</time>
      </trkpt>
      <trkpt lat="28.28822830" lon="-16.8113187">
        <ele>916.27368</ele>
        <time>2009-09-22T12:13:02Z</time>
      </trkpt>
      <trkpt lat="28.28829150" lon="-16.8113648">
        <ele>915.79321</ele>
        <time>2009-09-22T12:13:05Z</time>
      </trkpt>
      <trkpt lat="28.28833120" lon="-16.8113933">
        <ele>916.75439</ele>
        <time>2009-09-22T12:13:07Z</time>
      </trkpt>
      <trkpt lat="28.28836340" lon="-16.8114257">
        <ele>916.75439</ele>
        <time>2009-09-22T12:13:08Z</time>
      </trkpt>
      <trkpt lat="28.28839810" lon="-16.8114678">
        <ele>916.75439</ele>
        <time>2009-09-22T12:13:10Z</time>
      </trkpt>
      <trkpt lat="28.28842340" lon="-16.8115471">
        <ele>916.27368</ele>
        <time>2009-09-22T12:13:13Z</time>
      </trkpt>
      <trkpt lat="28.28845570" lon="-16.8116072">
        <ele>916.27368</ele>
        <time>2009-09-22T12:13:16Z</time>
      </trkpt>
      <trkpt lat="28.28846350" lon="-16.8116222">
        <ele>916.75439</ele>
        <time>2009-09-22T12:13:16Z</time>
      </trkpt>
      <trkpt lat="28.28848070" lon="-16.8116803">
        <ele>916.75439</ele>
        <time>2009-09-22T12:13:19Z</time>
      </trkpt>
      <trkpt lat="28.28858460" lon="-16.8117321">
        <ele>917.71557</ele>
        <time>2009-09-22T12:13:23Z</time>
      </trkpt>
      <trkpt lat="28.28865270" lon="-16.8117630">
        <ele>918.19628</ele>
        <time>2009-09-22T12:13:26Z</time>
      </trkpt>
      <trkpt lat="28.28871920" lon="-16.8118086">
        <ele>918.67700</ele>
        <time>2009-09-22T12:13:29Z</time>
      </trkpt>
      <trkpt lat="28.28878350" lon="-16.8118672">
        <ele>918.19628</ele>
        <time>2009-09-22T12:13:33Z</time>
      </trkpt>
      <trkpt lat="28.28882930" lon="-16.8119154">
        <ele>918.67700</ele>
        <time>2009-09-22T12:13:35Z</time>
      </trkpt>
      <trkpt lat="28.28884880" lon="-16.8119434">
        <ele>919.15771</ele>
        <time>2009-09-22T12:13:36Z</time>
      </trkpt>
      <trkpt lat="28.28887900" lon="-16.8120050">
        <ele>920.59960</ele>
        <time>2009-09-22T12:13:39Z</time>
      </trkpt>
      <trkpt lat="28.28888180" lon="-16.8120149">
        <ele>920.59960</ele>
        <time>2009-09-22T12:13:39Z</time>
      </trkpt>
      <trkpt lat="28.28890950" lon="-16.8120495">
        <ele>921.08032</ele>
        <time>2009-09-22T12:13:41Z</time>
      </trkpt>
      <trkpt lat="28.28896490" lon="-16.8121009">
        <ele>921.56079</ele>
        <time>2009-09-22T12:13:44Z</time>
      </trkpt>
      <trkpt lat="28.28898510" lon="-16.8121200">
        <ele>921.56079</ele>
        <time>2009-09-22T12:13:45Z</time>
      </trkpt>
      <trkpt lat="28.28903620" lon="-16.8121858">
        <ele>920.11889</ele>
        <time>2009-09-22T12:13:48Z</time>
      </trkpt>
      <trkpt lat="28.28909340" lon="-16.8122787">
        <ele>920.59960</ele>
        <time>2009-09-22T12:13:52Z</time>
      </trkpt>
      <trkpt lat="28.28913680" lon="-16.8123205">
        <ele>921.08032</ele>
        <time>2009-09-22T12:13:54Z</time>
      </trkpt>
      <trkpt lat="28.28916590" lon="-16.8123958">
        <ele>921.08032</ele>
        <time>2009-09-22T12:13:57Z</time>
      </trkpt>
      <trkpt lat="28.28917070" lon="-16.8124188">
        <ele>921.08032</ele>
        <time>2009-09-22T12:13:58Z</time>
      </trkpt>
      <trkpt lat="28.28920480" lon="-16.8124916">
        <ele>920.11889</ele>
        <time>2009-09-22T12:14:01Z</time>
      </trkpt>
      <trkpt lat="28.28923480" lon="-16.8125159">
        <ele>920.11889</ele>
        <time>2009-09-22T12:14:02Z</time>
      </trkpt>
      <trkpt lat="28.28925250" lon="-16.8125356">
        <ele>920.59960</ele>
        <time>2009-09-22T12:14:03Z</time>
      </trkpt>
      <trkpt lat="28.28932630" lon="-16.8126183">
        <ele>921.56079</ele>
        <time>2009-09-22T12:14:07Z</time>
      </trkpt>
      <trkpt lat="28.28935950" lon="-16.8126892">
        <ele>921.08032</ele>
        <time>2009-09-22T12:14:10Z</time>
      </trkpt>
      <trkpt lat="28.28941810" lon="-16.8127399">
        <ele>919.15771</ele>
        <time>2009-09-22T12:14:13Z</time>
      </trkpt>
      <trkpt lat="28.28950090" lon="-16.8127154">
        <ele>919.63842</ele>
        <time>2009-09-22T12:14:17Z</time>
      </trkpt>
      <trkpt lat="28.28954030" lon="-16.8127024">
        <ele>920.11889</ele>
        <time>2009-09-22T12:14:18Z</time>
      </trkpt>
      <trkpt lat="28.28961490" lon="-16.8126671">
        <ele>920.59960</ele>
        <time>2009-09-22T12:14:21Z</time>
      </trkpt>
      <trkpt lat="28.28970570" lon="-16.8126385">
        <ele>922.04150</ele>
        <time>2009-09-22T12:14:25Z</time>
      </trkpt>
      <trkpt lat="28.28974820" lon="-16.8126244">
        <ele>922.52221</ele>
        <time>2009-09-22T12:14:27Z</time>
      </trkpt>
      <trkpt lat="28.28978070" lon="-16.8126351">
        <ele>923.48364</ele>
        <time>2009-09-22T12:14:28Z</time>
      </trkpt>
      <trkpt lat="28.28983190" lon="-16.8126602">
        <ele>923.00292</ele>
        <time>2009-09-22T12:14:31Z</time>
      </trkpt>
      <trkpt lat="28.28988780" lon="-16.8126966">
        <ele>923.00292</ele>
        <time>2009-09-22T12:14:33Z</time>
      </trkpt>
      <trkpt lat="28.28993840" lon="-16.8127125">
        <ele>922.52221</ele>
        <time>2009-09-22T12:14:35Z</time>
      </trkpt>
      <trkpt lat="28.29002420" lon="-16.8126752">
        <ele>922.04150</ele>
        <time>2009-09-22T12:14:39Z</time>
      </trkpt>
      <trkpt lat="28.29012800" lon="-16.8126299">
        <ele>921.08032</ele>
        <time>2009-09-22T12:14:43Z</time>
      </trkpt>
      <trkpt lat="28.29014020" lon="-16.8126298">
        <ele>921.08032</ele>
        <time>2009-09-22T12:14:44Z</time>
      </trkpt>
      <trkpt lat="28.29022620" lon="-16.8126717">
        <ele>919.63842</ele>
        <time>2009-09-22T12:14:48Z</time>
      </trkpt>
      <trkpt lat="28.29024160" lon="-16.8126883">
        <ele>919.63842</ele>
        <time>2009-09-22T12:14:48Z</time>
      </trkpt>
      <trkpt lat="28.29030460" lon="-16.8126882">
        <ele>921.56079</ele>
        <time>2009-09-22T12:14:51Z</time>
      </trkpt>
      <trkpt lat="28.29035580" lon="-16.8126470">
        <ele>922.04150</ele>
        <time>2009-09-22T12:14:53Z</time>
      </trkpt>
      <trkpt lat="28.29040370" lon="-16.8126319">
        <ele>922.52221</ele>
        <time>2009-09-22T12:14:55Z</time>
      </trkpt>
      <trkpt lat="28.29041780" lon="-16.8126256">
        <ele>922.04150</ele>
        <time>2009-09-22T12:14:56Z</time>
      </trkpt>
      <trkpt lat="28.29045610" lon="-16.8126412">
        <ele>922.04150</ele>
        <time>2009-09-22T12:14:58Z</time>
      </trkpt>
      <trkpt lat="28.29052520" lon="-16.8126651">
        <ele>921.08032</ele>
        <time>2009-09-22T12:15:01Z</time>
      </trkpt>
      <trkpt lat="28.29057010" lon="-16.8126843">
        <ele>921.56079</ele>
        <time>2009-09-22T12:15:03Z</time>
      </trkpt>
      <trkpt lat="28.29063980" lon="-16.8126665">
        <ele>922.52221</ele>
        <time>2009-09-22T12:15:05Z</time>
      </trkpt>
      <trkpt lat="28.29071800" lon="-16.8126402">
        <ele>923.00292</ele>
        <time>2009-09-22T12:15:09Z</time>
      </trkpt>
      <trkpt lat="28.29082280" lon="-16.8126526">
        <ele>923.48364</ele>
        <time>2009-09-22T12:15:13Z</time>
      </trkpt>
      <trkpt lat="28.29087470" lon="-16.8126377">
        <ele>925.40625</ele>
        <time>2009-09-22T12:15:15Z</time>
      </trkpt>
      <trkpt lat="28.29089500" lon="-16.8126117">
        <ele>925.40625</ele>
        <time>2009-09-22T12:15:16Z</time>
      </trkpt>
      <trkpt lat="28.29095200" lon="-16.8125655">
        <ele>926.84838</ele>
        <time>2009-09-22T12:15:19Z</time>
      </trkpt>
      <trkpt lat="28.29099720" lon="-16.8125142">
        <ele>928.29028</ele>
        <time>2009-09-22T12:15:22Z</time>
      </trkpt>
      <trkpt lat="28.29103990" lon="-16.8124760">
        <ele>928.77099</ele>
        <time>2009-09-22T12:15:24Z</time>
      </trkpt>
      <trkpt lat="28.29110910" lon="-16.8124051">
        <ele>930.21289</ele>
        <time>2009-09-22T12:15:27Z</time>
      </trkpt>
      <trkpt lat="28.29118920" lon="-16.8123408">
        <ele>930.21289</ele>
        <time>2009-09-22T12:15:31Z</time>
      </trkpt>
      <trkpt lat="28.29123260" lon="-16.8122998">
        <ele>931.17431</ele>
        <time>2009-09-22T12:15:34Z</time>
      </trkpt>
      <trkpt lat="28.29128180" lon="-16.8122610">
        <ele>931.65478</ele>
        <time>2009-09-22T12:15:36Z</time>
      </trkpt>
      <trkpt lat="28.29136780" lon="-16.8122092">
        <ele>931.65478</ele>
        <time>2009-09-22T12:15:40Z</time>
      </trkpt>
      <trkpt lat="28.29144600" lon="-16.8121525">
        <ele>932.13549</ele>
        <time>2009-09-22T12:15:44Z</time>
      </trkpt>
      <trkpt lat="28.29151500" lon="-16.8121217">
        <ele>933.57739</ele>
        <time>2009-09-22T12:15:47Z</time>
      </trkpt>
      <trkpt lat="28.29157470" lon="-16.8120967">
        <ele>935.01953</ele>
        <time>2009-09-22T12:15:49Z</time>
      </trkpt>
      <trkpt lat="28.29165840" lon="-16.8120693">
        <ele>935.50000</ele>
        <time>2009-09-22T12:15:53Z</time>
      </trkpt>
      <trkpt lat="28.29172390" lon="-16.8120447">
        <ele>935.50000</ele>
        <time>2009-09-22T12:15:55Z</time>
      </trkpt>
      <trkpt lat="28.29177290" lon="-16.8120328">
        <ele>935.01953</ele>
        <time>2009-09-22T12:15:57Z</time>
      </trkpt>
      <trkpt lat="28.29181690" lon="-16.8120191">
        <ele>935.01953</ele>
        <time>2009-09-22T12:15:59Z</time>
      </trkpt>
      <trkpt lat="28.29186150" lon="-16.8119933">
        <ele>935.50000</ele>
        <time>2009-09-22T12:16:01Z</time>
      </trkpt>
      <trkpt lat="28.29189720" lon="-16.8119624">
        <ele>936.46142</ele>
        <time>2009-09-22T12:16:03Z</time>
      </trkpt>
      <trkpt lat="28.29193260" lon="-16.8119149">
        <ele>938.38403</ele>
        <time>2009-09-22T12:16:05Z</time>
      </trkpt>
      <trkpt lat="28.29199090" lon="-16.8118880">
        <ele>939.82592</ele>
        <time>2009-09-22T12:16:08Z</time>
      </trkpt>
      <trkpt lat="28.29205120" lon="-16.8118513">
        <ele>941.26806</ele>
        <time>2009-09-22T12:16:11Z</time>
      </trkpt>
      <trkpt lat="28.29206680" lon="-16.8118460">
        <ele>940.30688</ele>
        <time>2009-09-22T12:16:11Z</time>
      </trkpt>
      <trkpt lat="28.29211550" lon="-16.8118181">
        <ele>940.78735</ele>
        <time>2009-09-22T12:16:13Z</time>
      </trkpt>
      <trkpt lat="28.29215800" lon="-16.8117881">
        <ele>940.78735</ele>
        <time>2009-09-22T12:16:15Z</time>
      </trkpt>
      <trkpt lat="28.29218240" lon="-16.8117658">
        <ele>940.30688</ele>
        <time>2009-09-22T12:16:17Z</time>
      </trkpt>
      <trkpt lat="28.29221760" lon="-16.8117317">
        <ele>940.30688</ele>
        <time>2009-09-22T12:16:18Z</time>
      </trkpt>
      <trkpt lat="28.29223720" lon="-16.8117040">
        <ele>939.34521</ele>
        <time>2009-09-22T12:16:20Z</time>
      </trkpt>
      <trkpt lat="28.29224220" lon="-16.8116963">
        <ele>939.34521</ele>
        <time>2009-09-22T12:16:20Z</time>
      </trkpt>
      <trkpt lat="28.29224370" lon="-16.8117011">
        <ele>936.94189</ele>
        <time>2009-09-22T12:16:20Z</time>
      </trkpt>
      <trkpt lat="28.29224590" lon="-16.8116912">
        <ele>935.50000</ele>
        <time>2009-09-22T12:16:21Z</time>
      </trkpt>
      <trkpt lat="28.29227890" lon="-16.8116656">
        <ele>935.01953</ele>
        <time>2009-09-22T12:16:22Z</time>
      </trkpt>
      <trkpt lat="28.29231330" lon="-16.8116361">
        <ele>936.46142</ele>
        <time>2009-09-22T12:16:24Z</time>
      </trkpt>
      <trkpt lat="28.29230150" lon="-16.8116471">
        <ele>938.38403</ele>
        <time>2009-09-22T12:16:25Z</time>
      </trkpt>
      <trkpt lat="28.29231640" lon="-16.8116039">
        <ele>939.34521</ele>
        <time>2009-09-22T12:16:26Z</time>
      </trkpt>
      <trkpt lat="28.29232210" lon="-16.8115802">
        <ele>939.82592</ele>
        <time>2009-09-22T12:16:27Z</time>
      </trkpt>
      <trkpt lat="28.29235840" lon="-16.8114936">
        <ele>939.34521</ele>
        <time>2009-09-22T12:16:30Z</time>
      </trkpt>
      <trkpt lat="28.29239210" lon="-16.8113918">
        <ele>939.34521</ele>
        <time>2009-09-22T12:16:34Z</time>
      </trkpt>
      <trkpt lat="28.29239370" lon="-16.8113803">
        <ele>939.34521</ele>
        <time>2009-09-22T12:16:35Z</time>
      </trkpt>
      <trkpt lat="28.29242890" lon="-16.8112954">
        <ele>939.82592</ele>
        <time>2009-09-22T12:16:38Z</time>
      </trkpt>
      <trkpt lat="28.29244760" lon="-16.8112551">
        <ele>940.30688</ele>
        <time>2009-09-22T12:16:40Z</time>
      </trkpt>
      <trkpt lat="28.29246570" lon="-16.8111617">
        <ele>939.82592</ele>
        <time>2009-09-22T12:16:43Z</time>
      </trkpt>
      <trkpt lat="28.29248530" lon="-16.8110856">
        <ele>940.30688</ele>
        <time>2009-09-22T12:16:46Z</time>
      </trkpt>
      <trkpt lat="28.29250910" lon="-16.8110207">
        <ele>941.26806</ele>
        <time>2009-09-22T12:16:48Z</time>
      </trkpt>
      <trkpt lat="28.29253250" lon="-16.8109607">
        <ele>942.22949</ele>
        <time>2009-09-22T12:16:51Z</time>
      </trkpt>
      <trkpt lat="28.29255260" lon="-16.8108888">
        <ele>942.22949</ele>
        <time>2009-09-22T12:16:53Z</time>
      </trkpt>
      <trkpt lat="28.29257870" lon="-16.8108207">
        <ele>942.71020</ele>
        <time>2009-09-22T12:16:56Z</time>
      </trkpt>
      <trkpt lat="28.29258460" lon="-16.8107862">
        <ele>942.71020</ele>
        <time>2009-09-22T12:16:57Z</time>
      </trkpt>
      <trkpt lat="28.29260380" lon="-16.8107064">
        <ele>944.63256</ele>
        <time>2009-09-22T12:17:00Z</time>
      </trkpt>
      <trkpt lat="28.29264590" lon="-16.8106309">
        <ele>946.55541</ele>
        <time>2009-09-22T12:17:03Z</time>
      </trkpt>
      <trkpt lat="28.29267570" lon="-16.8105726">
        <ele>947.51660</ele>
        <time>2009-09-22T12:17:05Z</time>
      </trkpt>
      <trkpt lat="28.29273300" lon="-16.8105065">
        <ele>948.47778</ele>
        <time>2009-09-22T12:17:09Z</time>
      </trkpt>
      <trkpt lat="28.29277970" lon="-16.8104244">
        <ele>949.43920</ele>
        <time>2009-09-22T12:17:12Z</time>
      </trkpt>
      <trkpt lat="28.29282390" lon="-16.8103656">
        <ele>949.91992</ele>
        <time>2009-09-22T12:17:15Z</time>
      </trkpt>
      <trkpt lat="28.29284670" lon="-16.8103400">
        <ele>950.88110</ele>
        <time>2009-09-22T12:17:16Z</time>
      </trkpt>
      <trkpt lat="28.29287000" lon="-16.8102873">
        <ele>951.36181</ele>
        <time>2009-09-22T12:17:18Z</time>
      </trkpt>
      <trkpt lat="28.29293730" lon="-16.8102485">
        <ele>951.84252</ele>
        <time>2009-09-22T12:17:21Z</time>
      </trkpt>
      <trkpt lat="28.29301610" lon="-16.8102004">
        <ele>951.84252</ele>
        <time>2009-09-22T12:17:25Z</time>
      </trkpt>
      <trkpt lat="28.29310850" lon="-16.8102123">
        <ele>951.36181</ele>
        <time>2009-09-22T12:17:29Z</time>
      </trkpt>
      <trkpt lat="28.29317610" lon="-16.8102221">
        <ele>950.88110</ele>
        <time>2009-09-22T12:17:31Z</time>
      </trkpt>
      <trkpt lat="28.29327220" lon="-16.8102309">
        <ele>950.88110</ele>
        <time>2009-09-22T12:17:35Z</time>
      </trkpt>
      <trkpt lat="28.29333850" lon="-16.8102421">
        <ele>949.91992</ele>
        <time>2009-09-22T12:17:38Z</time>
      </trkpt>
      <trkpt lat="28.29340380" lon="-16.8102543">
        <ele>949.43920</ele>
        <time>2009-09-22T12:17:41Z</time>
      </trkpt>
      <trkpt lat="28.29341770" lon="-16.8102543">
        <ele>949.43920</ele>
        <time>2009-09-22T12:17:41Z</time>
      </trkpt>
      <trkpt lat="28.29349390" lon="-16.8102770">
        <ele>949.43920</ele>
        <time>2009-09-22T12:17:44Z</time>
      </trkpt>
      <trkpt lat="28.29352130" lon="-16.8102863">
        <ele>949.43920</ele>
        <time>2009-09-22T12:17:45Z</time>
      </trkpt>
      <trkpt lat="28.29361370" lon="-16.8103193">
        <ele>949.43920</ele>
        <time>2009-09-22T12:17:49Z</time>
      </trkpt>
      <trkpt lat="28.29370000" lon="-16.8103470">
        <ele>949.43920</ele>
        <time>2009-09-22T12:17:53Z</time>
      </trkpt>
      <trkpt lat="28.29381070" lon="-16.8103821">
        <ele>949.43920</ele>
        <time>2009-09-22T12:17:57Z</time>
      </trkpt>
      <trkpt lat="28.29389070" lon="-16.8104050">
        <ele>949.43920</ele>
        <time>2009-09-22T12:18:01Z</time>
      </trkpt>
      <trkpt lat="28.29395090" lon="-16.8104385">
        <ele>947.99731</ele>
        <time>2009-09-22T12:18:03Z</time>
      </trkpt>
      <trkpt lat="28.29402320" lon="-16.8104410">
        <ele>947.51660</ele>
        <time>2009-09-22T12:18:06Z</time>
      </trkpt>
      <trkpt lat="28.29409520" lon="-16.8104478">
        <ele>948.95849</ele>
        <time>2009-09-22T12:18:09Z</time>
      </trkpt>
      <trkpt lat="28.29419830" lon="-16.8104686">
        <ele>950.40063</ele>
        <time>2009-09-22T12:18:13Z</time>
      </trkpt>
      <trkpt lat="28.29429040" lon="-16.8105002">
        <ele>950.88110</ele>
        <time>2009-09-22T12:18:17Z</time>
      </trkpt>
      <trkpt lat="28.29437800" lon="-16.8105465">
        <ele>951.84252</ele>
        <time>2009-09-22T12:18:21Z</time>
      </trkpt>
      <trkpt lat="28.29447190" lon="-16.8105997">
        <ele>952.32299</ele>
        <time>2009-09-22T12:18:25Z</time>
      </trkpt>
      <trkpt lat="28.29453050" lon="-16.8106405">
        <ele>951.84252</ele>
        <time>2009-09-22T12:18:28Z</time>
      </trkpt>
      <trkpt lat="28.29466400" lon="-16.8106964">
        <ele>951.36181</ele>
        <time>2009-09-22T12:18:34Z</time>
      </trkpt>
      <trkpt lat="28.29475810" lon="-16.8107381">
        <ele>951.36181</ele>
        <time>2009-09-22T12:18:38Z</time>
      </trkpt>
      <trkpt lat="28.29485240" lon="-16.8107769">
        <ele>951.84252</ele>
        <time>2009-09-22T12:18:42Z</time>
      </trkpt>
      <trkpt lat="28.29494240" lon="-16.8108183">
        <ele>952.32299</ele>
        <time>2009-09-22T12:18:46Z</time>
      </trkpt>
      <trkpt lat="28.29505050" lon="-16.8108566">
        <ele>950.88110</ele>
        <time>2009-09-22T12:18:50Z</time>
      </trkpt>
      <trkpt lat="28.29516190" lon="-16.8108971">
        <ele>951.84252</ele>
        <time>2009-09-22T12:18:55Z</time>
      </trkpt>
      <trkpt lat="28.29524090" lon="-16.8109347">
        <ele>951.84252</ele>
        <time>2009-09-22T12:18:58Z</time>
      </trkpt>
      <trkpt lat="28.29531880" lon="-16.8109844">
        <ele>952.32299</ele>
        <time>2009-09-22T12:19:02Z</time>
      </trkpt>
      <trkpt lat="28.29541470" lon="-16.8110689">
        <ele>952.32299</ele>
        <time>2009-09-22T12:19:07Z</time>
      </trkpt>
      <trkpt lat="28.29550230" lon="-16.8111458">
        <ele>953.28442</ele>
        <time>2009-09-22T12:19:11Z</time>
      </trkpt>
      <trkpt lat="28.29553890" lon="-16.8111721">
        <ele>952.80371</ele>
        <time>2009-09-22T12:19:13Z</time>
      </trkpt>
      <trkpt lat="28.29562190" lon="-16.8112339">
        <ele>951.36181</ele>
        <time>2009-09-22T12:19:17Z</time>
      </trkpt>
      <trkpt lat="28.29574100" lon="-16.8113020">
        <ele>947.99731</ele>
        <time>2009-09-22T12:19:22Z</time>
      </trkpt>
      <trkpt lat="28.29586360" lon="-16.8113710">
        <ele>945.11328</ele>
        <time>2009-09-22T12:19:28Z</time>
      </trkpt>
      <trkpt lat="28.29590210" lon="-16.8113953">
        <ele>944.63256</ele>
        <time>2009-09-22T12:19:30Z</time>
      </trkpt>
      <trkpt lat="28.29597500" lon="-16.8114775">
        <ele>942.71020</ele>
        <time>2009-09-22T12:19:34Z</time>
      </trkpt>
      <trkpt lat="28.29603900" lon="-16.8115939">
        <ele>944.15209</ele>
        <time>2009-09-22T12:19:38Z</time>
      </trkpt>
      <trkpt lat="28.29607750" lon="-16.8116941">
        <ele>946.07470</ele>
        <time>2009-09-22T12:19:42Z</time>
      </trkpt>
      <trkpt lat="28.29610350" lon="-16.8117855">
        <ele>947.51660</ele>
        <time>2009-09-22T12:19:46Z</time>
      </trkpt>
      <trkpt lat="28.29611490" lon="-16.8118771">
        <ele>949.91992</ele>
        <time>2009-09-22T12:19:49Z</time>
      </trkpt>
      <trkpt lat="28.29612740" lon="-16.8119613">
        <ele>951.84252</ele>
        <time>2009-09-22T12:19:52Z</time>
      </trkpt>
      <trkpt lat="28.29612760" lon="-16.8120544">
        <ele>954.24584</ele>
        <time>2009-09-22T12:19:55Z</time>
      </trkpt>
      <trkpt lat="28.29613730" lon="-16.8122009">
        <ele>955.68774</ele>
        <time>2009-09-22T12:20:00Z</time>
      </trkpt>
      <trkpt lat="28.29614760" lon="-16.8123205">
        <ele>956.64916</ele>
        <time>2009-09-22T12:20:05Z</time>
      </trkpt>
      <trkpt lat="28.29615880" lon="-16.8124037">
        <ele>957.12988</ele>
        <time>2009-09-22T12:20:08Z</time>
      </trkpt>
      <trkpt lat="28.29616510" lon="-16.8124867">
        <ele>955.68774</ele>
        <time>2009-09-22T12:20:11Z</time>
      </trkpt>
      <trkpt lat="28.29618940" lon="-16.8126416">
        <ele>956.64916</ele>
        <time>2009-09-22T12:20:16Z</time>
      </trkpt>
      <trkpt lat="28.29620720" lon="-16.8127287">
        <ele>955.68774</ele>
        <time>2009-09-22T12:20:19Z</time>
      </trkpt>
      <trkpt lat="28.29620730" lon="-16.8127473">
        <ele>955.68774</ele>
        <time>2009-09-22T12:20:20Z</time>
      </trkpt>
      <trkpt lat="28.29625940" lon="-16.8128732">
        <ele>953.28442</ele>
        <time>2009-09-22T12:20:25Z</time>
      </trkpt>
      <trkpt lat="28.29628540" lon="-16.8129352">
        <ele>951.84252</ele>
        <time>2009-09-22T12:20:27Z</time>
      </trkpt>
      <trkpt lat="28.29630750" lon="-16.8130467">
        <ele>952.32299</ele>
        <time>2009-09-22T12:20:31Z</time>
      </trkpt>
      <trkpt lat="28.29632840" lon="-16.8131322">
        <ele>953.76513</ele>
        <time>2009-09-22T12:20:34Z</time>
      </trkpt>
      <trkpt lat="28.29635900" lon="-16.8132135">
        <ele>954.24584</ele>
        <time>2009-09-22T12:20:38Z</time>
      </trkpt>
      <trkpt lat="28.29642890" lon="-16.8133000">
        <ele>955.68774</ele>
        <time>2009-09-22T12:20:42Z</time>
      </trkpt>
      <trkpt lat="28.29648670" lon="-16.8133892">
        <ele>953.76513</ele>
        <time>2009-09-22T12:20:46Z</time>
      </trkpt>
      <trkpt lat="28.29649470" lon="-16.8134042">
        <ele>953.28442</ele>
        <time>2009-09-22T12:20:46Z</time>
      </trkpt>
      <trkpt lat="28.29652380" lon="-16.8134829">
        <ele>953.28442</ele>
        <time>2009-09-22T12:20:49Z</time>
      </trkpt>
      <trkpt lat="28.29654650" lon="-16.8135047">
        <ele>953.28442</ele>
        <time>2009-09-22T12:20:50Z</time>
      </trkpt>
      <trkpt lat="28.29662060" lon="-16.8136413">
        <ele>953.76513</ele>
        <time>2009-09-22T12:20:56Z</time>
      </trkpt>
      <trkpt lat="28.29667070" lon="-16.8137600">
        <ele>950.88110</ele>
        <time>2009-09-22T12:21:01Z</time>
      </trkpt>
      <trkpt lat="28.29669840" lon="-16.8138876">
        <ele>949.43920</ele>
        <time>2009-09-22T12:21:05Z</time>
      </trkpt>
      <trkpt lat="28.29671020" lon="-16.8139891">
        <ele>948.95849</ele>
        <time>2009-09-22T12:21:09Z</time>
      </trkpt>
      <trkpt lat="28.29673980" lon="-16.8140782">
        <ele>951.36181</ele>
        <time>2009-09-22T12:21:12Z</time>
      </trkpt>
      <trkpt lat="28.29678850" lon="-16.8142392">
        <ele>954.24584</ele>
        <time>2009-09-22T12:21:18Z</time>
      </trkpt>
      <trkpt lat="28.29682310" lon="-16.8143512">
        <ele>953.76513</ele>
        <time>2009-09-22T12:21:22Z</time>
      </trkpt>
      <trkpt lat="28.29686990" lon="-16.8144890">
        <ele>952.32299</ele>
        <time>2009-09-22T12:21:28Z</time>
      </trkpt>
      <trkpt lat="28.29688430" lon="-16.8145314">
        <ele>951.84252</ele>
        <time>2009-09-22T12:21:29Z</time>
      </trkpt>
      <trkpt lat="28.29687130" lon="-16.8145925">
        <ele>952.32299</ele>
        <time>2009-09-22T12:21:32Z</time>
      </trkpt>
      <trkpt lat="28.29682050" lon="-16.8147143">
        <ele>954.24584</ele>
        <time>2009-09-22T12:21:36Z</time>
      </trkpt>
      <trkpt lat="28.29674320" lon="-16.8148894">
        <ele>952.32299</ele>
        <time>2009-09-22T12:21:43Z</time>
      </trkpt>
      <trkpt lat="28.29675100" lon="-16.8149694">
        <ele>949.43920</ele>
        <time>2009-09-22T12:21:46Z</time>
      </trkpt>
      <trkpt lat="28.29684180" lon="-16.8150813">
        <ele>944.63256</ele>
        <time>2009-09-22T12:21:51Z</time>
      </trkpt>
      <trkpt lat="28.29690710" lon="-16.8151414">
        <ele>944.63256</ele>
        <time>2009-09-22T12:21:55Z</time>
      </trkpt>
      <trkpt lat="28.29695140" lon="-16.8152238">
        <ele>944.15209</ele>
        <time>2009-09-22T12:21:58Z</time>
      </trkpt>
      <trkpt lat="28.29696870" lon="-16.8152508">
        <ele>944.15209</ele>
        <time>2009-09-22T12:21:59Z</time>
      </trkpt>
      <trkpt lat="28.29704170" lon="-16.8153412">
        <ele>945.59399</ele>
        <time>2009-09-22T12:22:04Z</time>
      </trkpt>
      <trkpt lat="28.29705110" lon="-16.8153565">
        <ele>945.59399</ele>
        <time>2009-09-22T12:22:04Z</time>
      </trkpt>
      <trkpt lat="28.29712080" lon="-16.8154586">
        <ele>946.55541</ele>
        <time>2009-09-22T12:22:09Z</time>
      </trkpt>
      <trkpt lat="28.29720090" lon="-16.8155595">
        <ele>948.95849</ele>
        <time>2009-09-22T12:22:14Z</time>
      </trkpt>
      <trkpt lat="28.29721570" lon="-16.8155595">
        <ele>948.95849</ele>
        <time>2009-09-22T12:22:14Z</time>
      </trkpt>
      <trkpt lat="28.29723910" lon="-16.8155774">
        <ele>948.47778</ele>
        <time>2009-09-22T12:22:15Z</time>
      </trkpt>
      <trkpt lat="28.29725150" lon="-16.8156048">
        <ele>948.95849</ele>
        <time>2009-09-22T12:22:16Z</time>
      </trkpt>
      <trkpt lat="28.29729480" lon="-16.8156943">
        <ele>949.43920</ele>
        <time>2009-09-22T12:22:20Z</time>
      </trkpt>
      <trkpt lat="28.29729880" lon="-16.8157088">
        <ele>949.43920</ele>
        <time>2009-09-22T12:22:21Z</time>
      </trkpt>
      <trkpt lat="28.29732550" lon="-16.8158058">
        <ele>949.91992</ele>
        <time>2009-09-22T12:22:24Z</time>
      </trkpt>
      <trkpt lat="28.29734980" lon="-16.8158418">
        <ele>949.91992</ele>
        <time>2009-09-22T12:22:26Z</time>
      </trkpt>
      <trkpt lat="28.29736320" lon="-16.8158512">
        <ele>948.95849</ele>
        <time>2009-09-22T12:22:26Z</time>
      </trkpt>
      <trkpt lat="28.29737290" lon="-16.8158382">
        <ele>947.51660</ele>
        <time>2009-09-22T12:22:27Z</time>
      </trkpt>
      <trkpt lat="28.29736450" lon="-16.8158388">
        <ele>947.99731</ele>
        <time>2009-09-22T12:22:27Z</time>
      </trkpt>
      <trkpt lat="28.29736250" lon="-16.8158397">
        <ele>947.99731</ele>
        <time>2009-09-22T12:22:27Z</time>
      </trkpt>
      <trkpt lat="28.29735310" lon="-16.8158369">
        <ele>947.99731</ele>
        <time>2009-09-22T12:22:28Z</time>
      </trkpt>
      <trkpt lat="28.29735930" lon="-16.8158253">
        <ele>945.59399</ele>
        <time>2009-09-22T12:22:28Z</time>
      </trkpt>
      <trkpt lat="28.29735710" lon="-16.8158264">
        <ele>946.07470</ele>
        <time>2009-09-22T12:22:28Z</time>
      </trkpt>
      <trkpt lat="28.29734740" lon="-16.8158258">
        <ele>946.55541</ele>
        <time>2009-09-22T12:22:29Z</time>
      </trkpt>
      <trkpt lat="28.29734120" lon="-16.8158290">
        <ele>946.55541</ele>
        <time>2009-09-22T12:22:29Z</time>
      </trkpt>
      <trkpt lat="28.29728770" lon="-16.8158865">
        <ele>946.07470</ele>
        <time>2009-09-22T12:22:32Z</time>
      </trkpt>
      <trkpt lat="28.29728510" lon="-16.8159031">
        <ele>947.03588</ele>
        <time>2009-09-22T12:22:33Z</time>
      </trkpt>
      <trkpt lat="28.29726130" lon="-16.8159165">
        <ele>946.55541</ele>
        <time>2009-09-22T12:22:34Z</time>
      </trkpt>
      <trkpt lat="28.29723850" lon="-16.8159379">
        <ele>946.55541</ele>
        <time>2009-09-22T12:22:35Z</time>
      </trkpt>
      <trkpt lat="28.29717380" lon="-16.8159024">
        <ele>945.11328</ele>
        <time>2009-09-22T12:22:38Z</time>
      </trkpt>
      <trkpt lat="28.29716330" lon="-16.8158958">
        <ele>944.63256</ele>
        <time>2009-09-22T12:22:38Z</time>
      </trkpt>
      <trkpt lat="28.29704480" lon="-16.8158217">
        <ele>941.26806</ele>
        <time>2009-09-22T12:22:44Z</time>
      </trkpt>
      <trkpt lat="28.29702260" lon="-16.8158051">
        <ele>941.26806</ele>
        <time>2009-09-22T12:22:45Z</time>
      </trkpt>
      <trkpt lat="28.29692860" lon="-16.8157529">
        <ele>938.86474</ele>
        <time>2009-09-22T12:22:49Z</time>
      </trkpt>
      <trkpt lat="28.29679310" lon="-16.8156788">
        <ele>937.42260</ele>
        <time>2009-09-22T12:22:55Z</time>
      </trkpt>
      <trkpt lat="28.29670280" lon="-16.8156366">
        <ele>937.90332</ele>
        <time>2009-09-22T12:22:59Z</time>
      </trkpt>
      <trkpt lat="28.29660090" lon="-16.8155814">
        <ele>937.42260</ele>
        <time>2009-09-22T12:23:03Z</time>
      </trkpt>
      <trkpt lat="28.29649320" lon="-16.8155480">
        <ele>939.34521</ele>
        <time>2009-09-22T12:23:08Z</time>
      </trkpt>
      <trkpt lat="28.29639640" lon="-16.8154561">
        <ele>938.38403</ele>
        <time>2009-09-22T12:23:13Z</time>
      </trkpt>
      <trkpt lat="28.29633100" lon="-16.8154281">
        <ele>939.34521</ele>
        <time>2009-09-22T12:23:16Z</time>
      </trkpt>
      <trkpt lat="28.29622950" lon="-16.8153878">
        <ele>939.82592</ele>
        <time>2009-09-22T12:23:20Z</time>
      </trkpt>
      <trkpt lat="28.29614340" lon="-16.8153295">
        <ele>939.34521</ele>
        <time>2009-09-22T12:23:24Z</time>
      </trkpt>
      <trkpt lat="28.29603470" lon="-16.8152690">
        <ele>939.34521</ele>
        <time>2009-09-22T12:23:29Z</time>
      </trkpt>
      <trkpt lat="28.29594930" lon="-16.8152313">
        <ele>941.74877</ele>
        <time>2009-09-22T12:23:32Z</time>
      </trkpt>
      <trkpt lat="28.29593690" lon="-16.8152244">
        <ele>941.74877</ele>
        <time>2009-09-22T12:23:33Z</time>
      </trkpt>
      <trkpt lat="28.29586580" lon="-16.8151893">
        <ele>943.67138</ele>
        <time>2009-09-22T12:23:36Z</time>
      </trkpt>
      <trkpt lat="28.29575430" lon="-16.8151233">
        <ele>942.71020</ele>
        <time>2009-09-22T12:23:41Z</time>
      </trkpt>
      <trkpt lat="28.29566600" lon="-16.8150717">
        <ele>942.71020</ele>
        <time>2009-09-22T12:23:45Z</time>
      </trkpt>
      <trkpt lat="28.29558240" lon="-16.8150504">
        <ele>941.26806</ele>
        <time>2009-09-22T12:23:49Z</time>
      </trkpt>
      <trkpt lat="28.29546690" lon="-16.8150473">
        <ele>940.30688</ele>
        <time>2009-09-22T12:23:53Z</time>
      </trkpt>
      <trkpt lat="28.29537830" lon="-16.8150701">
        <ele>942.22949</ele>
        <time>2009-09-22T12:23:57Z</time>
      </trkpt>
      <trkpt lat="28.29529860" lon="-16.8150774">
        <ele>941.74877</ele>
        <time>2009-09-22T12:24:00Z</time>
      </trkpt>
      <trkpt lat="28.29520650" lon="-16.8150769">
        <ele>940.30688</ele>
        <time>2009-09-22T12:24:04Z</time>
      </trkpt>
      <trkpt lat="28.29511270" lon="-16.8150836">
        <ele>940.78735</ele>
        <time>2009-09-22T12:24:07Z</time>
      </trkpt>
      <trkpt lat="28.29498810" lon="-16.8150953">
        <ele>942.22949</ele>
        <time>2009-09-22T12:24:12Z</time>
      </trkpt>
      <trkpt lat="28.29487620" lon="-16.8150887">
        <ele>941.74877</ele>
        <time>2009-09-22T12:24:17Z</time>
      </trkpt>
      <trkpt lat="28.29482390" lon="-16.8150815">
        <ele>940.78735</ele>
        <time>2009-09-22T12:24:19Z</time>
      </trkpt>
      <trkpt lat="28.29472690" lon="-16.8151283">
        <ele>940.78735</ele>
        <time>2009-09-22T12:24:23Z</time>
      </trkpt>
      <trkpt lat="28.29467850" lon="-16.8151846">
        <ele>941.26806</ele>
        <time>2009-09-22T12:24:26Z</time>
      </trkpt>
      <trkpt lat="28.29461000" lon="-16.8152196">
        <ele>939.82592</ele>
        <time>2009-09-22T12:24:29Z</time>
      </trkpt>
      <trkpt lat="28.29450950" lon="-16.8152514">
        <ele>939.34521</ele>
        <time>2009-09-22T12:24:33Z</time>
      </trkpt>
      <trkpt lat="28.29442160" lon="-16.8152892">
        <ele>938.86474</ele>
        <time>2009-09-22T12:24:37Z</time>
      </trkpt>
      <trkpt lat="28.29433290" lon="-16.8153175">
        <ele>938.38403</ele>
        <time>2009-09-22T12:24:41Z</time>
      </trkpt>
      <trkpt lat="28.29430980" lon="-16.8153385">
        <ele>937.42260</ele>
        <time>2009-09-22T12:24:42Z</time>
      </trkpt>
      <trkpt lat="28.29420630" lon="-16.8153865">
        <ele>934.05810</ele>
        <time>2009-09-22T12:24:46Z</time>
      </trkpt>
      <trkpt lat="28.29416760" lon="-16.8154157">
        <ele>934.53881</ele>
        <time>2009-09-22T12:24:48Z</time>
      </trkpt>
      <trkpt lat="28.29407250" lon="-16.8154706">
        <ele>932.61621</ele>
        <time>2009-09-22T12:24:52Z</time>
      </trkpt>
      <trkpt lat="28.29394830" lon="-16.8155420">
        <ele>931.17431</ele>
        <time>2009-09-22T12:24:58Z</time>
      </trkpt>
      <trkpt lat="28.29381550" lon="-16.8156056">
        <ele>932.61621</ele>
        <time>2009-09-22T12:25:04Z</time>
      </trkpt>
      <trkpt lat="28.29368710" lon="-16.8156384">
        <ele>935.01953</ele>
        <time>2009-09-22T12:25:09Z</time>
      </trkpt>
      <trkpt lat="28.29356420" lon="-16.8156300">
        <ele>937.90332</ele>
        <time>2009-09-22T12:25:14Z</time>
      </trkpt>
      <trkpt lat="28.29347350" lon="-16.8156421">
        <ele>938.38403</ele>
        <time>2009-09-22T12:25:18Z</time>
      </trkpt>
      <trkpt lat="28.29339580" lon="-16.8156302">
        <ele>935.50000</ele>
        <time>2009-09-22T12:25:21Z</time>
      </trkpt>
      <trkpt lat="28.29335390" lon="-16.8157058">
        <ele>932.13549</ele>
        <time>2009-09-22T12:25:24Z</time>
      </trkpt>
      <trkpt lat="28.29333270" lon="-16.8157236">
        <ele>931.17431</ele>
        <time>2009-09-22T12:25:25Z</time>
      </trkpt>
      <trkpt lat="28.29322000" lon="-16.8157587">
        <ele>929.73217</ele>
        <time>2009-09-22T12:25:30Z</time>
      </trkpt>
      <trkpt lat="28.29311610" lon="-16.8157628">
        <ele>927.80957</ele>
        <time>2009-09-22T12:25:34Z</time>
      </trkpt>
      <trkpt lat="28.29301710" lon="-16.8157262">
        <ele>926.84838</ele>
        <time>2009-09-22T12:25:38Z</time>
      </trkpt>
      <trkpt lat="28.29288360" lon="-16.8156493">
        <ele>924.92578</ele>
        <time>2009-09-22T12:25:44Z</time>
      </trkpt>
      <trkpt lat="28.29278980" lon="-16.8156089">
        <ele>926.84838</ele>
        <time>2009-09-22T12:25:48Z</time>
      </trkpt>
      <trkpt lat="28.29270180" lon="-16.8155753">
        <ele>927.32910</ele>
        <time>2009-09-22T12:25:52Z</time>
      </trkpt>
      <trkpt lat="28.29264620" lon="-16.8155503">
        <ele>927.32910</ele>
        <time>2009-09-22T12:25:54Z</time>
      </trkpt>
      <trkpt lat="28.29254590" lon="-16.8155197">
        <ele>926.84838</ele>
        <time>2009-09-22T12:25:58Z</time>
      </trkpt>
      <trkpt lat="28.29245970" lon="-16.8154766">
        <ele>926.84838</ele>
        <time>2009-09-22T12:26:02Z</time>
      </trkpt>
      <trkpt lat="28.29240480" lon="-16.8154455">
        <ele>926.84838</ele>
        <time>2009-09-22T12:26:05Z</time>
      </trkpt>
      <trkpt lat="28.29230710" lon="-16.8153965">
        <ele>926.36767</ele>
        <time>2009-09-22T12:26:09Z</time>
      </trkpt>
      <trkpt lat="28.29222840" lon="-16.8153405">
        <ele>925.88696</ele>
        <time>2009-09-22T12:26:13Z</time>
      </trkpt>
      <trkpt lat="28.29214350" lon="-16.8153006">
        <ele>923.96411</ele>
        <time>2009-09-22T12:26:16Z</time>
      </trkpt>
      <trkpt lat="28.29204760" lon="-16.8152691">
        <ele>923.96411</ele>
        <time>2009-09-22T12:26:20Z</time>
      </trkpt>
      <trkpt lat="28.29195180" lon="-16.8152352">
        <ele>923.00292</ele>
        <time>2009-09-22T12:26:24Z</time>
      </trkpt>
      <trkpt lat="28.29189380" lon="-16.8151801">
        <ele>921.56079</ele>
        <time>2009-09-22T12:26:27Z</time>
      </trkpt>
      <trkpt lat="28.29188580" lon="-16.8151727">
        <ele>922.04150</ele>
        <time>2009-09-22T12:26:28Z</time>
      </trkpt>
      <trkpt lat="28.29185700" lon="-16.8151370">
        <ele>920.11889</ele>
        <time>2009-09-22T12:26:29Z</time>
      </trkpt>
      <trkpt lat="28.29178020" lon="-16.8151675">
        <ele>920.11889</ele>
        <time>2009-09-22T12:26:33Z</time>
      </trkpt>
      <trkpt lat="28.29172590" lon="-16.8152224">
        <ele>919.63842</ele>
        <time>2009-09-22T12:26:36Z</time>
      </trkpt>
      <trkpt lat="28.29164970" lon="-16.8153240">
        <ele>918.67700</ele>
        <time>2009-09-22T12:26:40Z</time>
      </trkpt>
      <trkpt lat="28.29158240" lon="-16.8154175">
        <ele>920.11889</ele>
        <time>2009-09-22T12:26:44Z</time>
      </trkpt>
      <trkpt lat="28.29149850" lon="-16.8155306">
        <ele>923.00292</ele>
        <time>2009-09-22T12:26:50Z</time>
      </trkpt>
      <trkpt lat="28.29143440" lon="-16.8155980">
        <ele>923.48364</ele>
        <time>2009-09-22T12:26:53Z</time>
      </trkpt>
      <trkpt lat="28.29135450" lon="-16.8156810">
        <ele>924.92578</ele>
        <time>2009-09-22T12:26:58Z</time>
      </trkpt>
      <trkpt lat="28.29127420" lon="-16.8157255">
        <ele>923.96411</ele>
        <time>2009-09-22T12:27:01Z</time>
      </trkpt>
      <trkpt lat="28.29119090" lon="-16.8157450">
        <ele>920.11889</ele>
        <time>2009-09-22T12:27:04Z</time>
      </trkpt>
      <trkpt lat="28.29116640" lon="-16.8157472">
        <ele>919.15771</ele>
        <time>2009-09-22T12:27:05Z</time>
      </trkpt>
      <trkpt lat="28.29110120" lon="-16.8157582">
        <ele>918.67700</ele>
        <time>2009-09-22T12:27:08Z</time>
      </trkpt>
      <trkpt lat="28.29099620" lon="-16.8158187">
        <ele>918.67700</ele>
        <time>2009-09-22T12:27:13Z</time>
      </trkpt>
      <trkpt lat="28.29094990" lon="-16.8158433">
        <ele>918.67700</ele>
        <time>2009-09-22T12:27:15Z</time>
      </trkpt>
      <trkpt lat="28.29085630" lon="-16.8158718">
        <ele>917.71557</ele>
        <time>2009-09-22T12:27:19Z</time>
      </trkpt>
      <trkpt lat="28.29074370" lon="-16.8159088">
        <ele>918.19628</ele>
        <time>2009-09-22T12:27:23Z</time>
      </trkpt>
      <trkpt lat="28.29062460" lon="-16.8159247">
        <ele>918.19628</ele>
        <time>2009-09-22T12:27:28Z</time>
      </trkpt>
      <trkpt lat="28.29050280" lon="-16.8158946">
        <ele>917.71557</ele>
        <time>2009-09-22T12:27:33Z</time>
      </trkpt>
      <trkpt lat="28.29041940" lon="-16.8158373">
        <ele>916.75439</ele>
        <time>2009-09-22T12:27:37Z</time>
      </trkpt>
      <trkpt lat="28.29032570" lon="-16.8158185">
        <ele>917.71557</ele>
        <time>2009-09-22T12:27:41Z</time>
      </trkpt>
      <trkpt lat="28.29023460" lon="-16.8158394">
        <ele>916.75439</ele>
        <time>2009-09-22T12:27:45Z</time>
      </trkpt>
      <trkpt lat="28.29022060" lon="-16.8158443">
        <ele>917.23510</ele>
        <time>2009-09-22T12:27:45Z</time>
      </trkpt>
      <trkpt lat="28.29018280" lon="-16.8158434">
        <ele>917.71557</ele>
        <time>2009-09-22T12:27:47Z</time>
      </trkpt>
      <trkpt lat="28.29014300" lon="-16.8158316">
        <ele>917.23510</ele>
        <time>2009-09-22T12:27:48Z</time>
      </trkpt>
      <trkpt lat="28.29010710" lon="-16.8158248">
        <ele>916.75439</ele>
        <time>2009-09-22T12:27:50Z</time>
      </trkpt>
      <trkpt lat="28.29001700" lon="-16.8158259">
        <ele>915.79321</ele>
        <time>2009-09-22T12:27:53Z</time>
      </trkpt>
      <trkpt lat="28.28994970" lon="-16.8158500">
        <ele>915.79321</ele>
        <time>2009-09-22T12:27:56Z</time>
      </trkpt>
      <trkpt lat="28.28991070" lon="-16.8158679">
        <ele>916.27368</ele>
        <time>2009-09-22T12:27:58Z</time>
      </trkpt>
      <trkpt lat="28.28991850" lon="-16.8158617">
        <ele>913.87036</ele>
        <time>2009-09-22T12:27:58Z</time>
      </trkpt>
      <trkpt lat="28.28989790" lon="-16.8158667">
        <ele>913.87036</ele>
        <time>2009-09-22T12:27:59Z</time>
      </trkpt>
      <trkpt lat="28.28982460" lon="-16.8158776">
        <ele>913.38989</ele>
        <time>2009-09-22T12:28:02Z</time>
      </trkpt>
      <trkpt lat="28.28977280" lon="-16.8158777">
        <ele>912.90917</ele>
        <time>2009-09-22T12:28:04Z</time>
      </trkpt>
      <trkpt lat="28.28969840" lon="-16.8159057">
        <ele>911.94799</ele>
        <time>2009-09-22T12:28:07Z</time>
      </trkpt>
      <trkpt lat="28.28964700" lon="-16.8159265">
        <ele>910.98657</ele>
        <time>2009-09-22T12:28:10Z</time>
      </trkpt>
      <trkpt lat="28.28954370" lon="-16.8159694">
        <ele>911.46728</ele>
        <time>2009-09-22T12:28:14Z</time>
      </trkpt>
      <trkpt lat="28.28946780" lon="-16.8160082">
        <ele>911.94799</ele>
        <time>2009-09-22T12:28:17Z</time>
      </trkpt>
      <trkpt lat="28.28937310" lon="-16.8160216">
        <ele>913.38989</ele>
        <time>2009-09-22T12:28:21Z</time>
      </trkpt>
      <trkpt lat="28.28930970" lon="-16.8160125">
        <ele>913.38989</ele>
        <time>2009-09-22T12:28:24Z</time>
      </trkpt>
      <trkpt lat="28.28927910" lon="-16.8159921">
        <ele>914.35107</ele>
        <time>2009-09-22T12:28:25Z</time>
      </trkpt>
      <trkpt lat="28.28922190" lon="-16.8159637">
        <ele>912.42846</ele>
        <time>2009-09-22T12:28:28Z</time>
      </trkpt>
      <trkpt lat="28.28917900" lon="-16.8158951">
        <ele>911.46728</ele>
        <time>2009-09-22T12:28:31Z</time>
      </trkpt>
      <trkpt lat="28.28912170" lon="-16.8158407">
        <ele>909.54467</ele>
        <time>2009-09-22T12:28:34Z</time>
      </trkpt>
      <trkpt lat="28.28903750" lon="-16.8158171">
        <ele>907.14111</ele>
        <time>2009-09-22T12:28:37Z</time>
      </trkpt>
      <trkpt lat="28.28893710" lon="-16.8157969">
        <ele>906.66040</ele>
        <time>2009-09-22T12:28:41Z</time>
      </trkpt>
      <trkpt lat="28.28890000" lon="-16.8157868">
        <ele>906.17968</ele>
        <time>2009-09-22T12:28:43Z</time>
      </trkpt>
      <trkpt lat="28.28881110" lon="-16.8157901">
        <ele>905.69921</ele>
        <time>2009-09-22T12:28:46Z</time>
      </trkpt>
      <trkpt lat="28.28874640" lon="-16.8157912">
        <ele>905.69921</ele>
        <time>2009-09-22T12:28:49Z</time>
      </trkpt>
      <trkpt lat="28.28873350" lon="-16.8157922">
        <ele>905.69921</ele>
        <time>2009-09-22T12:28:49Z</time>
      </trkpt>
      <trkpt lat="28.28866700" lon="-16.8157955">
        <ele>906.66040</ele>
        <time>2009-09-22T12:28:52Z</time>
      </trkpt>
      <trkpt lat="28.28861520" lon="-16.8157755">
        <ele>905.69921</ele>
        <time>2009-09-22T12:28:54Z</time>
      </trkpt>
      <trkpt lat="28.28853080" lon="-16.8157684">
        <ele>905.69921</ele>
        <time>2009-09-22T12:28:58Z</time>
      </trkpt>
      <trkpt lat="28.28847590" lon="-16.8157323">
        <ele>903.29589</ele>
        <time>2009-09-22T12:29:00Z</time>
      </trkpt>
      <trkpt lat="28.28846810" lon="-16.8157222">
        <ele>903.29589</ele>
        <time>2009-09-22T12:29:01Z</time>
      </trkpt>
      <trkpt lat="28.28842310" lon="-16.8156962">
        <ele>902.81518</ele>
        <time>2009-09-22T12:29:03Z</time>
      </trkpt>
      <trkpt lat="28.28836350" lon="-16.8156849">
        <ele>902.33447</ele>
        <time>2009-09-22T12:29:05Z</time>
      </trkpt>
      <trkpt lat="28.28831100" lon="-16.8156808">
        <ele>901.85400</ele>
        <time>2009-09-22T12:29:07Z</time>
      </trkpt>
      <trkpt lat="28.28825720" lon="-16.8156601">
        <ele>901.85400</ele>
        <time>2009-09-22T12:29:09Z</time>
      </trkpt>
      <trkpt lat="28.28822420" lon="-16.8156322">
        <ele>899.45068</ele>
        <time>2009-09-22T12:29:11Z</time>
      </trkpt>
      <trkpt lat="28.28818440" lon="-16.8155912">
        <ele>896.56689</ele>
        <time>2009-09-22T12:29:13Z</time>
      </trkpt>
      <trkpt lat="28.28813070" lon="-16.8156190">
        <ele>895.60546</ele>
        <time>2009-09-22T12:29:16Z</time>
      </trkpt>
      <trkpt lat="28.28805020" lon="-16.8156644">
        <ele>896.08618</ele>
        <time>2009-09-22T12:29:19Z</time>
      </trkpt>
      <trkpt lat="28.28798340" lon="-16.8156876">
        <ele>897.04736</ele>
        <time>2009-09-22T12:29:22Z</time>
      </trkpt>
      <trkpt lat="28.28791340" lon="-16.8157309">
        <ele>898.00878</ele>
        <time>2009-09-22T12:29:25Z</time>
      </trkpt>
      <trkpt lat="28.28785960" lon="-16.8157492">
        <ele>898.00878</ele>
        <time>2009-09-22T12:29:27Z</time>
      </trkpt>
      <trkpt lat="28.28779250" lon="-16.8157865">
        <ele>897.52807</ele>
        <time>2009-09-22T12:29:30Z</time>
      </trkpt>
      <trkpt lat="28.28777090" lon="-16.8158025">
        <ele>896.56689</ele>
        <time>2009-09-22T12:29:31Z</time>
      </trkpt>
      <trkpt lat="28.28773700" lon="-16.8158434">
        <ele>896.56689</ele>
        <time>2009-09-22T12:29:33Z</time>
      </trkpt>
      <trkpt lat="28.28766990" lon="-16.8159114">
        <ele>897.52807</ele>
        <time>2009-09-22T12:29:37Z</time>
      </trkpt>
      <trkpt lat="28.28764740" lon="-16.8159243">
        <ele>897.04736</ele>
        <time>2009-09-22T12:29:38Z</time>
      </trkpt>
      <trkpt lat="28.28758480" lon="-16.8159487">
        <ele>894.16357</ele>
        <time>2009-09-22T12:29:41Z</time>
      </trkpt>
      <trkpt lat="28.28753640" lon="-16.8159741">
        <ele>891.27929</ele>
        <time>2009-09-22T12:29:43Z</time>
      </trkpt>
      <trkpt lat="28.28748860" lon="-16.8159949">
        <ele>892.24096</ele>
        <time>2009-09-22T12:29:45Z</time>
      </trkpt>
      <trkpt lat="28.28744620" lon="-16.8160076">
        <ele>892.24096</ele>
        <time>2009-09-22T12:29:47Z</time>
      </trkpt>
      <trkpt lat="28.28741870" lon="-16.8160196">
        <ele>892.24096</ele>
        <time>2009-09-22T12:29:48Z</time>
      </trkpt>
      <trkpt lat="28.28737100" lon="-16.8160373">
        <ele>890.79858</ele>
        <time>2009-09-22T12:29:50Z</time>
      </trkpt>
      <trkpt lat="28.28731710" lon="-16.8160391">
        <ele>889.83740</ele>
        <time>2009-09-22T12:29:52Z</time>
      </trkpt>
      <trkpt lat="28.28727780" lon="-16.8160550">
        <ele>890.31811</ele>
        <time>2009-09-22T12:29:54Z</time>
      </trkpt>
      <trkpt lat="28.28726480" lon="-16.8160596">
        <ele>890.31811</ele>
        <time>2009-09-22T12:29:54Z</time>
      </trkpt>
      <trkpt lat="28.28725580" lon="-16.8160522">
        <ele>888.39550</ele>
        <time>2009-09-22T12:29:55Z</time>
      </trkpt>
      <trkpt lat="28.28724460" lon="-16.8160336">
        <ele>887.43408</ele>
        <time>2009-09-22T12:29:55Z</time>
      </trkpt>
      <trkpt lat="28.28727920" lon="-16.8159874">
        <ele>885.99218</ele>
        <time>2009-09-22T12:29:58Z</time>
      </trkpt>
      <trkpt lat="28.28733580" lon="-16.8159596">
        <ele>884.55029</ele>
        <time>2009-09-22T12:30:00Z</time>
      </trkpt>
      <trkpt lat="28.28739640" lon="-16.8159134">
        <ele>882.14697</ele>
        <time>2009-09-22T12:30:03Z</time>
      </trkpt>
      <trkpt lat="28.28744920" lon="-16.8158426">
        <ele>880.22436</ele>
        <time>2009-09-22T12:30:06Z</time>
      </trkpt>
      <trkpt lat="28.28747460" lon="-16.8158094">
        <ele>879.26293</ele>
        <time>2009-09-22T12:30:08Z</time>
      </trkpt>
      <trkpt lat="28.28748430" lon="-16.8157756">
        <ele>879.26293</ele>
        <time>2009-09-22T12:30:09Z</time>
      </trkpt>
      <trkpt lat="28.28743840" lon="-16.8156942">
        <ele>876.85986</ele>
        <time>2009-09-22T12:30:12Z</time>
      </trkpt>
      <trkpt lat="28.28741560" lon="-16.8156757">
        <ele>877.34057</ele>
        <time>2009-09-22T12:30:14Z</time>
      </trkpt>
      <trkpt lat="28.28740110" lon="-16.8156762">
        <ele>876.85986</ele>
        <time>2009-09-22T12:30:14Z</time>
      </trkpt>
      <trkpt lat="28.28737560" lon="-16.8156746">
        <ele>875.89819</ele>
        <time>2009-09-22T12:30:15Z</time>
      </trkpt>
      <trkpt lat="28.28730370" lon="-16.8157212">
        <ele>877.34057</ele>
        <time>2009-09-22T12:30:18Z</time>
      </trkpt>
      <trkpt lat="28.28726930" lon="-16.8157514">
        <ele>877.34057</ele>
        <time>2009-09-22T12:30:20Z</time>
      </trkpt>
      <trkpt lat="28.28721650" lon="-16.8157736">
        <ele>877.82104</ele>
        <time>2009-09-22T12:30:22Z</time>
      </trkpt>
      <trkpt lat="28.28716790" lon="-16.8157907">
        <ele>876.37915</ele>
        <time>2009-09-22T12:30:24Z</time>
      </trkpt>
      <trkpt lat="28.28711660" lon="-16.8158073">
        <ele>875.41748</ele>
        <time>2009-09-22T12:30:27Z</time>
      </trkpt>
      <trkpt lat="28.28708820" lon="-16.8158262">
        <ele>874.45629</ele>
        <time>2009-09-22T12:30:28Z</time>
      </trkpt>
      <trkpt lat="28.28705970" lon="-16.8158331">
        <ele>873.49511</ele>
        <time>2009-09-22T12:30:29Z</time>
      </trkpt>
      <trkpt lat="28.28702330" lon="-16.8158363">
        <ele>873.01440</ele>
        <time>2009-09-22T12:30:31Z</time>
      </trkpt>
      <trkpt lat="28.28697470" lon="-16.8158374">
        <ele>870.61108</ele>
        <time>2009-09-22T12:30:32Z</time>
      </trkpt>
      <trkpt lat="28.28692390" lon="-16.8158424">
        <ele>869.64990</ele>
        <time>2009-09-22T12:30:35Z</time>
      </trkpt>
      <trkpt lat="28.28688090" lon="-16.8158314">
        <ele>868.20776</ele>
        <time>2009-09-22T12:30:36Z</time>
      </trkpt>
      <trkpt lat="28.28682510" lon="-16.8158241">
        <ele>866.76586</ele>
        <time>2009-09-22T12:30:39Z</time>
      </trkpt>
      <trkpt lat="28.28680700" lon="-16.8158684">
        <ele>866.28515</ele>
        <time>2009-09-22T12:30:40Z</time>
      </trkpt>
      <trkpt lat="28.28680020" lon="-16.8159042">
        <ele>865.80468</ele>
        <time>2009-09-22T12:30:42Z</time>
      </trkpt>
      <trkpt lat="28.28676520" lon="-16.8158819">
        <ele>864.84326</ele>
        <time>2009-09-22T12:30:43Z</time>
      </trkpt>
      <trkpt lat="28.28672870" lon="-16.8158798">
        <ele>862.43994</ele>
        <time>2009-09-22T12:30:45Z</time>
      </trkpt>
      <trkpt lat="28.28669910" lon="-16.8159026">
        <ele>862.43994</ele>
        <time>2009-09-22T12:30:46Z</time>
      </trkpt>
      <trkpt lat="28.28667890" lon="-16.8159176">
        <ele>861.95947</ele>
        <time>2009-09-22T12:30:47Z</time>
      </trkpt>
      <trkpt lat="28.28666680" lon="-16.8159492">
        <ele>861.47875</ele>
        <time>2009-09-22T12:30:48Z</time>
      </trkpt>
      <trkpt lat="28.28664010" lon="-16.8159697">
        <ele>860.99804</ele>
        <time>2009-09-22T12:30:50Z</time>
      </trkpt>
      <trkpt lat="28.28660550" lon="-16.8159829">
        <ele>859.55590</ele>
        <time>2009-09-22T12:30:51Z</time>
      </trkpt>
      <trkpt lat="28.28659000" lon="-16.8160072">
        <ele>857.15258</ele>
        <time>2009-09-22T12:30:52Z</time>
      </trkpt>
      <trkpt lat="28.28655410" lon="-16.8160077">
        <ele>856.67187</ele>
        <time>2009-09-22T12:30:53Z</time>
      </trkpt>
      <trkpt lat="28.28651520" lon="-16.8159992">
        <ele>855.71069</ele>
        <time>2009-09-22T12:30:55Z</time>
      </trkpt>
      <trkpt lat="28.28648530" lon="-16.8160272">
        <ele>854.74926</ele>
        <time>2009-09-22T12:30:57Z</time>
      </trkpt>
      <trkpt lat="28.28646610" lon="-16.8160548">
        <ele>853.78808</ele>
        <time>2009-09-22T12:30:58Z</time>
      </trkpt>
      <trkpt lat="28.28644520" lon="-16.8160751">
        <ele>853.30737</ele>
        <time>2009-09-22T12:30:59Z</time>
      </trkpt>
      <trkpt lat="28.28641570" lon="-16.8161003">
        <ele>853.30737</ele>
        <time>2009-09-22T12:31:00Z</time>
      </trkpt>
      <trkpt lat="28.28639620" lon="-16.8161135">
        <ele>852.34594</ele>
        <time>2009-09-22T12:31:01Z</time>
      </trkpt>
      <trkpt lat="28.28638350" lon="-16.8161243">
        <ele>850.90405</ele>
        <time>2009-09-22T12:31:02Z</time>
      </trkpt>
      <trkpt lat="28.28635400" lon="-16.8161329">
        <ele>848.98144</ele>
        <time>2009-09-22T12:31:03Z</time>
      </trkpt>
      <trkpt lat="28.28634280" lon="-16.8161412">
        <ele>846.09765</ele>
        <time>2009-09-22T12:31:04Z</time>
      </trkpt>
      <trkpt lat="28.28632180" lon="-16.8161638">
        <ele>843.69409</ele>
        <time>2009-09-22T12:31:05Z</time>
      </trkpt>
      <trkpt lat="28.28633010" lon="-16.8161803">
        <ele>841.77148</ele>
        <time>2009-09-22T12:31:06Z</time>
      </trkpt>
      <trkpt lat="28.28633950" lon="-16.8161787">
        <ele>841.29077</ele>
        <time>2009-09-22T12:31:06Z</time>
      </trkpt>
      <trkpt lat="28.28634630" lon="-16.8161924">
        <ele>842.73291</ele>
        <time>2009-09-22T12:31:07Z</time>
      </trkpt>
      <trkpt lat="28.28635990" lon="-16.8162033">
        <ele>842.25219</ele>
        <time>2009-09-22T12:31:07Z</time>
      </trkpt>
      <trkpt lat="28.28638930" lon="-16.8162574">
        <ele>844.65551</ele>
        <time>2009-09-22T12:31:09Z</time>
      </trkpt>
      <trkpt lat="28.28641180" lon="-16.8162698">
        <ele>843.21337</ele>
        <time>2009-09-22T12:31:10Z</time>
      </trkpt>
      <trkpt lat="28.28643130" lon="-16.8162771">
        <ele>841.29077</ele>
        <time>2009-09-22T12:31:11Z</time>
      </trkpt>
      <trkpt lat="28.28645570" lon="-16.8162986">
        <ele>840.81005</ele>
        <time>2009-09-22T12:31:12Z</time>
      </trkpt>
      <trkpt lat="28.28643120" lon="-16.8163221">
        <ele>839.84887</ele>
        <time>2009-09-22T12:31:14Z</time>
      </trkpt>
      <trkpt lat="28.28640320" lon="-16.8163361">
        <ele>840.32958</ele>
        <time>2009-09-22T12:31:15Z</time>
      </trkpt>
      <trkpt lat="28.28637180" lon="-16.8163399">
        <ele>838.40698</ele>
        <time>2009-09-22T12:31:16Z</time>
      </trkpt>
      <trkpt lat="28.28634590" lon="-16.8163485">
        <ele>836.48437</ele>
        <time>2009-09-22T12:31:17Z</time>
      </trkpt>
      <trkpt lat="28.28632960" lon="-16.8163516">
        <ele>836.00366</ele>
        <time>2009-09-22T12:31:18Z</time>
      </trkpt>
      <trkpt lat="28.28632310" lon="-16.8163496">
        <ele>834.56176</ele>
        <time>2009-09-22T12:31:18Z</time>
      </trkpt>
      <trkpt lat="28.28630400" lon="-16.8163786">
        <ele>835.52294</ele>
        <time>2009-09-22T12:31:20Z</time>
      </trkpt>
      <trkpt lat="28.28632700" lon="-16.8163974">
        <ele>834.56176</ele>
        <time>2009-09-22T12:31:21Z</time>
      </trkpt>
      <trkpt lat="28.28633650" lon="-16.8164235">
        <ele>832.15844</ele>
        <time>2009-09-22T12:31:22Z</time>
      </trkpt>
      <trkpt lat="28.28635220" lon="-16.8164295">
        <ele>829.75512</ele>
        <time>2009-09-22T12:31:22Z</time>
      </trkpt>
      <trkpt lat="28.28635830" lon="-16.8164387">
        <ele>828.31323</ele>
        <time>2009-09-22T12:31:23Z</time>
      </trkpt>
      <trkpt lat="28.28634380" lon="-16.8164501">
        <ele>827.35180</ele>
        <time>2009-09-22T12:31:23Z</time>
      </trkpt>
      <trkpt lat="28.28630740" lon="-16.8164403">
        <ele>826.39038</ele>
        <time>2009-09-22T12:31:25Z</time>
      </trkpt>
      <trkpt lat="28.28629560" lon="-16.8164641">
        <ele>824.94848</ele>
        <time>2009-09-22T12:31:26Z</time>
      </trkpt>
      <trkpt lat="28.28627390" lon="-16.8164941">
        <ele>825.90966</ele>
        <time>2009-09-22T12:31:27Z</time>
      </trkpt>
      <trkpt lat="28.28624210" lon="-16.8165070">
        <ele>827.35180</ele>
        <time>2009-09-22T12:31:29Z</time>
      </trkpt>
      <trkpt lat="28.28620440" lon="-16.8165086">
        <ele>826.39038</ele>
        <time>2009-09-22T12:31:30Z</time>
      </trkpt>
      <trkpt lat="28.28618270" lon="-16.8165261">
        <ele>823.98706</ele>
        <time>2009-09-22T12:31:31Z</time>
      </trkpt>
      <trkpt lat="28.28615740" lon="-16.8165404">
        <ele>824.94848</ele>
        <time>2009-09-22T12:31:32Z</time>
      </trkpt>
      <trkpt lat="28.28612930" lon="-16.8165687">
        <ele>823.98706</ele>
        <time>2009-09-22T12:31:34Z</time>
      </trkpt>
      <trkpt lat="28.28612350" lon="-16.8165901">
        <ele>821.10327</ele>
        <time>2009-09-22T12:31:35Z</time>
      </trkpt>
      <trkpt lat="28.28611120" lon="-16.8166226">
        <ele>820.62255</ele>
        <time>2009-09-22T12:31:36Z</time>
      </trkpt>
      <trkpt lat="28.28609830" lon="-16.8166609">
        <ele>818.21923</ele>
        <time>2009-09-22T12:31:37Z</time>
      </trkpt>
      <trkpt lat="28.28607810" lon="-16.8166804">
        <ele>818.21923</ele>
        <time>2009-09-22T12:31:38Z</time>
      </trkpt>
      <trkpt lat="28.28606800" lon="-16.8167103">
        <ele>815.81616</ele>
        <time>2009-09-22T12:31:39Z</time>
      </trkpt>
      <trkpt lat="28.28606520" lon="-16.8167054">
        <ele>816.29663</ele>
        <time>2009-09-22T12:31:40Z</time>
      </trkpt>
      <trkpt lat="28.28602210" lon="-16.8167168">
        <ele>817.25805</ele>
        <time>2009-09-22T12:31:41Z</time>
      </trkpt>
      <trkpt lat="28.28601590" lon="-16.8167454">
        <ele>813.89331</ele>
        <time>2009-09-22T12:31:43Z</time>
      </trkpt>
      <trkpt lat="28.28597850" lon="-16.8167904">
        <ele>813.41284</ele>
        <time>2009-09-22T12:31:45Z</time>
      </trkpt>
      <trkpt lat="28.28595060" lon="-16.8168360">
        <ele>812.93212</ele>
        <time>2009-09-22T12:31:47Z</time>
      </trkpt>
      <trkpt lat="28.28592840" lon="-16.8168700">
        <ele>811.00927</ele>
        <time>2009-09-22T12:31:48Z</time>
      </trkpt>
      <trkpt lat="28.28590290" lon="-16.8169002">
        <ele>812.45141</ele>
        <time>2009-09-22T12:31:50Z</time>
      </trkpt>
      <trkpt lat="28.28590550" lon="-16.8169385">
        <ele>810.04785</ele>
        <time>2009-09-22T12:31:51Z</time>
      </trkpt>
      <trkpt lat="28.28589120" lon="-16.8169837">
        <ele>808.60595</ele>
        <time>2009-09-22T12:31:53Z</time>
      </trkpt>
      <trkpt lat="28.28588060" lon="-16.8170215">
        <ele>806.68334</ele>
        <time>2009-09-22T12:31:54Z</time>
      </trkpt>
      <trkpt lat="28.28585960" lon="-16.8170635">
        <ele>801.39624</ele>
        <time>2009-09-22T12:31:56Z</time>
      </trkpt>
      <trkpt lat="28.28583300" lon="-16.8171037">
        <ele>798.99291</ele>
        <time>2009-09-22T12:31:58Z</time>
      </trkpt>
      <trkpt lat="28.28580090" lon="-16.8171375">
        <ele>800.91552</ele>
        <time>2009-09-22T12:31:59Z</time>
      </trkpt>
      <trkpt lat="28.28577400" lon="-16.8171898">
        <ele>800.91552</ele>
        <time>2009-09-22T12:32:01Z</time>
      </trkpt>
      <trkpt lat="28.28574990" lon="-16.8172459">
        <ele>802.83813</ele>
        <time>2009-09-22T12:32:04Z</time>
      </trkpt>
      <trkpt lat="28.28572020" lon="-16.8173192">
        <ele>803.79956</ele>
        <time>2009-09-22T12:32:06Z</time>
      </trkpt>
      <trkpt lat="28.28570140" lon="-16.8173582">
        <ele>803.79956</ele>
        <time>2009-09-22T12:32:08Z</time>
      </trkpt>
      <trkpt lat="28.28566310" lon="-16.8174482">
        <ele>802.35742</ele>
        <time>2009-09-22T12:32:12Z</time>
      </trkpt>
      <trkpt lat="28.28564510" lon="-16.8174994">
        <ele>801.39624</ele>
        <time>2009-09-22T12:32:14Z</time>
      </trkpt>
      <trkpt lat="28.28564580" lon="-16.8174923">
        <ele>798.51220</ele>
        <time>2009-09-22T12:32:14Z</time>
      </trkpt>
      <trkpt lat="28.28564820" lon="-16.8174886">
        <ele>798.03173</ele>
        <time>2009-09-22T12:32:14Z</time>
      </trkpt>
      <trkpt lat="28.28565010" lon="-16.8174809">
        <ele>796.58984</ele>
        <time>2009-09-22T12:32:14Z</time>
      </trkpt>
      <trkpt lat="28.28563710" lon="-16.8174707">
        <ele>800.91552</ele>
        <time>2009-09-22T12:32:15Z</time>
      </trkpt>
      <trkpt lat="28.28564340" lon="-16.8174919">
        <ele>799.95434</ele>
        <time>2009-09-22T12:32:16Z</time>
      </trkpt>
      <trkpt lat="28.28564040" lon="-16.8175779">
        <ele>797.07031</ele>
        <time>2009-09-22T12:32:19Z</time>
      </trkpt>
      <trkpt lat="28.28564250" lon="-16.8175981">
        <ele>797.07031</ele>
        <time>2009-09-22T12:32:19Z</time>
      </trkpt>
      <trkpt lat="28.28563980" lon="-16.8176442">
        <ele>796.10913</ele>
        <time>2009-09-22T12:32:21Z</time>
      </trkpt>
      <trkpt lat="28.28563440" lon="-16.8177273">
        <ele>797.55102</ele>
        <time>2009-09-22T12:32:24Z</time>
      </trkpt>
      <trkpt lat="28.28562230" lon="-16.8177729">
        <ele>797.55102</ele>
        <time>2009-09-22T12:32:26Z</time>
      </trkpt>
      <trkpt lat="28.28556630" lon="-16.8178472">
        <ele>796.10913</ele>
        <time>2009-09-22T12:32:29Z</time>
      </trkpt>
      <trkpt lat="28.28550440" lon="-16.8178928">
        <ele>794.18627</ele>
        <time>2009-09-22T12:32:32Z</time>
      </trkpt>
      <trkpt lat="28.28541900" lon="-16.8179574">
        <ele>793.70556</ele>
        <time>2009-09-22T12:32:36Z</time>
      </trkpt>
      <trkpt lat="28.28532520" lon="-16.8180112">
        <ele>794.18627</ele>
        <time>2009-09-22T12:32:40Z</time>
      </trkpt>
      <trkpt lat="28.28525490" lon="-16.8180533">
        <ele>791.30224</ele>
        <time>2009-09-22T12:32:44Z</time>
      </trkpt>
      <trkpt lat="28.28517930" lon="-16.8180802">
        <ele>790.34106</ele>
        <time>2009-09-22T12:32:47Z</time>
      </trkpt>
      <trkpt lat="28.28515760" lon="-16.8180916">
        <ele>790.34106</ele>
        <time>2009-09-22T12:32:48Z</time>
      </trkpt>
      <trkpt lat="28.28511610" lon="-16.8181081">
        <ele>789.86035</ele>
        <time>2009-09-22T12:32:49Z</time>
      </trkpt>
      <trkpt lat="28.28503900" lon="-16.8181542">
        <ele>789.86035</ele>
        <time>2009-09-22T12:32:53Z</time>
      </trkpt>
      <trkpt lat="28.28498050" lon="-16.8182113">
        <ele>789.86035</ele>
        <time>2009-09-22T12:32:56Z</time>
      </trkpt>
      <trkpt lat="28.28489920" lon="-16.8183344">
        <ele>791.30224</ele>
        <time>2009-09-22T12:33:01Z</time>
      </trkpt>
      <trkpt lat="28.28487100" lon="-16.8184249">
        <ele>789.86035</ele>
        <time>2009-09-22T12:33:05Z</time>
      </trkpt>
      <trkpt lat="28.28487010" lon="-16.8185061">
        <ele>789.86035</ele>
        <time>2009-09-22T12:33:08Z</time>
      </trkpt>
      <trkpt lat="28.28485090" lon="-16.8185994">
        <ele>791.30224</ele>
        <time>2009-09-22T12:33:11Z</time>
      </trkpt>
      <trkpt lat="28.28483950" lon="-16.8187013">
        <ele>787.93774</ele>
        <time>2009-09-22T12:33:15Z</time>
      </trkpt>
      <trkpt lat="28.28480420" lon="-16.8187633">
        <ele>785.05395</ele>
        <time>2009-09-22T12:33:17Z</time>
      </trkpt>
      <trkpt lat="28.28474290" lon="-16.8188175">
        <ele>782.65063</ele>
        <time>2009-09-22T12:33:20Z</time>
      </trkpt>
      <trkpt lat="28.28469010" lon="-16.8189208">
        <ele>779.76635</ele>
        <time>2009-09-22T12:33:25Z</time>
      </trkpt>
      <trkpt lat="28.28465260" lon="-16.8190334">
        <ele>779.76635</ele>
        <time>2009-09-22T12:33:29Z</time>
      </trkpt>
      <trkpt lat="28.28461570" lon="-16.8191101">
        <ele>780.72802</ele>
        <time>2009-09-22T12:33:32Z</time>
      </trkpt>
      <trkpt lat="28.28456490" lon="-16.8191985">
        <ele>779.76635</ele>
        <time>2009-09-22T12:33:36Z</time>
      </trkpt>
      <trkpt lat="28.28451880" lon="-16.8192889">
        <ele>778.32446</ele>
        <time>2009-09-22T12:33:39Z</time>
      </trkpt>
      <trkpt lat="28.28446920" lon="-16.8193728">
        <ele>778.80517</ele>
        <time>2009-09-22T12:33:43Z</time>
      </trkpt>
      <trkpt lat="28.28442570" lon="-16.8194893">
        <ele>776.88256</ele>
        <time>2009-09-22T12:33:47Z</time>
      </trkpt>
      <trkpt lat="28.28437380" lon="-16.8195710">
        <ele>773.99853</ele>
        <time>2009-09-22T12:33:51Z</time>
      </trkpt>
      <trkpt lat="28.28434310" lon="-16.8196075">
        <ele>771.59521</ele>
        <time>2009-09-22T12:33:53Z</time>
      </trkpt>
      <trkpt lat="28.28429770" lon="-16.8196758">
        <ele>771.11474</ele>
        <time>2009-09-22T12:33:56Z</time>
      </trkpt>
      <trkpt lat="28.28427280" lon="-16.8197543">
        <ele>768.23071</ele>
        <time>2009-09-22T12:33:59Z</time>
      </trkpt>
      <trkpt lat="28.28422880" lon="-16.8198441">
        <ele>767.26953</ele>
        <time>2009-09-22T12:34:02Z</time>
      </trkpt>
      <trkpt lat="28.28417860" lon="-16.8199397">
        <ele>767.75000</ele>
        <time>2009-09-22T12:34:06Z</time>
      </trkpt>
      <trkpt lat="28.28414340" lon="-16.8199833">
        <ele>768.23071</ele>
        <time>2009-09-22T12:34:08Z</time>
      </trkpt>
      <trkpt lat="28.28405470" lon="-16.8200497">
        <ele>767.75000</ele>
        <time>2009-09-22T12:34:12Z</time>
      </trkpt>
      <trkpt lat="28.28397440" lon="-16.8201275">
        <ele>770.15332</ele>
        <time>2009-09-22T12:34:17Z</time>
      </trkpt>
      <trkpt lat="28.28387340" lon="-16.8201585">
        <ele>769.67285</ele>
        <time>2009-09-22T12:34:21Z</time>
      </trkpt>
      <trkpt lat="28.28381330" lon="-16.8201573">
        <ele>768.71142</ele>
        <time>2009-09-22T12:34:23Z</time>
      </trkpt>
      <trkpt lat="28.28371810" lon="-16.8201559">
        <ele>767.26953</ele>
        <time>2009-09-22T12:34:27Z</time>
      </trkpt>
      <trkpt lat="28.28365480" lon="-16.8201719">
        <ele>765.82763</ele>
        <time>2009-09-22T12:34:30Z</time>
      </trkpt>
      <trkpt lat="28.28358550" lon="-16.8201782">
        <ele>764.86621</ele>
        <time>2009-09-22T12:34:33Z</time>
      </trkpt>
      <trkpt lat="28.28354940" lon="-16.8201927">
        <ele>765.34692</ele>
        <time>2009-09-22T12:34:34Z</time>
      </trkpt>
      <trkpt lat="28.28351530" lon="-16.8202267">
        <ele>765.82763</ele>
        <time>2009-09-22T12:34:36Z</time>
      </trkpt>
      <trkpt lat="28.28346910" lon="-16.8202638">
        <ele>764.86621</ele>
        <time>2009-09-22T12:34:38Z</time>
      </trkpt>
      <trkpt lat="28.28344400" lon="-16.8202896">
        <ele>763.90454</ele>
        <time>2009-09-22T12:34:39Z</time>
      </trkpt>
      <trkpt lat="28.28340290" lon="-16.8203274">
        <ele>763.42407</ele>
        <time>2009-09-22T12:34:42Z</time>
      </trkpt>
      <trkpt lat="28.28335000" lon="-16.8203400">
        <ele>761.02075</ele>
        <time>2009-09-22T12:34:44Z</time>
      </trkpt>
      <trkpt lat="28.28328790" lon="-16.8203552">
        <ele>760.05932</ele>
        <time>2009-09-22T12:34:46Z</time>
      </trkpt>
      <trkpt lat="28.28328020" lon="-16.8203600">
        <ele>760.54003</ele>
        <time>2009-09-22T12:34:47Z</time>
      </trkpt>
      <trkpt lat="28.28322670" lon="-16.8203738">
        <ele>760.54003</ele>
        <time>2009-09-22T12:34:49Z</time>
      </trkpt>
      <trkpt lat="28.28315010" lon="-16.8204269">
        <ele>759.57885</ele>
        <time>2009-09-22T12:34:52Z</time>
      </trkpt>
      <trkpt lat="28.28308040" lon="-16.8204855">
        <ele>759.09814</ele>
        <time>2009-09-22T12:34:56Z</time>
      </trkpt>
      <trkpt lat="28.28303100" lon="-16.8205599">
        <ele>758.13696</ele>
        <time>2009-09-22T12:34:59Z</time>
      </trkpt>
      <trkpt lat="28.28298360" lon="-16.8206398">
        <ele>758.61743</ele>
        <time>2009-09-22T12:35:03Z</time>
      </trkpt>
      <trkpt lat="28.28295120" lon="-16.8206745">
        <ele>758.61743</ele>
        <time>2009-09-22T12:35:04Z</time>
      </trkpt>
      <trkpt lat="28.28293310" lon="-16.8206893">
        <ele>758.13696</ele>
        <time>2009-09-22T12:35:05Z</time>
      </trkpt>
      <trkpt lat="28.28286130" lon="-16.8207261">
        <ele>758.13696</ele>
        <time>2009-09-22T12:35:08Z</time>
      </trkpt>
      <trkpt lat="28.28279080" lon="-16.8207625">
        <ele>759.09814</ele>
        <time>2009-09-22T12:35:12Z</time>
      </trkpt>
      <trkpt lat="28.28276590" lon="-16.8207779">
        <ele>759.57885</ele>
        <time>2009-09-22T12:35:13Z</time>
      </trkpt>
      <trkpt lat="28.28269070" lon="-16.8208283">
        <ele>759.09814</ele>
        <time>2009-09-22T12:35:16Z</time>
      </trkpt>
      <trkpt lat="28.28265970" lon="-16.8208870">
        <ele>757.17553</ele>
        <time>2009-09-22T12:35:19Z</time>
      </trkpt>
      <trkpt lat="28.28262700" lon="-16.8209406">
        <ele>756.69482</ele>
        <time>2009-09-22T12:35:21Z</time>
      </trkpt>
      <trkpt lat="28.28257840" lon="-16.8209875">
        <ele>755.25292</ele>
        <time>2009-09-22T12:35:23Z</time>
      </trkpt>
      <trkpt lat="28.28253150" lon="-16.8210406">
        <ele>751.88842</ele>
        <time>2009-09-22T12:35:26Z</time>
      </trkpt>
      <trkpt lat="28.28248650" lon="-16.8210892">
        <ele>750.92700</ele>
        <time>2009-09-22T12:35:29Z</time>
      </trkpt>
      <trkpt lat="28.28242980" lon="-16.8211448">
        <ele>750.92700</ele>
        <time>2009-09-22T12:35:32Z</time>
      </trkpt>
      <trkpt lat="28.28240900" lon="-16.8211605">
        <ele>751.88842</ele>
        <time>2009-09-22T12:35:33Z</time>
      </trkpt>
      <trkpt lat="28.28236340" lon="-16.8211883">
        <ele>753.33032</ele>
        <time>2009-09-22T12:35:35Z</time>
      </trkpt>
      <trkpt lat="28.28224980" lon="-16.8212262">
        <ele>754.29174</ele>
        <time>2009-09-22T12:35:39Z</time>
      </trkpt>
      <trkpt lat="28.28218820" lon="-16.8212888">
        <ele>755.73364</ele>
        <time>2009-09-22T12:35:43Z</time>
      </trkpt>
      <trkpt lat="28.28213850" lon="-16.8213484">
        <ele>756.69482</ele>
        <time>2009-09-22T12:35:46Z</time>
      </trkpt>
      <trkpt lat="28.28204880" lon="-16.8213689">
        <ele>757.17553</ele>
        <time>2009-09-22T12:35:49Z</time>
      </trkpt>
      <trkpt lat="28.28197080" lon="-16.8213635">
        <ele>755.25292</ele>
        <time>2009-09-22T12:35:52Z</time>
      </trkpt>
      <trkpt lat="28.28187550" lon="-16.8213391">
        <ele>754.77221</ele>
        <time>2009-09-22T12:35:56Z</time>
      </trkpt>
      <trkpt lat="28.28179470" lon="-16.8213163">
        <ele>753.81103</ele>
        <time>2009-09-22T12:36:00Z</time>
      </trkpt>
      <trkpt lat="28.28172710" lon="-16.8213001">
        <ele>755.25292</ele>
        <time>2009-09-22T12:36:02Z</time>
      </trkpt>
      <trkpt lat="28.28167420" lon="-16.8212634">
        <ele>755.73364</ele>
        <time>2009-09-22T12:36:05Z</time>
      </trkpt>
      <trkpt lat="28.28157290" lon="-16.8212251">
        <ele>756.69482</ele>
        <time>2009-09-22T12:36:09Z</time>
      </trkpt>
      <trkpt lat="28.28145780" lon="-16.8211961">
        <ele>757.17553</ele>
        <time>2009-09-22T12:36:14Z</time>
      </trkpt>
      <trkpt lat="28.28137130" lon="-16.8211682">
        <ele>757.65625</ele>
        <time>2009-09-22T12:36:17Z</time>
      </trkpt>
      <trkpt lat="28.28130660" lon="-16.8211495">
        <ele>756.69482</ele>
        <time>2009-09-22T12:36:20Z</time>
      </trkpt>
      <trkpt lat="28.28121450" lon="-16.8211536">
        <ele>755.73364</ele>
        <time>2009-09-22T12:36:24Z</time>
      </trkpt>
      <trkpt lat="28.28113170" lon="-16.8211640">
        <ele>754.77221</ele>
        <time>2009-09-22T12:36:27Z</time>
      </trkpt>
      <trkpt lat="28.28103060" lon="-16.8211505">
        <ele>755.73364</ele>
        <time>2009-09-22T12:36:31Z</time>
      </trkpt>
      <trkpt lat="28.28094710" lon="-16.8211633">
        <ele>757.17553</ele>
        <time>2009-09-22T12:36:35Z</time>
      </trkpt>
      <trkpt lat="28.28089170" lon="-16.8211648">
        <ele>758.13696</ele>
        <time>2009-09-22T12:36:37Z</time>
      </trkpt>
      <trkpt lat="28.28083020" lon="-16.8211600">
        <ele>757.65625</ele>
        <time>2009-09-22T12:36:39Z</time>
      </trkpt>
      <trkpt lat="28.28072650" lon="-16.8211255">
        <ele>759.09814</ele>
        <time>2009-09-22T12:36:44Z</time>
      </trkpt>
      <trkpt lat="28.28062580" lon="-16.8210696">
        <ele>759.09814</ele>
        <time>2009-09-22T12:36:48Z</time>
      </trkpt>
      <trkpt lat="28.28052350" lon="-16.8210381">
        <ele>759.57885</ele>
        <time>2009-09-22T12:36:52Z</time>
      </trkpt>
      <trkpt lat="28.28043380" lon="-16.8210158">
        <ele>759.57885</ele>
        <time>2009-09-22T12:36:56Z</time>
      </trkpt>
      <trkpt lat="28.28035980" lon="-16.8210001">
        <ele>759.57885</ele>
        <time>2009-09-22T12:36:59Z</time>
      </trkpt>
      <trkpt lat="28.28028460" lon="-16.8209780">
        <ele>757.65625</ele>
        <time>2009-09-22T12:37:02Z</time>
      </trkpt>
      <trkpt lat="28.28024320" lon="-16.8209631">
        <ele>756.21411</ele>
        <time>2009-09-22T12:37:04Z</time>
      </trkpt>
      <trkpt lat="28.28019900" lon="-16.8209335">
        <ele>755.25292</ele>
        <time>2009-09-22T12:37:06Z</time>
      </trkpt>
      <trkpt lat="28.28017340" lon="-16.8209269">
        <ele>755.25292</ele>
        <time>2009-09-22T12:37:07Z</time>
      </trkpt>
      <trkpt lat="28.28017340" lon="-16.8209380">
        <ele>756.69482</ele>
        <time>2009-09-22T12:37:07Z</time>
      </trkpt>
      <trkpt lat="28.28014880" lon="-16.8209346">
        <ele>754.77221</ele>
        <time>2009-09-22T12:37:08Z</time>
      </trkpt>
      <trkpt lat="28.28009880" lon="-16.8209209">
        <ele>752.36889</ele>
        <time>2009-09-22T12:37:10Z</time>
      </trkpt>
      <trkpt lat="28.28002820" lon="-16.8209053">
        <ele>751.40771</ele>
        <time>2009-09-22T12:37:13Z</time>
      </trkpt>
      <trkpt lat="28.27998190" lon="-16.8208978">
        <ele>750.44653</ele>
        <time>2009-09-22T12:37:15Z</time>
      </trkpt>
      <trkpt lat="28.27994620" lon="-16.8208884">
        <ele>749.96582</ele>
        <time>2009-09-22T12:37:17Z</time>
      </trkpt>
      <trkpt lat="28.27988930" lon="-16.8208908">
        <ele>749.48510</ele>
        <time>2009-09-22T12:37:19Z</time>
      </trkpt>
      <trkpt lat="28.27985880" lon="-16.8208944">
        <ele>748.52368</ele>
        <time>2009-09-22T12:37:20Z</time>
      </trkpt>
      <trkpt lat="28.27980860" lon="-16.8208889">
        <ele>747.56225</ele>
        <time>2009-09-22T12:37:22Z</time>
      </trkpt>
      <trkpt lat="28.27975900" lon="-16.8208832">
        <ele>746.60107</ele>
        <time>2009-09-22T12:37:24Z</time>
      </trkpt>
      <trkpt lat="28.27970920" lon="-16.8208808">
        <ele>745.15893</ele>
        <time>2009-09-22T12:37:26Z</time>
      </trkpt>
      <trkpt lat="28.27967130" lon="-16.8209105">
        <ele>743.23632</ele>
        <time>2009-09-22T12:37:28Z</time>
      </trkpt>
      <trkpt lat="28.27964160" lon="-16.8209318">
        <ele>741.79443</ele>
        <time>2009-09-22T12:37:29Z</time>
      </trkpt>
      <trkpt lat="28.27960800" lon="-16.8209571">
        <ele>741.79443</ele>
        <time>2009-09-22T12:37:31Z</time>
      </trkpt>
      <trkpt lat="28.27955870" lon="-16.8209718">
        <ele>741.31372</ele>
        <time>2009-09-22T12:37:33Z</time>
      </trkpt>
      <trkpt lat="28.27951620" lon="-16.8210025">
        <ele>740.35253</ele>
        <time>2009-09-22T12:37:35Z</time>
      </trkpt>
      <trkpt lat="28.27946510" lon="-16.8210392">
        <ele>739.39111</ele>
        <time>2009-09-22T12:37:37Z</time>
      </trkpt>
      <trkpt lat="28.27944130" lon="-16.8210226">
        <ele>737.46850</ele>
        <time>2009-09-22T12:37:39Z</time>
      </trkpt>
      <trkpt lat="28.27943770" lon="-16.8209936">
        <ele>735.06542</ele>
        <time>2009-09-22T12:37:40Z</time>
      </trkpt>
      <trkpt lat="28.27941780" lon="-16.8209514">
        <ele>732.66210</ele>
        <time>2009-09-22T12:37:41Z</time>
      </trkpt>
      <trkpt lat="28.27938230" lon="-16.8209110">
        <ele>729.77783</ele>
        <time>2009-09-22T12:37:43Z</time>
      </trkpt>
      <trkpt lat="28.27934290" lon="-16.8209029">
        <ele>728.81665</ele>
        <time>2009-09-22T12:37:45Z</time>
      </trkpt>
      <trkpt lat="28.27929400" lon="-16.8208895">
        <ele>727.85522</ele>
        <time>2009-09-22T12:37:47Z</time>
      </trkpt>
      <trkpt lat="28.27924070" lon="-16.8208724">
        <ele>725.45190</ele>
        <time>2009-09-22T12:37:49Z</time>
      </trkpt>
      <trkpt lat="28.27920660" lon="-16.8208413">
        <ele>724.01000</ele>
        <time>2009-09-22T12:37:51Z</time>
      </trkpt>
      <trkpt lat="28.27913880" lon="-16.8208188">
        <ele>722.08740</ele>
        <time>2009-09-22T12:37:54Z</time>
      </trkpt>
      <trkpt lat="28.27909380" lon="-16.8208404">
        <ele>720.64550</ele>
        <time>2009-09-22T12:37:56Z</time>
      </trkpt>
      <trkpt lat="28.27902480" lon="-16.8208428">
        <ele>718.24218</ele>
        <time>2009-09-22T12:37:58Z</time>
      </trkpt>
      <trkpt lat="28.27896270" lon="-16.8208600">
        <ele>717.28100</ele>
        <time>2009-09-22T12:38:01Z</time>
      </trkpt>
      <trkpt lat="28.27890320" lon="-16.8208714">
        <ele>717.76147</ele>
        <time>2009-09-22T12:38:03Z</time>
      </trkpt>
      <trkpt lat="28.27885340" lon="-16.8208831">
        <ele>717.28100</ele>
        <time>2009-09-22T12:38:05Z</time>
      </trkpt>
      <trkpt lat="28.27878580" lon="-16.8208983">
        <ele>717.28100</ele>
        <time>2009-09-22T12:38:08Z</time>
      </trkpt>
      <trkpt lat="28.27871450" lon="-16.8209118">
        <ele>716.31958</ele>
        <time>2009-09-22T12:38:11Z</time>
      </trkpt>
      <trkpt lat="28.27866290" lon="-16.8209334">
        <ele>714.87744</ele>
        <time>2009-09-22T12:38:13Z</time>
      </trkpt>
      <trkpt lat="28.27860740" lon="-16.8209505">
        <ele>712.95483</ele>
        <time>2009-09-22T12:38:16Z</time>
      </trkpt>
      <trkpt lat="28.27858030" lon="-16.8209527">
        <ele>711.51293</ele>
        <time>2009-09-22T12:38:17Z</time>
      </trkpt>
      <trkpt lat="28.27853170" lon="-16.8209521">
        <ele>709.59033</ele>
        <time>2009-09-22T12:38:19Z</time>
      </trkpt>
      <trkpt lat="28.27848920" lon="-16.8209522">
        <ele>706.70629</ele>
        <time>2009-09-22T12:38:20Z</time>
      </trkpt>
      <trkpt lat="28.27846150" lon="-16.8209485">
        <ele>704.30322</ele>
        <time>2009-09-22T12:38:21Z</time>
      </trkpt>
      <trkpt lat="28.27843110" lon="-16.8209393">
        <ele>703.34179</ele>
        <time>2009-09-22T12:38:23Z</time>
      </trkpt>
      <trkpt lat="28.27838190" lon="-16.8209340">
        <ele>703.82250</ele>
        <time>2009-09-22T12:38:25Z</time>
      </trkpt>
      <trkpt lat="28.27834350" lon="-16.8209268">
        <ele>705.26440</ele>
        <time>2009-09-22T12:38:26Z</time>
      </trkpt>
      <trkpt lat="28.27831720" lon="-16.8209201">
        <ele>704.30322</ele>
        <time>2009-09-22T12:38:27Z</time>
      </trkpt>
      <trkpt lat="28.27827950" lon="-16.8209322">
        <ele>703.34179</ele>
        <time>2009-09-22T12:38:29Z</time>
      </trkpt>
      <trkpt lat="28.27820590" lon="-16.8209483">
        <ele>702.86108</ele>
        <time>2009-09-22T12:38:32Z</time>
      </trkpt>
      <trkpt lat="28.27814530" lon="-16.8209554">
        <ele>702.86108</ele>
        <time>2009-09-22T12:38:34Z</time>
      </trkpt>
      <trkpt lat="28.27810840" lon="-16.8209629">
        <ele>702.38037</ele>
        <time>2009-09-22T12:38:36Z</time>
      </trkpt>
      <trkpt lat="28.27808250" lon="-16.8209524">
        <ele>701.89990</ele>
        <time>2009-09-22T12:38:37Z</time>
      </trkpt>
      <trkpt lat="28.27803280" lon="-16.8209531">
        <ele>700.45800</ele>
        <time>2009-09-22T12:38:39Z</time>
      </trkpt>
      <trkpt lat="28.27799340" lon="-16.8209429">
        <ele>700.45800</ele>
        <time>2009-09-22T12:38:41Z</time>
      </trkpt>
      <trkpt lat="28.27797860" lon="-16.8209372">
        <ele>700.45800</ele>
        <time>2009-09-22T12:38:41Z</time>
      </trkpt>
      <trkpt lat="28.27797990" lon="-16.8209314">
        <ele>698.53491</ele>
        <time>2009-09-22T12:38:41Z</time>
      </trkpt>
      <trkpt lat="28.27798260" lon="-16.8209369">
        <ele>699.01562</ele>
        <time>2009-09-22T12:38:42Z</time>
      </trkpt>
      <trkpt lat="28.27796600" lon="-16.8209428">
        <ele>698.53491</ele>
        <time>2009-09-22T12:38:42Z</time>
      </trkpt>
      <trkpt lat="28.27795720" lon="-16.8209440">
        <ele>697.57373</ele>
        <time>2009-09-22T12:38:43Z</time>
      </trkpt>
      <trkpt lat="28.27792660" lon="-16.8209356">
        <ele>696.61254</ele>
        <time>2009-09-22T12:38:44Z</time>
      </trkpt>
      <trkpt lat="28.27786290" lon="-16.8209428">
        <ele>693.72851</ele>
        <time>2009-09-22T12:38:47Z</time>
      </trkpt>
      <trkpt lat="28.27779870" lon="-16.8209566">
        <ele>692.76733</ele>
        <time>2009-09-22T12:38:49Z</time>
      </trkpt>
      <trkpt lat="28.27777950" lon="-16.8209537">
        <ele>692.76733</ele>
        <time>2009-09-22T12:38:50Z</time>
      </trkpt>
      <trkpt lat="28.27771270" lon="-16.8209533">
        <ele>692.76733</ele>
        <time>2009-09-22T12:38:53Z</time>
      </trkpt>
      <trkpt lat="28.27761750" lon="-16.8209490">
        <ele>693.24780</ele>
        <time>2009-09-22T12:38:56Z</time>
      </trkpt>
      <trkpt lat="28.27756140" lon="-16.8209418">
        <ele>694.20922</ele>
        <time>2009-09-22T12:38:59Z</time>
      </trkpt>
      <trkpt lat="28.27753430" lon="-16.8209139">
        <ele>695.17041</ele>
        <time>2009-09-22T12:39:00Z</time>
      </trkpt>
      <trkpt lat="28.27749770" lon="-16.8209226">
        <ele>694.68969</ele>
        <time>2009-09-22T12:39:02Z</time>
      </trkpt>
      <trkpt lat="28.27749060" lon="-16.8209405">
        <ele>694.20922</ele>
        <time>2009-09-22T12:39:02Z</time>
      </trkpt>
      <trkpt lat="28.27746180" lon="-16.8209756">
        <ele>693.72851</ele>
        <time>2009-09-22T12:39:04Z</time>
      </trkpt>
      <trkpt lat="28.27740710" lon="-16.8210056">
        <ele>693.24780</ele>
        <time>2009-09-22T12:39:06Z</time>
      </trkpt>
      <trkpt lat="28.27735480" lon="-16.8210301">
        <ele>693.24780</ele>
        <time>2009-09-22T12:39:09Z</time>
      </trkpt>
      <trkpt lat="28.27729220" lon="-16.8210489">
        <ele>691.32519</ele>
        <time>2009-09-22T12:39:11Z</time>
      </trkpt>
      <trkpt lat="28.27722950" lon="-16.8210398">
        <ele>690.84448</ele>
        <time>2009-09-22T12:39:14Z</time>
      </trkpt>
      <trkpt lat="28.27720560" lon="-16.8210376">
        <ele>690.84448</ele>
        <time>2009-09-22T12:39:15Z</time>
      </trkpt>
      <trkpt lat="28.27709110" lon="-16.8210552">
        <ele>689.40258</ele>
        <time>2009-09-22T12:39:19Z</time>
      </trkpt>
      <trkpt lat="28.27704820" lon="-16.8211227">
        <ele>687.96069</ele>
        <time>2009-09-22T12:39:22Z</time>
      </trkpt>
      <trkpt lat="28.27701640" lon="-16.8211695">
        <ele>686.51879</ele>
        <time>2009-09-22T12:39:24Z</time>
      </trkpt>
      <trkpt lat="28.27699140" lon="-16.8212044">
        <ele>685.07690</ele>
        <time>2009-09-22T12:39:26Z</time>
      </trkpt>
      <trkpt lat="28.27697330" lon="-16.8212130">
        <ele>684.11547</ele>
        <time>2009-09-22T12:39:27Z</time>
      </trkpt>
      <trkpt lat="28.27693780" lon="-16.8211942">
        <ele>681.23144</ele>
        <time>2009-09-22T12:39:28Z</time>
      </trkpt>
      <trkpt lat="28.27689410" lon="-16.8211992">
        <ele>679.30859</ele>
        <time>2009-09-22T12:39:30Z</time>
      </trkpt>
      <trkpt lat="28.27685730" lon="-16.8211999">
        <ele>678.82812</ele>
        <time>2009-09-22T12:39:32Z</time>
      </trkpt>
      <trkpt lat="28.27681230" lon="-16.8212024">
        <ele>676.90551</ele>
        <time>2009-09-22T12:39:33Z</time>
      </trkpt>
      <trkpt lat="28.27677500" lon="-16.8212270">
        <ele>674.98291</ele>
        <time>2009-09-22T12:39:35Z</time>
      </trkpt>
      <trkpt lat="28.27673530" lon="-16.8212494">
        <ele>673.54101</ele>
        <time>2009-09-22T12:39:37Z</time>
      </trkpt>
      <trkpt lat="28.27671270" lon="-16.8212555">
        <ele>673.54101</ele>
        <time>2009-09-22T12:39:38Z</time>
      </trkpt>
      <trkpt lat="28.27666780" lon="-16.8212733">
        <ele>673.06030</ele>
        <time>2009-09-22T12:39:40Z</time>
      </trkpt>
      <trkpt lat="28.27662360" lon="-16.8212887">
        <ele>672.09887</ele>
        <time>2009-09-22T12:39:42Z</time>
      </trkpt>
      <trkpt lat="28.27652710" lon="-16.8213453">
        <ele>669.21508</ele>
        <time>2009-09-22T12:39:46Z</time>
      </trkpt>
      <trkpt lat="28.27646160" lon="-16.8213799">
        <ele>669.21508</ele>
        <time>2009-09-22T12:39:49Z</time>
      </trkpt>
      <trkpt lat="28.27639740" lon="-16.8213920">
        <ele>670.17626</ele>
        <time>2009-09-22T12:39:51Z</time>
      </trkpt>
      <trkpt lat="28.27635690" lon="-16.8213965">
        <ele>670.17626</ele>
        <time>2009-09-22T12:39:53Z</time>
      </trkpt>
      <trkpt lat="28.27632990" lon="-16.8213593">
        <ele>671.13769</ele>
        <time>2009-09-22T12:39:55Z</time>
      </trkpt>
      <trkpt lat="28.27625880" lon="-16.8213515">
        <ele>669.69580</ele>
        <time>2009-09-22T12:39:58Z</time>
      </trkpt>
      <trkpt lat="28.27618780" lon="-16.8213515">
        <ele>668.73437</ele>
        <time>2009-09-22T12:40:00Z</time>
      </trkpt>
      <trkpt lat="28.27613740" lon="-16.8213438">
        <ele>668.73437</ele>
        <time>2009-09-22T12:40:02Z</time>
      </trkpt>
      <trkpt lat="28.27611130" lon="-16.8213468">
        <ele>667.29223</ele>
        <time>2009-09-22T12:40:04Z</time>
      </trkpt>
      <trkpt lat="28.27607380" lon="-16.8213558">
        <ele>666.33081</ele>
        <time>2009-09-22T12:40:05Z</time>
      </trkpt>
      <trkpt lat="28.27603940" lon="-16.8213603">
        <ele>664.40820</ele>
        <time>2009-09-22T12:40:06Z</time>
      </trkpt>
      <trkpt lat="28.27601290" lon="-16.8213630">
        <ele>664.40820</ele>
        <time>2009-09-22T12:40:08Z</time>
      </trkpt>
      <trkpt lat="28.27598880" lon="-16.8213746">
        <ele>663.92749</ele>
        <time>2009-09-22T12:40:09Z</time>
      </trkpt>
      <trkpt lat="28.27598460" lon="-16.8213492">
        <ele>664.40820</ele>
        <time>2009-09-22T12:40:09Z</time>
      </trkpt>
      <trkpt lat="28.27595110" lon="-16.8213601">
        <ele>663.92749</ele>
        <time>2009-09-22T12:40:11Z</time>
      </trkpt>
      <trkpt lat="28.27590960" lon="-16.8213842">
        <ele>662.96630</ele>
        <time>2009-09-22T12:40:13Z</time>
      </trkpt>
      <trkpt lat="28.27587220" lon="-16.8213950">
        <ele>662.96630</ele>
        <time>2009-09-22T12:40:14Z</time>
      </trkpt>
      <trkpt lat="28.27581060" lon="-16.8214189">
        <ele>662.96630</ele>
        <time>2009-09-22T12:40:17Z</time>
      </trkpt>
      <trkpt lat="28.27579090" lon="-16.8214373">
        <ele>662.48559</ele>
        <time>2009-09-22T12:40:18Z</time>
      </trkpt>
      <trkpt lat="28.27573550" lon="-16.8214712">
        <ele>659.60180</ele>
        <time>2009-09-22T12:40:20Z</time>
      </trkpt>
      <trkpt lat="28.27568360" lon="-16.8214951">
        <ele>658.64038</ele>
        <time>2009-09-22T12:40:23Z</time>
      </trkpt>
      <trkpt lat="28.27565780" lon="-16.8214933">
        <ele>657.19848</ele>
        <time>2009-09-22T12:40:24Z</time>
      </trkpt>
      <trkpt lat="28.27562610" lon="-16.8215121">
        <ele>655.75659</ele>
        <time>2009-09-22T12:40:25Z</time>
      </trkpt>
      <trkpt lat="28.27557430" lon="-16.8215427">
        <ele>655.75659</ele>
        <time>2009-09-22T12:40:27Z</time>
      </trkpt>
      <trkpt lat="28.27552510" lon="-16.8215652">
        <ele>653.35327</ele>
        <time>2009-09-22T12:40:30Z</time>
      </trkpt>
      <trkpt lat="28.27547080" lon="-16.8215867">
        <ele>652.39184</ele>
        <time>2009-09-22T12:40:32Z</time>
      </trkpt>
      <trkpt lat="28.27540030" lon="-16.8216105">
        <ele>651.43041</ele>
        <time>2009-09-22T12:40:35Z</time>
      </trkpt>
      <trkpt lat="28.27537180" lon="-16.8216140">
        <ele>651.91113</ele>
        <time>2009-09-22T12:40:36Z</time>
      </trkpt>
      <trkpt lat="28.27531340" lon="-16.8216364">
        <ele>650.46923</ele>
        <time>2009-09-22T12:40:38Z</time>
      </trkpt>
      <trkpt lat="28.27526760" lon="-16.8216446">
        <ele>649.50781</ele>
        <time>2009-09-22T12:40:40Z</time>
      </trkpt>
      <trkpt lat="28.27521060" lon="-16.8216562">
        <ele>649.02709</ele>
        <time>2009-09-22T12:40:43Z</time>
      </trkpt>
      <trkpt lat="28.27516000" lon="-16.8216694">
        <ele>649.02709</ele>
        <time>2009-09-22T12:40:45Z</time>
      </trkpt>
      <trkpt lat="28.27508830" lon="-16.8216975">
        <ele>648.54638</ele>
        <time>2009-09-22T12:40:48Z</time>
      </trkpt>
      <trkpt lat="28.27504940" lon="-16.8216847">
        <ele>648.54638</ele>
        <time>2009-09-22T12:40:49Z</time>
      </trkpt>
      <trkpt lat="28.27497150" lon="-16.8217114">
        <ele>648.06591</ele>
        <time>2009-09-22T12:40:53Z</time>
      </trkpt>
      <trkpt lat="28.27489160" lon="-16.8217155">
        <ele>648.06591</ele>
        <time>2009-09-22T12:40:56Z</time>
      </trkpt>
      <trkpt lat="28.27484810" lon="-16.8217230">
        <ele>646.14331</ele>
        <time>2009-09-22T12:40:58Z</time>
      </trkpt>
      <trkpt lat="28.27482310" lon="-16.8217396">
        <ele>644.70117</ele>
        <time>2009-09-22T12:40:59Z</time>
      </trkpt>
      <trkpt lat="28.27479430" lon="-16.8217334">
        <ele>643.25927</ele>
        <time>2009-09-22T12:41:00Z</time>
      </trkpt>
      <trkpt lat="28.27479020" lon="-16.8217194">
        <ele>641.81738</ele>
        <time>2009-09-22T12:41:00Z</time>
      </trkpt>
      <trkpt lat="28.27478230" lon="-16.8216909">
        <ele>640.37548</ele>
        <time>2009-09-22T12:41:01Z</time>
      </trkpt>
      <trkpt lat="28.27474690" lon="-16.8216847">
        <ele>639.41406</ele>
        <time>2009-09-22T12:41:03Z</time>
      </trkpt>
      <trkpt lat="28.27469880" lon="-16.8216727">
        <ele>637.49145</ele>
        <time>2009-09-22T12:41:05Z</time>
      </trkpt>
      <trkpt lat="28.27464040" lon="-16.8216526">
        <ele>636.53027</ele>
        <time>2009-09-22T12:41:07Z</time>
      </trkpt>
      <trkpt lat="28.27457200" lon="-16.8216293">
        <ele>637.01074</ele>
        <time>2009-09-22T12:41:10Z</time>
      </trkpt>
      <trkpt lat="28.27449800" lon="-16.8216279">
        <ele>637.01074</ele>
        <time>2009-09-22T12:41:13Z</time>
      </trkpt>
      <trkpt lat="28.27443040" lon="-16.8216386">
        <ele>635.56860</ele>
        <time>2009-09-22T12:41:16Z</time>
      </trkpt>
      <trkpt lat="28.27436440" lon="-16.8216354">
        <ele>633.16528</ele>
        <time>2009-09-22T12:41:19Z</time>
      </trkpt>
      <trkpt lat="28.27431920" lon="-16.8216535">
        <ele>632.20410</ele>
        <time>2009-09-22T12:41:20Z</time>
      </trkpt>
      <trkpt lat="28.27421510" lon="-16.8216963">
        <ele>628.35888</ele>
        <time>2009-09-22T12:41:25Z</time>
      </trkpt>
      <trkpt lat="28.27415970" lon="-16.8217244">
        <ele>629.32006</ele>
        <time>2009-09-22T12:41:27Z</time>
      </trkpt>
      <trkpt lat="28.27410510" lon="-16.8217492">
        <ele>628.83959</ele>
        <time>2009-09-22T12:41:30Z</time>
      </trkpt>
      <trkpt lat="28.27404220" lon="-16.8217908">
        <ele>629.32006</ele>
        <time>2009-09-22T12:41:33Z</time>
      </trkpt>
      <trkpt lat="28.27400870" lon="-16.8218006">
        <ele>629.80078</ele>
        <time>2009-09-22T12:41:34Z</time>
      </trkpt>
      <trkpt lat="28.27395260" lon="-16.8218160">
        <ele>631.24291</ele>
        <time>2009-09-22T12:41:36Z</time>
      </trkpt>
      <trkpt lat="28.27390530" lon="-16.8218529">
        <ele>629.80078</ele>
        <time>2009-09-22T12:41:39Z</time>
      </trkpt>
      <trkpt lat="28.27387740" lon="-16.8218603">
        <ele>628.35888</ele>
        <time>2009-09-22T12:41:40Z</time>
      </trkpt>
      <trkpt lat="28.27384110" lon="-16.8218668">
        <ele>626.91699</ele>
        <time>2009-09-22T12:41:41Z</time>
      </trkpt>
      <trkpt lat="28.27380800" lon="-16.8218707">
        <ele>626.91699</ele>
        <time>2009-09-22T12:41:43Z</time>
      </trkpt>
      <trkpt lat="28.27378520" lon="-16.8218924">
        <ele>626.43627</ele>
        <time>2009-09-22T12:41:44Z</time>
      </trkpt>
      <trkpt lat="28.27375800" lon="-16.8218943">
        <ele>626.43627</ele>
        <time>2009-09-22T12:41:45Z</time>
      </trkpt>
      <trkpt lat="28.27375620" lon="-16.8218957">
        <ele>627.87817</ele>
        <time>2009-09-22T12:41:45Z</time>
      </trkpt>
      <trkpt lat="28.27373110" lon="-16.8219048">
        <ele>627.39770</ele>
        <time>2009-09-22T12:41:46Z</time>
      </trkpt>
      <trkpt lat="28.27370900" lon="-16.8219073">
        <ele>626.91699</ele>
        <time>2009-09-22T12:41:47Z</time>
      </trkpt>
      <trkpt lat="28.27373030" lon="-16.8218980">
        <ele>628.35888</ele>
        <time>2009-09-22T12:41:48Z</time>
      </trkpt>
      <trkpt lat="28.27375350" lon="-16.8218852">
        <ele>627.87817</ele>
        <time>2009-09-22T12:41:49Z</time>
      </trkpt>
      <trkpt lat="28.27376290" lon="-16.8218778">
        <ele>627.39770</ele>
        <time>2009-09-22T12:41:49Z</time>
      </trkpt>
      <trkpt lat="28.27376080" lon="-16.8218593">
        <ele>626.91699</ele>
        <time>2009-09-22T12:41:50Z</time>
      </trkpt>
      <trkpt lat="28.27375810" lon="-16.8218561">
        <ele>627.87817</ele>
        <time>2009-09-22T12:41:50Z</time>
      </trkpt>
      <trkpt lat="28.27375440" lon="-16.8218875">
        <ele>627.39770</ele>
        <time>2009-09-22T12:41:51Z</time>
      </trkpt>
      <trkpt lat="28.27373490" lon="-16.8219084">
        <ele>626.43627</ele>
        <time>2009-09-22T12:41:52Z</time>
      </trkpt>
      <trkpt lat="28.27367420" lon="-16.8219251">
        <ele>624.03295</ele>
        <time>2009-09-22T12:41:55Z</time>
      </trkpt>
      <trkpt lat="28.27362410" lon="-16.8219563">
        <ele>621.62963</ele>
        <time>2009-09-22T12:41:57Z</time>
      </trkpt>
      <trkpt lat="28.27357430" lon="-16.8219950">
        <ele>618.74560</ele>
        <time>2009-09-22T12:41:59Z</time>
      </trkpt>
      <trkpt lat="28.27353200" lon="-16.8220186">
        <ele>616.82299</ele>
        <time>2009-09-22T12:42:01Z</time>
      </trkpt>
      <trkpt lat="28.27348890" lon="-16.8220491">
        <ele>615.38110</ele>
        <time>2009-09-22T12:42:03Z</time>
      </trkpt>
      <trkpt lat="28.27343480" lon="-16.8220865">
        <ele>616.82299</ele>
        <time>2009-09-22T12:42:06Z</time>
      </trkpt>
      <trkpt lat="28.27339090" lon="-16.8221143">
        <ele>615.86181</ele>
        <time>2009-09-22T12:42:08Z</time>
      </trkpt>
      <trkpt lat="28.27333690" lon="-16.8221307">
        <ele>614.41967</ele>
        <time>2009-09-22T12:42:10Z</time>
      </trkpt>
      <trkpt lat="28.27329200" lon="-16.8221102">
        <ele>615.86181</ele>
        <time>2009-09-22T12:42:12Z</time>
      </trkpt>
      <trkpt lat="28.27322990" lon="-16.8221270">
        <ele>615.38110</ele>
        <time>2009-09-22T12:42:15Z</time>
      </trkpt>
      <trkpt lat="28.27321750" lon="-16.8221290">
        <ele>614.90039</ele>
        <time>2009-09-22T12:42:15Z</time>
      </trkpt>
      <trkpt lat="28.27318420" lon="-16.8221257">
        <ele>614.90039</ele>
        <time>2009-09-22T12:42:16Z</time>
      </trkpt>
      <trkpt lat="28.27310400" lon="-16.8221389">
        <ele>612.97778</ele>
        <time>2009-09-22T12:42:20Z</time>
      </trkpt>
      <trkpt lat="28.27308530" lon="-16.8221362">
        <ele>612.49707</ele>
        <time>2009-09-22T12:42:20Z</time>
      </trkpt>
      <trkpt lat="28.27304080" lon="-16.8221820">
        <ele>611.05517</ele>
        <time>2009-09-22T12:42:23Z</time>
      </trkpt>
      <trkpt lat="28.27300080" lon="-16.8222264">
        <ele>610.09375</ele>
        <time>2009-09-22T12:42:25Z</time>
      </trkpt>
      <trkpt lat="28.27295020" lon="-16.8222622">
        <ele>610.09375</ele>
        <time>2009-09-22T12:42:28Z</time>
      </trkpt>
      <trkpt lat="28.27293750" lon="-16.8222659">
        <ele>610.09375</ele>
        <time>2009-09-22T12:42:28Z</time>
      </trkpt>
      <trkpt lat="28.27286160" lon="-16.8223056">
        <ele>610.57446</ele>
        <time>2009-09-22T12:42:31Z</time>
      </trkpt>
      <trkpt lat="28.27280770" lon="-16.8223414">
        <ele>611.05517</ele>
        <time>2009-09-22T12:42:34Z</time>
      </trkpt>
      <trkpt lat="28.27271810" lon="-16.8223793">
        <ele>611.53588</ele>
        <time>2009-09-22T12:42:38Z</time>
      </trkpt>
      <trkpt lat="28.27271020" lon="-16.8223829">
        <ele>611.05517</ele>
        <time>2009-09-22T12:42:38Z</time>
      </trkpt>
      <trkpt lat="28.27264120" lon="-16.8223961">
        <ele>609.13256</ele>
        <time>2009-09-22T12:42:41Z</time>
      </trkpt>
      <trkpt lat="28.27261190" lon="-16.8223601">
        <ele>610.09375</ele>
        <time>2009-09-22T12:42:43Z</time>
      </trkpt>
      <trkpt lat="28.27254960" lon="-16.8223428">
        <ele>608.17138</ele>
        <time>2009-09-22T12:42:45Z</time>
      </trkpt>
      <trkpt lat="28.27251040" lon="-16.8223573">
        <ele>607.69067</ele>
        <time>2009-09-22T12:42:47Z</time>
      </trkpt>
      <trkpt lat="28.27245170" lon="-16.8223874">
        <ele>607.20996</ele>
        <time>2009-09-22T12:42:49Z</time>
      </trkpt>
      <trkpt lat="28.27241410" lon="-16.8223830">
        <ele>607.20996</ele>
        <time>2009-09-22T12:42:51Z</time>
      </trkpt>
      <trkpt lat="28.27240630" lon="-16.8223741">
        <ele>606.72924</ele>
        <time>2009-09-22T12:42:51Z</time>
      </trkpt>
      <trkpt lat="28.27237860" lon="-16.8223824">
        <ele>606.24853</ele>
        <time>2009-09-22T12:42:52Z</time>
      </trkpt>
      <trkpt lat="28.27234800" lon="-16.8223755">
        <ele>605.76806</ele>
        <time>2009-09-22T12:42:54Z</time>
      </trkpt>
      <trkpt lat="28.27228810" lon="-16.8223818">
        <ele>603.84521</ele>
        <time>2009-09-22T12:42:56Z</time>
      </trkpt>
      <trkpt lat="28.27225810" lon="-16.8223879">
        <ele>602.40307</ele>
        <time>2009-09-22T12:42:57Z</time>
      </trkpt>
      <trkpt lat="28.27221870" lon="-16.8224241">
        <ele>602.40307</ele>
        <time>2009-09-22T12:42:59Z</time>
      </trkpt>
      <trkpt lat="28.27217290" lon="-16.8224601">
        <ele>603.36450</ele>
        <time>2009-09-22T12:43:02Z</time>
      </trkpt>
      <trkpt lat="28.27215450" lon="-16.8225081">
        <ele>602.88378</ele>
        <time>2009-09-22T12:43:03Z</time>
      </trkpt>
      <trkpt lat="28.27214600" lon="-16.8225196">
        <ele>602.88378</ele>
        <time>2009-09-22T12:43:04Z</time>
      </trkpt>
      <trkpt lat="28.27211290" lon="-16.8225542">
        <ele>602.40307</ele>
        <time>2009-09-22T12:43:06Z</time>
      </trkpt>
      <trkpt lat="28.27205040" lon="-16.8225718">
        <ele>602.40307</ele>
        <time>2009-09-22T12:43:08Z</time>
      </trkpt>
      <trkpt lat="28.27204400" lon="-16.8225674">
        <ele>602.40307</ele>
        <time>2009-09-22T12:43:09Z</time>
      </trkpt>
      <trkpt lat="28.27198300" lon="-16.8225697">
        <ele>601.92260</ele>
        <time>2009-09-22T12:43:11Z</time>
      </trkpt>
      <trkpt lat="28.27195790" lon="-16.8225761">
        <ele>600.96118</ele>
        <time>2009-09-22T12:43:12Z</time>
      </trkpt>
      <trkpt lat="28.27192220" lon="-16.8225788">
        <ele>602.40307</ele>
        <time>2009-09-22T12:43:14Z</time>
      </trkpt>
      <trkpt lat="28.27187250" lon="-16.8225734">
        <ele>601.92260</ele>
        <time>2009-09-22T12:43:16Z</time>
      </trkpt>
      <trkpt lat="28.27184270" lon="-16.8225678">
        <ele>600.48071</ele>
        <time>2009-09-22T12:43:17Z</time>
      </trkpt>
      <trkpt lat="28.27184580" lon="-16.8225606">
        <ele>599.03857</ele>
        <time>2009-09-22T12:43:17Z</time>
      </trkpt>
      <trkpt lat="28.27186630" lon="-16.8225568">
        <ele>596.63549</ele>
        <time>2009-09-22T12:43:18Z</time>
      </trkpt>
      <trkpt lat="28.27188660" lon="-16.8225418">
        <ele>595.67407</ele>
        <time>2009-09-22T12:43:19Z</time>
      </trkpt>
      <trkpt lat="28.27189350" lon="-16.8225372">
        <ele>596.15478</ele>
        <time>2009-09-22T12:43:19Z</time>
      </trkpt>
      <trkpt lat="28.27191010" lon="-16.8225101">
        <ele>596.15478</ele>
        <time>2009-09-22T12:43:20Z</time>
      </trkpt>
      <trkpt lat="28.27192430" lon="-16.8224859">
        <ele>596.63549</ele>
        <time>2009-09-22T12:43:21Z</time>
      </trkpt>
      <trkpt lat="28.27192130" lon="-16.8224683">
        <ele>596.15478</ele>
        <time>2009-09-22T12:43:22Z</time>
      </trkpt>
      <trkpt lat="28.27191750" lon="-16.8224490">
        <ele>595.67407</ele>
        <time>2009-09-22T12:43:23Z</time>
      </trkpt>
      <trkpt lat="28.27187410" lon="-16.8223766">
        <ele>596.15478</ele>
        <time>2009-09-22T12:43:26Z</time>
      </trkpt>
      <trkpt lat="28.27188230" lon="-16.8223290">
        <ele>596.63549</ele>
        <time>2009-09-22T12:43:28Z</time>
      </trkpt>
      <trkpt lat="28.27186830" lon="-16.8223304">
        <ele>597.11596</ele>
        <time>2009-09-22T12:43:28Z</time>
      </trkpt>
      <trkpt lat="28.27182150" lon="-16.8223190">
        <ele>595.67407</ele>
        <time>2009-09-22T12:43:30Z</time>
      </trkpt>
      <trkpt lat="28.27176450" lon="-16.8223102">
        <ele>594.71264</ele>
        <time>2009-09-22T12:43:32Z</time>
      </trkpt>
      <trkpt lat="28.27175350" lon="-16.8223026">
        <ele>594.71264</ele>
        <time>2009-09-22T12:43:33Z</time>
      </trkpt>
      <trkpt lat="28.27169870" lon="-16.8222559">
        <ele>594.23217</ele>
        <time>2009-09-22T12:43:36Z</time>
      </trkpt>
      <trkpt lat="28.27166530" lon="-16.8222237">
        <ele>594.71264</ele>
        <time>2009-09-22T12:43:37Z</time>
      </trkpt>
      <trkpt lat="28.27163140" lon="-16.8222021">
        <ele>594.71264</ele>
        <time>2009-09-22T12:43:39Z</time>
      </trkpt>
      <trkpt lat="28.27158090" lon="-16.8221918">
        <ele>592.79028</ele>
        <time>2009-09-22T12:43:41Z</time>
      </trkpt>
      <trkpt lat="28.27152730" lon="-16.8221653">
        <ele>591.34814</ele>
        <time>2009-09-22T12:43:43Z</time>
      </trkpt>
      <trkpt lat="28.27148670" lon="-16.8221551">
        <ele>590.38696</ele>
        <time>2009-09-22T12:43:45Z</time>
      </trkpt>
      <trkpt lat="28.27143870" lon="-16.8221276">
        <ele>589.90625</ele>
        <time>2009-09-22T12:43:47Z</time>
      </trkpt>
      <trkpt lat="28.27138780" lon="-16.8220900">
        <ele>589.42553</ele>
        <time>2009-09-22T12:43:50Z</time>
      </trkpt>
      <trkpt lat="28.27134720" lon="-16.8220730">
        <ele>588.46435</ele>
        <time>2009-09-22T12:43:51Z</time>
      </trkpt>
      <trkpt lat="28.27128630" lon="-16.8220492">
        <ele>587.02197</ele>
        <time>2009-09-22T12:43:54Z</time>
      </trkpt>
      <trkpt lat="28.27124340" lon="-16.8220268">
        <ele>587.02197</ele>
        <time>2009-09-22T12:43:56Z</time>
      </trkpt>
      <trkpt lat="28.27114880" lon="-16.8219795">
        <ele>587.50268</ele>
        <time>2009-09-22T12:44:00Z</time>
      </trkpt>
      <trkpt lat="28.27106820" lon="-16.8219106">
        <ele>588.46435</ele>
        <time>2009-09-22T12:44:04Z</time>
      </trkpt>
      <trkpt lat="28.27101230" lon="-16.8218225">
        <ele>589.42553</ele>
        <time>2009-09-22T12:44:08Z</time>
      </trkpt>
      <trkpt lat="28.27097500" lon="-16.8217461">
        <ele>590.38696</ele>
        <time>2009-09-22T12:44:11Z</time>
      </trkpt>
      <trkpt lat="28.27093570" lon="-16.8216282">
        <ele>590.86743</ele>
        <time>2009-09-22T12:44:15Z</time>
      </trkpt>
      <trkpt lat="28.27087960" lon="-16.8215421">
        <ele>590.38696</ele>
        <time>2009-09-22T12:44:19Z</time>
      </trkpt>
      <trkpt lat="28.27080610" lon="-16.8214682">
        <ele>589.42553</ele>
        <time>2009-09-22T12:44:23Z</time>
      </trkpt>
      <trkpt lat="28.27068860" lon="-16.8214195">
        <ele>588.94506</ele>
        <time>2009-09-22T12:44:28Z</time>
      </trkpt>
      <trkpt lat="28.27056830" lon="-16.8213475">
        <ele>590.38696</ele>
        <time>2009-09-22T12:44:33Z</time>
      </trkpt>
      <trkpt lat="28.27050620" lon="-16.8212457">
        <ele>589.90625</ele>
        <time>2009-09-22T12:44:38Z</time>
      </trkpt>
      <trkpt lat="28.27041700" lon="-16.8211442">
        <ele>589.90625</ele>
        <time>2009-09-22T12:44:43Z</time>
      </trkpt>
      <trkpt lat="28.27031700" lon="-16.8210759">
        <ele>590.86743</ele>
        <time>2009-09-22T12:44:47Z</time>
      </trkpt>
      <trkpt lat="28.27021770" lon="-16.8210488">
        <ele>591.34814</ele>
        <time>2009-09-22T12:44:52Z</time>
      </trkpt>
      <trkpt lat="28.27017680" lon="-16.8210392">
        <ele>590.38696</ele>
        <time>2009-09-22T12:44:53Z</time>
      </trkpt>
      <trkpt lat="28.27015250" lon="-16.8209818">
        <ele>590.86743</ele>
        <time>2009-09-22T12:44:55Z</time>
      </trkpt>
      <trkpt lat="28.27013770" lon="-16.8209019">
        <ele>590.86743</ele>
        <time>2009-09-22T12:44:58Z</time>
      </trkpt>
      <trkpt lat="28.27013110" lon="-16.8208839">
        <ele>590.38696</ele>
        <time>2009-09-22T12:44:59Z</time>
      </trkpt>
      <trkpt lat="28.27010410" lon="-16.8208765">
        <ele>589.42553</ele>
        <time>2009-09-22T12:45:00Z</time>
      </trkpt>
      <trkpt lat="28.27009290" lon="-16.8208780">
        <ele>588.94506</ele>
        <time>2009-09-22T12:45:01Z</time>
      </trkpt>
      <trkpt lat="28.26996480" lon="-16.8208880">
        <ele>587.98339</ele>
        <time>2009-09-22T12:45:06Z</time>
      </trkpt>
      <trkpt lat="28.26984360" lon="-16.8209096">
        <ele>589.42553</ele>
        <time>2009-09-22T12:45:11Z</time>
      </trkpt>
      <trkpt lat="28.26969840" lon="-16.8209189">
        <ele>589.90625</ele>
        <time>2009-09-22T12:45:16Z</time>
      </trkpt>
      <trkpt lat="28.26961780" lon="-16.8209003">
        <ele>589.90625</ele>
        <time>2009-09-22T12:45:20Z</time>
      </trkpt>
      <trkpt lat="28.26954140" lon="-16.8208770">
        <ele>590.38696</ele>
        <time>2009-09-22T12:45:23Z</time>
      </trkpt>
      <trkpt lat="28.26952740" lon="-16.8208692">
        <ele>590.38696</ele>
        <time>2009-09-22T12:45:24Z</time>
      </trkpt>
      <trkpt lat="28.26944570" lon="-16.8208759">
        <ele>595.19335</ele>
        <time>2009-09-22T12:45:27Z</time>
      </trkpt>
      <trkpt lat="28.26941020" lon="-16.8208821">
        <ele>596.15478</ele>
        <time>2009-09-22T12:45:28Z</time>
      </trkpt>
      <trkpt lat="28.26930020" lon="-16.8208630">
        <ele>601.44189</ele>
        <time>2009-09-22T12:45:33Z</time>
      </trkpt>
      <trkpt lat="28.26927720" lon="-16.8208479">
        <ele>602.40307</ele>
        <time>2009-09-22T12:45:34Z</time>
      </trkpt>
      <trkpt lat="28.26920580" lon="-16.8208015">
        <ele>604.80664</ele>
        <time>2009-09-22T12:45:37Z</time>
      </trkpt>
      <trkpt lat="28.26911350" lon="-16.8207123">
        <ele>602.40307</ele>
        <time>2009-09-22T12:45:42Z</time>
      </trkpt>
      <trkpt lat="28.26904080" lon="-16.8206451">
        <ele>600.48071</ele>
        <time>2009-09-22T12:45:46Z</time>
      </trkpt>
      <trkpt lat="28.26901790" lon="-16.8206294">
        <ele>599.51928</ele>
        <time>2009-09-22T12:45:47Z</time>
      </trkpt>
      <trkpt lat="28.26896200" lon="-16.8206139">
        <ele>597.59667</ele>
        <time>2009-09-22T12:45:49Z</time>
      </trkpt>
      <trkpt lat="28.26892210" lon="-16.8205978">
        <ele>597.59667</ele>
        <time>2009-09-22T12:45:51Z</time>
      </trkpt>
      <trkpt lat="28.26884180" lon="-16.8205382">
        <ele>597.11596</ele>
        <time>2009-09-22T12:45:55Z</time>
      </trkpt>
      <trkpt lat="28.26880860" lon="-16.8204958">
        <ele>595.67407</ele>
        <time>2009-09-22T12:45:57Z</time>
      </trkpt>
      <trkpt lat="28.26875740" lon="-16.8204811">
        <ele>595.19335</ele>
        <time>2009-09-22T12:45:59Z</time>
      </trkpt>
      <trkpt lat="28.26870970" lon="-16.8204196">
        <ele>593.75146</ele>
        <time>2009-09-22T12:46:02Z</time>
      </trkpt>
      <trkpt lat="28.26866520" lon="-16.8203708">
        <ele>593.27075</ele>
        <time>2009-09-22T12:46:04Z</time>
      </trkpt>
      <trkpt lat="28.26863700" lon="-16.8203263">
        <ele>592.79028</ele>
        <time>2009-09-22T12:46:06Z</time>
      </trkpt>
      <trkpt lat="28.26861180" lon="-16.8203011">
        <ele>593.27075</ele>
        <time>2009-09-22T12:46:07Z</time>
      </trkpt>
      <trkpt lat="28.26857350" lon="-16.8202778">
        <ele>596.63549</ele>
        <time>2009-09-22T12:46:09Z</time>
      </trkpt>
      <trkpt lat="28.26853980" lon="-16.8202527">
        <ele>600.00000</ele>
        <time>2009-09-22T12:46:11Z</time>
      </trkpt>
      <trkpt lat="28.26846950" lon="-16.8202197">
        <ele>603.36450</ele>
        <time>2009-09-22T12:46:14Z</time>
      </trkpt>
      <trkpt lat="28.26843050" lon="-16.8201830">
        <ele>606.72924</ele>
        <time>2009-09-22T12:46:16Z</time>
      </trkpt>
      <trkpt lat="28.26843400" lon="-16.8202132">
        <ele>609.61328</ele>
        <time>2009-09-22T12:46:17Z</time>
      </trkpt>
      <trkpt lat="28.26841020" lon="-16.8202431">
        <ele>606.72924</ele>
        <time>2009-09-22T12:46:18Z</time>
      </trkpt>
      <trkpt lat="28.26842690" lon="-16.8202185">
        <ele>604.80664</ele>
        <time>2009-09-22T12:46:19Z</time>
      </trkpt>
      <trkpt lat="28.26841390" lon="-16.8201700">
        <ele>602.88378</ele>
        <time>2009-09-22T12:46:21Z</time>
      </trkpt>
      <trkpt lat="28.26834010" lon="-16.8200772">
        <ele>598.55786</ele>
        <time>2009-09-22T12:46:26Z</time>
      </trkpt>
      <trkpt lat="28.26832830" lon="-16.8200700">
        <ele>598.55786</ele>
        <time>2009-09-22T12:46:26Z</time>
      </trkpt>
      <trkpt lat="28.26827250" lon="-16.8200668">
        <ele>598.55786</ele>
        <time>2009-09-22T12:46:28Z</time>
      </trkpt>
      <trkpt lat="28.26824100" lon="-16.8200195">
        <ele>596.63549</ele>
        <time>2009-09-22T12:46:30Z</time>
      </trkpt>
      <trkpt lat="28.26819060" lon="-16.8199690">
        <ele>597.11596</ele>
        <time>2009-09-22T12:46:33Z</time>
      </trkpt>
      <trkpt lat="28.26816690" lon="-16.8199457">
        <ele>596.15478</ele>
        <time>2009-09-22T12:46:34Z</time>
      </trkpt>
      <trkpt lat="28.26815800" lon="-16.8199338">
        <ele>595.67407</ele>
        <time>2009-09-22T12:46:35Z</time>
      </trkpt>
      <trkpt lat="28.26805910" lon="-16.8198318">
        <ele>593.75146</ele>
        <time>2009-09-22T12:46:40Z</time>
      </trkpt>
      <trkpt lat="28.26799070" lon="-16.8197916">
        <ele>594.23217</ele>
        <time>2009-09-22T12:46:43Z</time>
      </trkpt>
      <trkpt lat="28.26791860" lon="-16.8197308">
        <ele>596.15478</ele>
        <time>2009-09-22T12:46:47Z</time>
      </trkpt>
      <trkpt lat="28.26787150" lon="-16.8196535">
        <ele>595.67407</ele>
        <time>2009-09-22T12:46:50Z</time>
      </trkpt>
      <trkpt lat="28.26784750" lon="-16.8196577">
        <ele>592.30957</ele>
        <time>2009-09-22T12:46:51Z</time>
      </trkpt>
      <trkpt lat="28.26776340" lon="-16.8196448">
        <ele>592.30957</ele>
        <time>2009-09-22T12:46:55Z</time>
      </trkpt>
      <trkpt lat="28.26770710" lon="-16.8196162">
        <ele>590.86743</ele>
        <time>2009-09-22T12:46:57Z</time>
      </trkpt>
      <trkpt lat="28.26769010" lon="-16.8196186">
        <ele>592.79028</ele>
        <time>2009-09-22T12:46:58Z</time>
      </trkpt>
      <trkpt lat="28.26755310" lon="-16.8196957">
        <ele>604.80664</ele>
        <time>2009-09-22T12:47:04Z</time>
      </trkpt>
      <trkpt lat="28.26745460" lon="-16.8197400">
        <ele>609.61328</ele>
        <time>2009-09-22T12:47:08Z</time>
      </trkpt>
      <trkpt lat="28.26738830" lon="-16.8197810">
        <ele>610.09375</ele>
        <time>2009-09-22T12:47:11Z</time>
      </trkpt>
      <trkpt lat="28.26736020" lon="-16.8197684">
        <ele>606.72924</ele>
        <time>2009-09-22T12:47:12Z</time>
      </trkpt>
      <trkpt lat="28.26734020" lon="-16.8197175">
        <ele>597.11596</ele>
        <time>2009-09-22T12:47:14Z</time>
      </trkpt>
      <trkpt lat="28.26734620" lon="-16.8197115">
        <ele>592.79028</ele>
        <time>2009-09-22T12:47:15Z</time>
      </trkpt>
      <trkpt lat="28.26734170" lon="-16.8197011">
        <ele>588.94506</ele>
        <time>2009-09-22T12:47:15Z</time>
      </trkpt>
      <trkpt lat="28.26732510" lon="-16.8197360">
        <ele>586.06079</ele>
        <time>2009-09-22T12:47:16Z</time>
      </trkpt>
      <trkpt lat="28.26732830" lon="-16.8197460">
        <ele>584.13818</ele>
        <time>2009-09-22T12:47:17Z</time>
      </trkpt>
      <trkpt lat="28.26733490" lon="-16.8197339">
        <ele>582.21557</ele>
        <time>2009-09-22T12:47:17Z</time>
      </trkpt>
      <trkpt lat="28.26733280" lon="-16.8197444">
        <ele>573.08325</ele>
        <time>2009-09-22T12:47:18Z</time>
      </trkpt>
      <trkpt lat="28.26732930" lon="-16.8197529">
        <ele>566.83447</ele>
        <time>2009-09-22T12:47:18Z</time>
      </trkpt>
      <trkpt lat="28.26734830" lon="-16.8197033">
        <ele>565.87329</ele>
        <time>2009-09-22T12:47:20Z</time>
      </trkpt>
      <trkpt lat="28.26737690" lon="-16.8196364">
        <ele>570.19897</ele>
        <time>2009-09-22T12:47:23Z</time>
      </trkpt>
      <trkpt lat="28.26737480" lon="-16.8196140">
        <ele>582.21557</ele>
        <time>2009-09-22T12:47:23Z</time>
      </trkpt>
      <trkpt lat="28.26733380" lon="-16.8197532">
        <ele>583.17675</ele>
        <time>2009-09-22T12:47:29Z</time>
      </trkpt>
      <trkpt lat="28.26731210" lon="-16.8198023">
        <ele>583.17675</ele>
        <time>2009-09-22T12:47:31Z</time>
      </trkpt>
      <trkpt lat="28.26726870" lon="-16.8198436">
        <ele>580.77368</ele>
        <time>2009-09-22T12:47:33Z</time>
      </trkpt>
      <trkpt lat="28.26727180" lon="-16.8198525">
        <ele>579.33154</ele>
        <time>2009-09-22T12:47:33Z</time>
      </trkpt>
      <trkpt lat="28.26732690" lon="-16.8197944">
        <ele>577.88964</ele>
        <time>2009-09-22T12:47:36Z</time>
      </trkpt>
      <trkpt lat="28.26735280" lon="-16.8197301">
        <ele>576.44775</ele>
        <time>2009-09-22T12:47:39Z</time>
      </trkpt>
      <trkpt lat="28.26738420" lon="-16.8196685">
        <ele>574.04443</ele>
        <time>2009-09-22T12:47:41Z</time>
      </trkpt>
      <trkpt lat="28.26742600" lon="-16.8195612">
        <ele>569.71850</ele>
        <time>2009-09-22T12:47:45Z</time>
      </trkpt>
      <trkpt lat="28.26744450" lon="-16.8195176">
        <ele>569.71850</ele>
        <time>2009-09-22T12:47:47Z</time>
      </trkpt>
      <trkpt lat="28.26750800" lon="-16.8193834">
        <ele>575.00585</ele>
        <time>2009-09-22T12:47:52Z</time>
      </trkpt>
      <trkpt lat="28.26754050" lon="-16.8193054">
        <ele>576.44775</ele>
        <time>2009-09-22T12:47:55Z</time>
      </trkpt>
      <trkpt lat="28.26759970" lon="-16.8192147">
        <ele>578.37036</ele>
        <time>2009-09-22T12:47:59Z</time>
      </trkpt>
      <trkpt lat="28.26764610" lon="-16.8191293">
        <ele>578.85107</ele>
        <time>2009-09-22T12:48:03Z</time>
      </trkpt>
      <trkpt lat="28.26768450" lon="-16.8190434">
        <ele>581.25439</ele>
        <time>2009-09-22T12:48:06Z</time>
      </trkpt>
      <trkpt lat="28.26771760" lon="-16.8189755">
        <ele>582.69628</ele>
        <time>2009-09-22T12:48:09Z</time>
      </trkpt>
      <trkpt lat="28.26774600" lon="-16.8189172">
        <ele>583.17675</ele>
        <time>2009-09-22T12:48:11Z</time>
      </trkpt>
      <trkpt lat="28.26774770" lon="-16.8188687">
        <ele>584.13818</ele>
        <time>2009-09-22T12:48:13Z</time>
      </trkpt>
      <trkpt lat="28.26773430" lon="-16.8187106">
        <ele>595.19335</ele>
        <time>2009-09-22T12:48:19Z</time>
      </trkpt>
      <trkpt lat="28.26771360" lon="-16.8185904">
        <ele>602.40307</ele>
        <time>2009-09-22T12:48:23Z</time>
      </trkpt>
      <trkpt lat="28.26770930" lon="-16.8185698">
        <ele>604.80664</ele>
        <time>2009-09-22T12:48:24Z</time>
      </trkpt>
      <trkpt lat="28.26762010" lon="-16.8185292">
        <ele>606.72924</ele>
        <time>2009-09-22T12:48:28Z</time>
      </trkpt>
      <trkpt lat="28.26756140" lon="-16.8185221">
        <ele>604.32617</ele>
        <time>2009-09-22T12:48:30Z</time>
      </trkpt>
      <trkpt lat="28.26750430" lon="-16.8184760">
        <ele>602.88378</ele>
        <time>2009-09-22T12:48:33Z</time>
      </trkpt>
      <trkpt lat="28.26746130" lon="-16.8184812">
        <ele>602.40307</ele>
        <time>2009-09-22T12:48:35Z</time>
      </trkpt>
      <trkpt lat="28.26739180" lon="-16.8184621">
        <ele>600.48071</ele>
        <time>2009-09-22T12:48:37Z</time>
      </trkpt>
      <trkpt lat="28.26732740" lon="-16.8184459">
        <ele>598.55786</ele>
        <time>2009-09-22T12:48:40Z</time>
      </trkpt>
      <trkpt lat="28.26719340" lon="-16.8183888">
        <ele>590.38696</ele>
        <time>2009-09-22T12:48:46Z</time>
      </trkpt>
      <trkpt lat="28.26711160" lon="-16.8183616">
        <ele>587.02197</ele>
        <time>2009-09-22T12:48:49Z</time>
      </trkpt>
      <trkpt lat="28.26699450" lon="-16.8183180">
        <ele>592.79028</ele>
        <time>2009-09-22T12:48:54Z</time>
      </trkpt>
      <trkpt lat="28.26689310" lon="-16.8182805">
        <ele>591.82885</ele>
        <time>2009-09-22T12:48:58Z</time>
      </trkpt>
      <trkpt lat="28.26680900" lon="-16.8182491">
        <ele>589.90625</ele>
        <time>2009-09-22T12:49:02Z</time>
      </trkpt>
      <trkpt lat="28.26671790" lon="-16.8181985">
        <ele>590.86743</ele>
        <time>2009-09-22T12:49:06Z</time>
      </trkpt>
      <trkpt lat="28.26668120" lon="-16.8181832">
        <ele>592.79028</ele>
        <time>2009-09-22T12:49:08Z</time>
      </trkpt>
      <trkpt lat="28.26662100" lon="-16.8181731">
        <ele>596.15478</ele>
        <time>2009-09-22T12:49:10Z</time>
      </trkpt>
      <trkpt lat="28.26655890" lon="-16.8181355">
        <ele>598.55786</ele>
        <time>2009-09-22T12:49:13Z</time>
      </trkpt>
      <trkpt lat="28.26649290" lon="-16.8181223">
        <ele>599.03857</ele>
        <time>2009-09-22T12:49:15Z</time>
      </trkpt>
      <trkpt lat="28.26642300" lon="-16.8181053">
        <ele>597.59667</ele>
        <time>2009-09-22T12:49:18Z</time>
      </trkpt>
      <trkpt lat="28.26633550" lon="-16.8180698">
        <ele>598.55786</ele>
        <time>2009-09-22T12:49:22Z</time>
      </trkpt>
      <trkpt lat="28.26623660" lon="-16.8180326">
        <ele>600.00000</ele>
        <time>2009-09-22T12:49:26Z</time>
      </trkpt>
      <trkpt lat="28.26622520" lon="-16.8180285">
        <ele>600.00000</ele>
        <time>2009-09-22T12:49:27Z</time>
      </trkpt>
      <trkpt lat="28.26620880" lon="-16.8180041">
        <ele>600.96118</ele>
        <time>2009-09-22T12:49:28Z</time>
      </trkpt>
      <trkpt lat="28.26615220" lon="-16.8179337">
        <ele>602.40307</ele>
        <time>2009-09-22T12:49:31Z</time>
      </trkpt>
      <trkpt lat="28.26608750" lon="-16.8178798">
        <ele>602.40307</ele>
        <time>2009-09-22T12:49:34Z</time>
      </trkpt>
      <trkpt lat="28.26606270" lon="-16.8178608">
        <ele>602.40307</ele>
        <time>2009-09-22T12:49:36Z</time>
      </trkpt>
      <trkpt lat="28.26599580" lon="-16.8178461">
        <ele>601.44189</ele>
        <time>2009-09-22T12:49:38Z</time>
      </trkpt>
      <trkpt lat="28.26588390" lon="-16.8178000">
        <ele>597.59667</ele>
        <time>2009-09-22T12:49:43Z</time>
      </trkpt>
      <trkpt lat="28.26587180" lon="-16.8177972">
        <ele>597.11596</ele>
        <time>2009-09-22T12:49:44Z</time>
      </trkpt>
    </trkseg>
  </trk>
</gpx>

